[[{"header":{"parameterUnit":"m.s-1","parameterCategory":1,"la1":30.6,"la2":29.2853,"lo1":-89.7004,"lo2":-87.6739,"dy":0.0162,"dx":0.0183,"nx":112,"ny":82,"refTime":"2023-09-08T18:00:00:Z","depth":0,"parameterNumber":2,"parameterNumberName":"U-component_of_WINDS"},"data":[0.0,0.0,0.0,0.0,0.0,0.0,0.0,0.0,0.0,0.0,0.0,0.0,0.0,0.0,0.0,0.0,0.0,0.0,0.0,0.0,0.0,0.0,0.0,0.0,0.0,0.0,0.0,0.0,0.0,0.0,0.0,0.0,0.0,0.0,0.0,0.0,0.0,0.0,0.0,0.0,0.0,0.0,0.0,0.0,0.0,0.0,0.0,0.0,0.0,0.0,0.0,0.0,0.0,0.0,0.0,0.0,0.0,0.0,0.0,0.0,0.0,0.0,0.0,0.0,0.0,0.0,0.0,0.0,0.0,0.0,0.0,0.0,0.0,0.0,0.0,0.0,0.0,0.0,0.0,0.0,0.0,0.0,0.0,0.0,0.0,0.0,0.0,0.0,0.0,0.0,4.2335,4.3181,4.3297,4.3335,4.347,4.3489,4.3489,4.3489,0.0,0.0,0.0,0.0,0.0,0.0,0.0,0.0,0.0,0.0,0.0,0.0,0.0,0.0,0.0,0.0,0.0,0.0,0.0,0.0,0.0,0.0,0.0,0.0,0.0,0.0,0.0,0.0,0.0,0.0,0.0,0.0,0.0,0.0,0.0,0.0,0.0,0.0,0.0,0.0,0.0,0.0,0.0,0.0,0.0,0.0,0.0,0.0,0.0,0.0,0.0,0.0,0.0,0.0,0.0,0.0,0.0,0.0,0.0,0.0,0.0,0.0,0.0,0.0,0.0,0.0,0.0,0.0,0.0,0.0,0.0,0.0,0.0,0.0,0.0,0.0,0.0,0.0,0.0,0.0,0.0,0.0,0.0,0.0,0.0,0.0,0.0,0.0,0.0,0.0,0.0,0.0,0.0,0.0,0.0,0.0,0.0,0.0,0.0,0.0,0.0,0.0,0.0,0.0,4.3201,4.4028,4.4124,4.4412,4.5163,4.522,4.522,4.522,0.0,0.0,0.0,0.0,0.0,0.0,0.0,0.0,0.0,0.0,0.0,0.0,0.0,0.0,0.0,0.0,0.0,0.0,0.0,0.0,0.0,0.0,0.0,0.0,0.0,0.0,0.0,0.0,0.0,0.0,0.0,0.0,0.0,0.0,0.0,0.0,0.0,0.0,0.0,0.0,0.0,0.0,0.0,0.0,0.0,0.0,0.0,0.0,0.0,0.0,0.0,0.0,0.0,0.0,0.0,0.0,0.0,0.0,0.0,0.0,0.0,0.0,0.0,0.0,0.0,0.0,0.0,0.0,0.0,0.0,0.0,0.0,0.0,0.0,0.0,0.0,0.0,0.0,0.0,0.0,0.0,0.0,0.0,0.0,0.0,0.0,0.0,0.0,0.0,0.0,0.0,0.0,0.0,0.0,0.0,0.0,0.0,0.0,0.0,0.0,0.0,0.0,0.0,4.4162,4.4605,4.497,4.4989,4.5163,4.5566,4.5586,4.5586,4.5586,4.4874,0.0,0.0,0.0,0.0,0.0,0.0,0.0,0.0,0.0,0.0,0.0,0.0,0.0,0.0,0.0,0.0,0.0,0.0,0.0,0.0,0.0,0.0,0.0,0.0,0.0,0.0,0.0,0.0,0.0,0.0,0.0,0.0,0.0,0.0,0.0,0.0,0.0,0.0,0.0,0.0,0.0,0.0,0.0,0.0,0.0,0.0,0.0,0.0,0.0,0.0,0.0,0.0,0.0,0.0,0.0,0.0,0.0,0.0,0.0,0.0,0.0,0.0,0.0,0.0,0.0,0.0,0.0,0.0,0.0,0.0,0.0,0.0,0.0,0.0,0.0,0.0,0.0,0.0,0.0,0.0,0.0,0.0,0.0,0.0,0.0,0.0,0.0,0.0,0.0,0.0,0.0,0.0,0.0,0.0,0.0,0.0,0.0,0.0,0.0,0.0,0.0,0.0,4.5182,4.5586,4.5586,4.5586,4.5586,4.5586,4.5586,4.5586,4.5586,4.5586,0.0,0.0,0.0,0.0,0.0,0.0,0.0,0.0,0.0,0.0,0.0,0.0,0.0,0.0,0.0,0.0,0.0,0.0,0.0,0.0,0.0,0.0,0.0,0.0,0.0,0.0,0.0,0.0,0.0,0.0,0.0,0.0,0.0,0.0,0.0,0.0,0.0,0.0,0.0,0.0,0.0,0.0,0.0,0.0,0.0,0.0,0.0,0.0,0.0,0.0,0.0,0.0,0.0,0.0,0.0,0.0,0.0,0.0,0.0,0.0,0.0,0.0,0.0,0.0,0.0,0.0,0.0,0.0,0.0,0.0,0.0,0.0,0.0,0.0,0.0,0.0,0.0,0.0,0.0,0.0,0.0,0.0,0.0,0.0,0.0,0.0,0.0,0.0,0.0,0.0,0.0,0.0,0.0,0.0,0.0,0.0,0.0,0.0,0.0,0.0,0.0,0.0,4.5547,4.5586,4.5586,4.5586,4.5586,4.5586,4.5586,4.5586,4.5586,4.5586,0.0,0.0,0.0,0.0,0.0,0.0,0.0,0.0,0.0,0.0,0.0,0.0,0.0,0.0,0.0,0.0,0.0,0.0,0.0,0.0,0.0,0.0,0.0,0.0,0.0,0.0,0.0,0.0,0.0,0.0,0.0,0.0,0.0,0.0,0.0,0.0,0.0,0.0,0.0,0.0,0.0,0.0,0.0,0.0,0.0,0.0,0.0,0.0,0.0,0.0,0.0,0.0,0.0,0.0,0.0,0.0,0.0,0.0,0.0,0.0,0.0,0.0,0.0,0.0,0.0,0.0,0.0,0.0,0.0,0.0,0.0,0.0,0.0,0.0,0.0,0.0,0.0,0.0,0.0,0.0,0.0,0.0,0.0,0.0,0.0,0.0,0.0,0.0,0.0,0.0,0.0,0.0,0.0,0.0,0.0,0.0,0.0,0.0,0.0,0.0,0.0,0.0,4.6067,4.6413,0.0,4.6855,4.7163,4.7163,4.7163,4.7163,4.7163,0.0,0.0,0.0,0.0,0.0,0.0,0.0,0.0,0.0,0.0,0.0,0.0,0.0,0.0,0.0,0.0,0.0,0.0,0.0,0.0,0.0,0.0,0.0,0.0,0.0,0.0,0.0,0.0,0.0,0.0,0.0,0.0,0.0,0.0,0.0,0.0,0.0,0.0,0.0,0.0,0.0,0.0,0.0,0.0,0.0,0.0,0.0,0.0,0.0,0.0,0.0,0.0,0.0,0.0,0.0,0.0,0.0,0.0,0.0,0.0,0.0,0.0,0.0,0.0,0.0,0.0,0.0,0.0,0.0,0.0,0.0,0.0,0.0,0.0,0.0,0.0,0.0,0.0,0.0,0.0,0.0,0.0,0.0,0.0,0.0,0.0,0.0,0.0,0.0,0.0,0.0,0.0,0.0,0.0,0.0,0.0,0.0,0.0,0.0,0.0,0.0,0.0,4.6355,4.6913,4.7278,0.0,4.7778,4.8105,4.8105,4.8105,4.8105,4.8105,0.0,0.0,0.0,0.0,0.0,0.0,0.0,0.0,0.0,0.0,0.0,0.0,0.0,0.0,0.0,0.0,0.0,0.0,0.0,0.0,0.0,0.0,0.0,0.0,0.0,0.0,0.0,0.0,0.0,0.0,0.0,0.0,0.0,0.0,0.0,0.0,0.0,0.0,0.0,0.0,0.0,0.0,0.0,0.0,0.0,0.0,0.0,0.0,0.0,0.0,0.0,0.0,0.0,0.0,0.0,0.0,0.0,0.0,0.0,0.0,0.0,0.0,0.0,0.0,0.0,0.0,0.0,0.0,0.0,0.0,0.0,0.0,0.0,0.0,0.0,0.0,0.0,0.0,0.0,0.0,0.0,0.0,0.0,0.0,0.0,0.0,0.0,0.0,0.0,0.0,0.0,0.0,0.0,0.0,0.0,0.0,0.0,0.0,0.0,0.0,0.0,0.0,4.8009,4.8105,4.8105,4.8105,4.8125,4.8125,4.8125,4.8125,4.8125,0.0,0.0,0.0,0.0,0.0,0.0,0.0,0.0,0.0,0.0,0.0,0.0,0.0,0.0,0.0,0.0,0.0,0.0,0.0,0.0,0.0,0.0,0.0,0.0,0.0,0.0,0.0,0.0,0.0,0.0,0.0,0.0,0.0,0.0,0.0,0.0,0.0,0.0,0.0,0.0,0.0,0.0,0.0,0.0,0.0,0.0,0.0,0.0,0.0,0.0,0.0,0.0,0.0,0.0,0.0,0.0,0.0,0.0,0.0,0.0,0.0,0.0,0.0,0.0,0.0,0.0,0.0,0.0,0.0,0.0,0.0,0.0,0.0,0.0,0.0,0.0,0.0,0.0,0.0,0.0,0.0,0.0,0.0,0.0,0.0,0.0,0.0,0.0,0.0,0.0,0.0,0.0,0.0,0.0,0.0,0.0,0.0,0.0,0.0,0.0,0.0,0.0,0.0,4.8067,4.8644,4.9029,4.9029,4.9567,4.9933,4.9933,4.9933,4.9933,4.9933,0.0,0.0,0.0,0.0,0.0,0.0,0.0,0.0,0.0,0.0,0.0,0.0,0.0,0.0,0.0,0.0,0.0,0.0,0.0,0.0,0.0,0.0,0.0,0.0,0.0,0.0,0.0,0.0,0.0,0.0,0.0,0.0,0.0,0.0,0.0,0.0,0.0,0.0,0.0,0.0,0.0,0.0,0.0,0.0,0.0,0.0,0.0,0.0,0.0,0.0,0.0,0.0,0.0,0.0,0.0,0.0,0.0,0.0,0.0,0.0,0.0,0.0,0.0,0.0,0.0,0.0,0.0,0.0,0.0,0.0,0.0,0.0,0.0,0.0,0.0,0.0,0.0,0.0,0.0,0.0,0.0,0.0,0.0,0.0,0.0,0.0,0.0,0.0,0.0,0.0,0.0,0.0,0.0,0.0,0.0,0.0,0.0,0.0,0.0,0.0,0.0,0.0,4.9086,4.9586,4.9913,4.9913,5.0375,5.0702,5.0702,5.0702,5.0702,5.0702,0.0,0.0,0.0,0.0,0.0,0.0,0.0,0.0,0.0,0.0,0.0,0.0,0.0,0.0,0.0,0.0,0.0,0.0,0.0,0.0,0.0,0.0,0.0,0.0,0.0,0.0,0.0,0.0,0.0,0.0,0.0,0.0,0.0,0.0,0.0,0.0,0.0,0.0,0.0,0.0,0.0,0.0,0.0,0.0,0.0,0.0,0.0,0.0,0.0,0.0,0.0,0.0,0.0,0.0,0.0,0.0,0.0,0.0,0.0,0.0,0.0,0.0,0.0,0.0,0.0,0.0,0.0,0.0,0.0,0.0,0.0,0.0,0.0,0.0,0.0,0.0,0.0,0.0,0.0,0.0,0.0,0.0,0.0,0.0,0.0,0.0,0.0,0.0,0.0,0.0,0.0,0.0,0.0,0.0,0.0,0.0,0.0,0.0,0.0,0.0,0.0,0.0,5.0587,5.0702,5.0702,5.0702,5.0702,5.0702,5.0702,5.0702,5.0702,5.0702,0.0,0.0,0.0,0.0,0.0,0.0,0.0,0.0,0.0,0.0,0.0,0.0,0.0,0.0,0.0,0.0,0.0,0.0,0.0,0.0,0.0,0.0,0.0,0.0,0.0,0.0,0.0,0.0,0.0,0.0,0.0,0.0,0.0,0.0,0.0,0.0,0.0,0.0,0.0,0.0,0.0,0.0,0.0,0.0,0.0,0.0,0.0,0.0,0.0,0.0,0.0,0.0,0.0,0.0,0.0,0.0,0.0,0.0,0.0,0.0,4.1665,0.0,0.0,0.0,0.0,0.0,0.0,0.0,0.0,0.0,0.0,0.0,0.0,0.0,0.0,0.0,0.0,0.0,0.0,0.0,0.0,0.0,0.0,0.0,0.0,0.0,0.0,0.0,0.0,0.0,0.0,0.0,0.0,0.0,0.0,0.0,0.0,0.0,0.0,0.0,0.0,0.0,5.0664,5.0702,5.0702,5.0702,5.0702,5.0702,5.0702,5.0702,5.0702,5.0702,5.0702,0.0,0.0,0.0,0.0,0.0,0.0,0.0,0.0,0.0,0.0,0.0,0.0,0.0,0.0,0.0,0.0,0.0,0.0,0.0,0.0,0.0,0.0,0.0,0.0,0.0,0.0,0.0,0.0,0.0,0.0,0.0,0.0,0.0,0.0,0.0,0.0,0.0,0.0,0.0,0.0,0.0,0.0,0.0,0.0,0.0,0.0,0.0,0.0,0.0,0.0,0.0,0.0,0.0,0.0,0.0,0.0,0.0,0.0,0.0,0.0,4.1919,0.0,0.0,0.0,0.0,0.0,0.0,0.0,0.0,0.0,0.0,0.0,0.0,0.0,0.0,0.0,0.0,0.0,0.0,0.0,0.0,0.0,0.0,0.0,0.0,0.0,0.0,0.0,0.0,0.0,0.0,0.0,0.0,0.0,0.0,0.0,0.0,0.0,0.0,0.0,0.0,5.1221,5.1279,5.1433,5.1856,5.1895,5.1895,5.1895,5.1895,5.1722,5.1298,5.1279,0.0,0.0,0.0,0.0,0.0,0.0,0.0,0.0,0.0,0.0,0.0,0.0,0.0,0.0,0.0,0.0,0.0,0.0,0.0,0.0,0.0,0.0,0.0,0.0,0.0,0.0,0.0,0.0,0.0,0.0,0.0,0.0,0.0,0.0,0.0,0.0,0.0,0.0,0.0,0.0,0.0,0.0,0.0,0.0,0.0,0.0,0.0,0.0,0.0,0.0,0.0,0.0,0.0,4.1659,4.1659,4.1932,4.2341,4.2506,4.2503,4.2342,4.2146,4.1943,4.1983,0.0,0.0,0.0,0.0,0.0,0.0,0.0,0.0,0.0,0.0,0.0,0.0,0.0,0.0,0.0,0.0,0.0,0.0,0.0,0.0,0.0,0.0,4.7278,4.7952,4.8221,4.8144,4.749,0.0,0.0,0.0,0.0,0.0,0.0,0.0,0.0,0.0,0.0,0.0,5.2049,5.2145,5.2414,5.3126,5.3203,5.3203,5.3203,5.3203,5.2895,5.2183,5.2145,5.1837,0.0,0.0,0.0,0.0,0.0,0.0,0.0,0.0,0.0,0.0,0.0,0.0,0.0,0.0,0.0,0.0,0.0,0.0,0.0,0.0,0.0,0.0,0.0,0.0,0.0,0.0,0.0,0.0,0.0,0.0,0.0,0.0,3.8964,3.9662,0.0,0.0,0.0,0.0,0.0,0.0,0.0,0.0,0.0,0.0,0.0,0.0,0.0,4.2139,4.2139,4.2818,4.3201,4.3269,4.3201,4.3201,4.3269,4.3311,4.3332,4.3332,4.3321,0.0,4.3284,4.3565,0.0,0.0,0.0,0.0,0.0,0.0,0.0,0.0,0.0,0.0,0.0,0.0,0.0,0.0,0.0,0.0,0.0,0.0,0.0,0.0,0.0,0.0,4.7971,4.8067,4.8682,4.9202,4.9086,4.9144,4.9221,4.9221,4.9933,5.0529,0.0,0.0,0.0,0.0,0.0,0.0,5.301,5.3029,5.3068,5.3203,5.3203,5.3203,5.3203,5.3203,5.3145,5.3049,5.3029,5.2991,5.2876,5.2085,0.0,0.0,0.0,0.0,0.0,0.0,0.0,0.0,0.0,0.0,0.0,0.0,0.0,0.0,0.0,0.0,0.0,0.0,0.0,0.0,0.0,0.0,0.0,0.0,0.0,0.0,0.0,0.0,0.0,3.9772,4.0194,4.0543,4.0579,4.0726,0.0,0.0,0.0,0.0,0.0,0.0,0.0,0.0,0.0,4.2451,4.2782,4.2965,4.2965,4.3773,4.4176,4.4176,4.4617,4.4837,4.4837,4.4837,4.4837,4.4837,4.4837,4.4837,4.4799,4.4014,4.4003,4.441,0.0,0.0,0.0,0.0,4.5619,4.5687,4.6244,4.6447,4.6492,4.6897,0.0,0.0,0.0,0.0,0.0,0.0,0.0,4.7988,4.8645,4.8836,4.8952,4.9433,4.9856,5.0125,5.0125,5.0491,5.0664,5.0221,5.0798,5.1375,5.1375,5.2068,0.0,0.0,0.0,5.3376,5.3876,5.3933,5.4107,5.4568,5.4607,5.4607,5.4607,5.4607,5.4414,5.3953,5.3933,5.3703,5.3222,5.2612,5.2315,0.0,0.0,0.0,0.0,0.0,0.0,0.0,0.0,0.0,0.0,0.0,0.0,0.0,0.0,0.0,0.0,0.0,0.0,0.0,0.0,0.0,0.0,0.0,0.0,0.0,0.0,0.0,0.0,4.0726,4.1185,4.1387,4.1423,4.1497,0.0,0.0,0.0,0.0,0.0,0.0,4.3754,4.3809,4.3901,4.4103,4.4103,4.4103,4.4103,4.4709,4.5021,4.5021,4.5608,4.6012,4.6214,4.6214,4.6324,4.6507,4.6507,4.6507,4.6397,4.4782,4.447,4.5021,4.5021,4.5369,4.592,4.6163,4.6279,4.6392,4.7103,4.7376,4.7467,4.7933,4.8259,4.8432,4.8432,0.0,0.0,0.0,0.0,4.8778,4.9529,4.9721,4.9952,5.0798,5.101,5.1068,5.1279,5.1818,5.1991,5.1164,5.1664,5.2241,5.2241,5.2972,0.0,5.3366,5.3642,5.3985,5.4445,5.4693,5.5009,5.5477,5.564,5.5703,5.5703,5.5618,5.5285,5.469,5.4565,5.4211,5.3556,5.3129,5.2946,5.3034,0.0,0.0,0.0,0.0,0.0,0.0,0.0,0.0,0.0,0.0,0.0,0.0,0.0,0.0,0.0,0.0,0.0,0.0,0.0,0.0,0.0,0.0,0.0,0.0,0.0,0.0,0.0,0.0,0.0,4.2158,4.2249,0.0,0.0,0.0,0.0,4.3424,4.3424,4.3791,4.4617,4.4654,4.5002,4.5755,4.5773,4.5773,4.5773,4.581,4.5847,4.5847,4.5883,4.6305,4.7058,4.7058,4.748,4.8177,4.8177,4.8177,4.8049,4.6434,4.5792,4.5847,4.5847,4.5865,4.5902,4.5938,4.592,4.6044,4.6786,4.7041,4.7129,4.7853,4.8663,4.9336,4.9336,4.9654,0.0,0.0,5.0287,5.0092,5.0527,5.0625,5.0837,5.1664,5.1856,5.2068,5.2895,5.3106,5.2876,5.201,5.2549,5.3126,5.3126,0.0,5.429,5.3824,5.4814,5.5308,5.4583,5.5154,5.5497,5.516,5.5489,5.5703,5.5703,5.5331,5.5115,5.5076,5.4703,5.4491,5.4434,5.3983,5.3385,5.2634,5.2196,0.0,0.0,0.0,0.0,0.0,0.0,0.0,0.0,0.0,0.0,0.0,0.0,0.0,0.0,0.0,0.0,0.0,0.0,0.0,0.0,0.0,0.0,0.0,0.0,0.0,0.0,0.0,0.0,4.3039,4.3057,0.0,4.4195,4.4268,4.4488,4.5002,4.5039,4.5168,4.5461,4.548,4.5608,4.5883,4.6416,4.6673,4.6673,4.77,4.8233,4.8269,4.8802,4.9205,4.9499,4.9499,4.9646,4.9921,4.9921,4.9921,4.9866,4.9297,4.8746,4.8269,4.8269,4.86,4.8985,4.8471,4.8269,4.8291,4.8259,4.8228,4.8321,4.8837,4.922,4.9467,4.9467,4.9771,5.0231,5.0903,5.1165,5.1425,5.2144,5.2318,5.2375,5.2683,5.2741,5.2737,5.2786,5.3216,5.3508,5.3178,5.3632,5.3928,5.3628,5.4514,5.5135,5.4702,5.5255,5.5599,5.5306,5.5512,5.564,5.5512,5.5599,5.5599,5.5331,5.5186,5.4979,5.4731,5.4597,5.4503,5.4503,5.4326,5.4125,5.3823,5.3126,5.2414,0.0,0.0,0.0,0.0,0.0,0.0,0.0,0.0,0.0,0.0,0.0,0.0,0.0,0.0,0.0,0.0,0.0,0.0,0.0,0.0,0.0,0.0,0.0,0.0,0.0,0.0,4.3901,4.3901,4.414,4.4507,4.5057,4.5112,4.5333,4.5865,4.5902,4.614,4.6673,4.6709,4.6966,4.7535,4.8086,4.8361,4.8361,4.9407,4.9958,4.9994,5.0545,5.0949,5.1206,5.1206,5.1353,5.161,5.161,5.161,5.161,5.161,5.1298,5.0747,5.0215,5.0325,5.0747,5.0196,4.9994,4.9981,4.9783,4.9818,4.9963,5.0214,5.0304,5.0334,5.0497,5.0608,5.0855,5.1555,5.1825,5.2031,5.2604,5.2757,5.2877,5.3299,5.3398,5.3453,5.3604,5.3964,5.4249,5.4249,5.4484,5.4594,5.4275,5.4924,5.5306,5.4741,5.5015,5.5186,5.4886,5.5115,5.5237,5.5069,5.5193,5.5186,5.4924,5.4741,5.456,5.4288,5.4137,5.405,5.405,5.4206,5.4206,5.405,5.3328,5.2779,5.24,0.0,0.0,0.0,0.0,0.0,0.0,0.0,0.0,0.0,0.0,0.0,0.0,0.0,0.0,0.0,0.0,0.0,0.0,0.0,0.0,0.0,0.0,0.0,4.3663,4.425,4.4745,4.4745,4.5424,4.5902,4.5938,4.5957,4.5993,4.6012,4.603,4.6728,4.8306,4.8379,4.9132,5.0747,5.082,5.0839,5.0839,5.0857,5.0875,5.0875,5.0875,5.1279,5.2032,5.2032,5.2454,5.3206,5.3206,5.3206,5.3206,5.3206,5.3206,5.3059,5.1481,5.0875,5.0875,5.0857,5.082,5.0864,5.1158,5.1559,5.1864,5.1864,5.1864,5.1956,5.2406,5.2229,5.1986,5.2471,5.2267,5.1933,5.1951,5.197,5.23,5.3533,5.3823,5.4148,5.5385,5.5331,5.5061,5.5061,5.5061,5.5061,5.5061,5.5061,5.4771,5.3941,5.4187,0.0,5.3336,5.3979,5.434,5.3888,5.4221,5.4503,5.4471,5.4048,5.3814,5.3777,5.3422,5.3206,5.3206,5.3565,5.3604,5.3206,5.275,5.2343,5.2032,0.0,0.0,0.0,0.0,0.0,0.0,0.0,0.0,0.0,0.0,0.0,0.0,0.0,0.0,0.0,0.0,0.0,0.0,0.0,0.0,0.0,0.0,4.5498,4.5259,4.5424,4.5571,4.5571,4.5773,4.614,4.6728,4.7315,4.7902,4.8526,4.9114,4.9646,5.0086,5.0105,5.0325,5.0784,5.1371,5.1665,5.1665,5.2252,5.2546,5.2546,5.2546,5.2674,5.2876,5.2876,5.3004,5.3206,5.3206,5.3206,5.3206,5.3206,5.3206,5.317,5.2729,5.2546,5.2472,5.1885,5.1298,5.0784,5.0906,5.0986,5.1082,5.1082,5.1082,5.112,5.1268,5.1374,5.1604,5.239,5.2723,5.3,5.3604,5.3805,5.3874,5.4212,5.43,5.4326,5.4326,5.4217,5.4168,5.4168,5.4168,5.4168,5.4168,5.4433,5.4484,5.3869,5.4187,5.4406,5.4171,5.434,5.4471,5.4322,5.442,5.4355,5.4013,5.3869,5.3701,5.3381,5.3272,5.3206,5.3206,5.3295,5.3295,5.3206,5.3074,5.2946,0.0,0.0,0.0,0.0,0.0,0.0,0.0,0.0,0.0,0.0,0.0,0.0,0.0,0.0,0.0,0.0,0.0,0.0,0.0,0.0,0.0,0.0,4.6416,4.6526,4.6856,4.6617,4.6416,4.6416,4.7021,4.7627,4.8104,4.8875,4.9554,5.005,5.0545,5.0949,5.1279,5.1298,5.1463,5.1793,5.227,5.2509,5.2509,5.2968,5.3206,5.3206,5.3206,5.3206,5.3206,5.3206,5.3206,5.3206,5.3206,5.3206,5.3206,5.3206,5.3206,5.3206,0.0,0.0,0.0,0.0,5.2215,5.1811,5.1811,5.1811,5.1811,5.1811,5.1811,5.1834,5.202,5.21,5.2232,5.2902,5.3143,5.3309,5.3831,5.3961,5.4015,5.4171,5.4187,5.4187,5.4118,5.3941,5.3814,5.3814,5.3644,0.0,5.3545,5.3924,5.4067,5.3604,5.3777,5.3961,5.3961,5.3961,5.3961,5.3961,5.3961,5.3851,5.3565,5.3545,0.0,0.0,0.0,5.3206,5.3206,5.3206,0.0,0.0,0.0,5.3206,5.3206,5.2729,0.0,0.0,5.1537,5.1335,0.0,0.0,0.0,0.0,0.0,0.0,0.0,0.0,0.0,0.0,0.0,0.0,0.0,0.0,0.0,0.0,4.726,4.7535,4.8343,4.7847,4.7388,4.7388,4.8691,4.9627,4.9719,5.0453,5.0949,5.0949,5.1022,5.1389,5.2087,0.0,0.0,0.0,0.0,5.3206,5.3206,5.3206,5.3261,5.3353,5.3353,5.339,5.3482,5.3482,5.3482,5.3482,5.3482,5.3482,5.3482,5.3482,5.3482,5.3463,5.328,5.3206,5.3206,5.3206,5.3206,5.3206,5.3206,0.0,0.0,5.3206,5.3206,5.3272,5.3624,5.3484,5.3254,5.3624,5.3484,5.3206,5.3206,5.3206,5.3295,5.3663,5.372,5.3851,5.4274,5.4032,5.372,5.372,5.3444,5.3206,5.3206,5.3524,5.3604,5.323,5.3206,5.3206,5.3206,5.3206,5.3206,5.3206,5.3206,0.0,5.3206,5.3206,5.3206,5.3206,5.3206,5.3206,5.3206,5.3206,5.3206,5.3206,5.3206,5.3206,5.3206,5.3206,5.3381,5.3683,5.1946,5.1322,0.0,0.0,0.0,0.0,0.0,0.0,0.0,0.0,0.0,0.0,0.0,0.0,0.0,0.0,0.0,4.8049,4.8086,4.8379,4.9224,4.9205,4.9114,4.9114,4.9389,4.9848,5.0508,5.1298,5.1756,5.1756,5.238,5.2803,5.2968,5.2968,5.3041,5.3206,5.3206,5.3206,5.3206,5.3206,5.3537,5.4179,5.4179,0.0,5.5133,5.5133,5.5133,5.5133,5.5133,5.5133,5.5133,5.5133,5.5133,5.5005,5.372,5.3206,5.3206,5.3206,5.3206,5.3206,5.3206,5.3206,5.3206,5.3206,5.3206,5.3206,5.3295,5.3272,0.0,5.3295,5.3272,5.3206,5.3206,5.3206,5.3206,5.3295,5.3336,5.3336,5.344,5.3359,5.3336,5.3336,5.323,5.3206,5.3206,5.3272,5.3295,5.3206,5.3206,5.3206,5.3206,5.3206,5.3206,5.3206,5.3206,5.3206,5.3206,5.3206,5.3206,5.3206,5.3206,5.3206,5.3206,5.3206,5.3206,5.3206,5.3206,5.3206,5.3206,5.3206,5.323,5.3318,5.325,5.3457,0.0,0.0,0.0,0.0,0.0,0.0,0.0,0.0,0.0,0.0,0.0,4.7829,0.0,0.0,4.8306,4.8306,4.8673,4.9095,4.9517,4.9939,5.0196,5.0196,5.0545,5.0949,5.1353,5.2123,5.2601,5.2601,5.2986,5.3206,5.3206,5.3206,5.3206,5.3206,5.3206,5.339,5.3812,5.3812,5.4197,5.4987,5.4987,5.5207,5.5592,5.5592,5.5592,5.5592,5.5592,5.5592,5.5592,5.5592,5.5592,5.55,5.4711,5.4399,5.4344,5.3959,5.3812,5.3739,5.3353,5.3206,5.3206,5.3206,5.3206,5.3206,5.3206,5.3206,5.3206,5.3206,5.3206,5.3206,5.3206,5.3206,5.3206,5.3206,5.3206,5.3206,5.3206,5.3206,5.3206,5.3206,5.3206,5.3206,5.3206,5.3206,5.3206,5.3206,5.3206,5.3206,5.3206,5.3206,5.3206,5.3206,5.3206,5.3206,5.3206,5.3206,5.3206,5.3206,5.3206,5.3206,5.3206,5.3206,5.3206,5.3206,5.3206,5.3206,5.3206,5.3206,5.3206,5.3206,5.3422,5.3623,0.0,0.0,0.0,0.0,0.0,0.0,0.0,0.0,4.8132,4.8132,4.8132,4.8169,4.8334,4.8352,4.8407,4.8571,4.9273,4.9884,5.0031,5.0618,5.1096,5.1261,5.1701,5.205,5.2215,5.2821,5.3206,5.3206,5.3206,5.3206,5.3206,5.3206,5.328,5.3445,5.3445,5.383,5.4638,5.4638,5.5042,5.5831,5.5831,5.5904,5.6051,5.6051,5.6051,5.6051,5.6051,5.6051,5.6051,5.6051,5.6051,5.6051,5.6051,5.6051,5.5941,5.4987,5.4638,5.4546,5.3904,5.3683,5.3683,5.3683,5.3573,5.3445,5.3445,5.3335,5.3206,5.3206,5.3206,5.3206,5.3206,5.3206,5.3206,5.3206,5.3206,5.3206,5.3206,5.3206,5.3206,5.3206,5.3206,5.3206,5.3206,5.3206,5.3206,5.3206,5.3206,5.3206,5.3206,5.3206,5.3206,5.3206,5.3206,5.3206,5.3206,5.3206,5.3206,5.3206,5.3206,5.3206,5.3206,5.3206,5.3206,5.3206,5.3206,5.3206,5.3206,5.3206,5.3206,5.3206,5.3206,5.3206,4.5799,4.6118,4.6136,4.6224,4.6407,4.6524,0.0,0.0,4.7488,4.7488,4.7488,4.7687,4.8367,4.8555,4.8772,4.9414,5.018,5.0912,5.1628,5.1793,5.2123,5.2858,5.238,5.227,5.3004,5.317,5.3206,5.3206,5.3206,5.3206,5.3206,5.3206,5.3537,5.4234,5.4271,5.4638,5.5445,5.5464,5.5868,5.6675,5.6675,5.7042,5.7721,5.7721,5.7721,5.7721,5.7721,5.7721,5.7721,5.7721,5.7721,5.7721,5.7721,5.7721,5.7538,5.6014,5.5464,5.5445,5.5354,5.5317,5.5317,5.5317,5.484,5.4271,5.4271,5.3775,5.3206,5.3206,5.3206,5.3206,5.3206,5.3206,5.3206,5.3206,5.3206,5.3206,5.3206,5.3206,5.3206,5.3206,5.3206,5.3206,5.3206,5.3206,5.3206,5.3206,5.3206,5.3206,5.3206,5.3206,5.3206,5.3206,5.3206,5.3206,5.3206,5.3206,5.3206,5.3206,5.3206,5.3206,5.3206,5.3206,5.3206,5.3206,5.3206,5.3206,5.3206,5.3206,5.3206,5.3206,5.3206,5.3206,4.5181,4.5372,4.5372,4.5372,4.5597,4.5865,4.5865,4.6383,4.6944,4.7426,4.7533,4.7765,4.8485,4.8627,4.8734,0.0,5.01,5.0973,5.1318,5.2133,5.2821,5.317,5.2913,5.2839,5.3188,5.3206,5.3206,5.3206,5.3206,5.3408,5.3867,5.3904,5.4271,5.506,5.5097,5.5482,5.629,5.6308,5.6693,5.7501,5.7501,5.7666,5.7997,5.7997,5.7997,5.7997,5.7997,5.7997,5.7997,5.7997,5.7997,5.7997,5.7997,5.7997,5.785,5.6712,5.6308,5.6235,5.5757,5.5592,5.5592,5.5592,5.5354,5.5097,5.5097,5.4858,5.4601,5.4601,5.4601,5.4601,5.4601,5.4601,5.4601,5.4601,5.4601,5.4601,5.4601,5.4601,5.4601,5.4601,5.4601,5.4601,5.4601,5.4601,5.4601,5.4601,5.3812,5.3206,5.3206,5.3206,5.3206,5.3206,5.3206,5.3206,5.3206,5.3206,5.3206,5.3206,5.3206,5.3206,5.3206,5.3206,5.3206,5.3206,5.3206,5.3206,5.3206,5.3206,5.3206,5.3206,5.3206,5.3206,4.4587,4.4587,4.4587,4.4587,4.506,4.5541,4.5541,4.6169,4.6935,4.7533,4.7606,4.7834,4.859,4.873,4.8904,4.9286,5.0281,5.1106,5.1484,5.2298,5.298,5.3164,5.3206,5.3206,5.3206,5.3206,5.3206,5.3206,5.3427,5.3794,5.4363,5.4601,5.5097,5.5904,5.5923,5.6308,5.7134,5.7134,5.7428,5.7997,5.7997,5.7997,5.7997,5.7997,5.7997,5.7997,5.7997,5.7997,5.7997,5.7997,5.7997,5.7997,5.7997,5.7997,5.7923,5.7354,5.7134,5.706,5.6455,5.6253,5.6253,5.6253,5.6106,5.5923,5.5923,5.5776,5.5592,5.5592,5.5592,5.5592,5.5592,5.5592,5.5592,5.5592,5.5592,5.5592,5.5592,5.5592,5.5592,5.5592,5.5592,5.5592,5.5592,5.5592,5.5592,5.5592,5.4601,5.3794,5.3573,5.3353,5.3206,5.3206,5.3206,5.3206,5.3206,5.3206,5.3206,5.3206,5.3206,5.3206,5.3206,5.3206,5.3206,5.3206,5.3206,5.3206,5.3206,5.3206,5.3206,5.3206,5.3206,5.3206,4.4587,4.4587,4.4587,4.4587,4.5128,4.5669,4.5669,4.6696,4.7657,4.7674,4.7674,4.7899,4.8643,4.8837,4.9338,5.0787,5.1085,5.1576,5.2919,5.2536,5.2381,5.3103,5.3206,5.3206,0.0,5.3206,5.3206,5.3206,5.3922,5.4363,5.4399,5.5133,5.5923,5.6748,5.6767,5.7152,5.796,5.796,5.7978,5.7997,5.7997,5.7997,5.7997,5.7997,5.7997,5.7997,5.7997,5.7997,5.7997,5.7997,5.7997,5.7997,5.7997,5.7997,5.7997,5.796,5.796,5.796,5.7941,5.7923,5.7923,5.7923,5.7409,5.6767,5.6767,5.6216,5.5592,5.5592,5.5592,5.5592,5.5592,5.5592,5.5592,5.5592,5.5592,5.5592,5.5592,5.5592,5.5592,5.5592,5.5592,5.5592,5.5592,5.5592,5.5592,5.5592,5.5556,5.5244,5.4454,5.3683,5.3206,5.3206,5.3206,5.3206,5.3206,5.3206,5.3206,5.3206,5.3206,5.3206,5.3206,5.3206,5.3206,5.3206,5.3206,5.3206,5.3206,5.3206,5.3206,5.3206,5.3206,5.3206,4.5196,4.5331,4.5331,4.5331,4.5872,4.643,4.643,4.6758,4.722,4.7732,4.7834,4.8055,4.8788,4.8924,4.9112,4.9646,5.009,5.0716,5.1661,5.197,5.2159,5.2445,5.2893,0.0,0.0,0.0,0.0,5.3959,5.4252,5.4876,5.5941,5.6253,5.6767,5.7574,5.7593,5.7721,5.7997,5.7997,5.7997,5.7997,5.7997,5.7997,5.7997,5.7997,5.7997,5.7997,5.7997,5.7997,5.7997,5.7997,5.7997,5.7997,5.7997,5.7997,5.7997,5.7997,5.7997,5.7997,5.7997,5.7997,5.7997,5.7997,5.7813,5.7593,5.7593,5.7409,5.7189,5.7189,5.7189,5.7189,5.7189,5.7189,5.7189,5.7189,5.7189,5.7189,5.7189,5.7189,5.7189,5.7189,5.7189,5.7189,5.7189,5.7189,5.7005,5.6473,5.5941,5.5482,5.5225,5.495,5.4583,5.4051,5.4014,5.3794,5.3261,5.3206,5.3206,5.3206,5.3206,5.3206,5.3206,5.3206,5.3206,5.3206,5.3206,5.3206,5.3206,5.3206,5.3206,5.3206,5.3206,5.3206,4.5568,4.5703,4.5771,4.6024,4.665,4.7192,4.7192,4.7394,4.7716,4.8206,4.8308,4.8443,4.8917,4.9001,4.9046,4.9316,4.9521,4.9976,5.0981,5.1223,5.1544,5.2047,5.2289,5.2463,0.0,0.0,0.0,5.4363,5.4932,5.5721,5.6748,5.7079,5.7464,5.7978,5.7997,5.7997,5.7997,5.7997,5.7997,5.7997,5.7997,5.7997,5.7997,5.7997,5.7997,5.7997,5.7997,5.7997,5.7997,5.7997,5.7997,5.7997,5.7997,5.7997,5.7997,5.7997,5.7997,5.7997,5.7997,5.7997,5.7997,5.7997,5.7997,5.7997,5.7997,5.7997,5.7997,5.7997,5.7997,5.7997,5.7997,5.7997,5.7997,5.7997,5.7997,5.7997,5.7997,5.7997,5.7997,5.7997,5.7997,5.7997,5.7997,5.7997,5.7813,5.7317,5.6785,5.6235,5.5666,5.5592,5.539,5.4876,5.4821,5.462,5.4106,5.3794,5.3628,5.3628,5.3371,5.3206,5.3206,5.3206,5.3206,5.3206,5.3206,5.3206,5.3206,5.3206,5.3206,5.3206,5.3206,5.3206,4.5754,4.5788,4.5991,4.6667,4.7411,4.797,4.797,4.8511,4.9001,4.9001,4.9001,4.9001,0.0,0.0,4.9212,4.9821,4.9419,4.9479,5.0823,5.0445,5.05,0.0,0.0,0.0,0.0,0.0,0.0,5.4349,0.0,5.6822,5.6877,5.7593,5.7997,5.7997,5.7997,5.7997,5.7997,5.7997,5.7997,5.7997,5.7997,5.7997,5.7997,5.7997,5.7997,5.7997,5.7997,5.7997,5.7997,5.7997,5.7997,5.7997,5.7997,5.7997,5.7997,5.7997,5.7997,5.7997,5.7997,5.7997,5.7997,5.7997,5.7997,5.7997,5.7997,5.7997,5.7997,5.7997,5.7997,5.7997,5.7997,5.7997,5.7997,5.7997,5.7997,5.7997,5.7997,5.7997,5.7997,5.7997,5.7997,5.7997,5.7997,5.7997,5.7997,5.7997,5.7997,5.7446,5.5904,5.5702,5.5702,5.5666,5.5647,5.5629,5.5592,5.4895,5.4436,5.4399,5.3683,5.3243,5.3206,5.3206,5.3206,5.3206,5.3206,5.3206,5.3206,5.3206,5.3206,5.3206,5.3206,5.3206,4.6363,4.6921,4.7394,4.7581,4.8189,4.8731,4.8731,4.8883,4.9001,4.9001,4.9001,4.9001,4.9001,4.9001,0.0,4.9212,4.9107,0.0,5.0146,5.0129,0.0,5.05,0.0,5.1034,5.0823,5.236,0.0,0.0,5.5971,5.706,5.7666,5.7886,5.7997,5.7997,5.7997,5.7997,5.7997,5.7997,5.7997,5.7997,5.7997,5.7997,5.7997,5.7997,5.7997,5.7997,5.7997,5.7997,5.7997,5.7997,5.7997,5.7997,5.7997,5.7997,5.7997,5.7997,5.7997,5.7997,5.7997,5.7997,5.7997,5.7997,5.7997,5.7997,5.7997,5.7997,5.7997,5.7997,5.7997,5.7997,5.7997,5.7997,5.7997,5.7997,5.7997,5.7997,5.7997,5.7997,5.7997,5.7997,5.7997,5.7997,5.7997,5.7997,5.7997,5.7997,5.7997,5.785,5.7428,5.7391,5.7152,5.6565,5.6492,5.6253,5.5647,5.5409,5.5042,5.4436,5.4216,5.383,5.3225,5.3206,5.3206,5.3206,5.3206,5.3206,5.3206,5.3206,5.3206,5.3206,5.3206,5.3206,4.6684,4.7344,4.8003,4.8308,4.8697,4.9001,4.9001,4.9001,4.9001,4.9001,4.9001,4.9001,4.9001,4.9001,4.9001,0.0,0.0,0.0,4.9521,4.9563,4.9664,0.0,5.009,0.0,5.0445,5.2269,5.3744,0.0,5.5977,5.7204,5.7978,5.7997,5.7997,5.7997,5.7997,5.7997,5.7997,5.7997,5.7997,5.7997,5.7997,5.7997,5.7997,5.7997,5.7997,5.7997,5.7997,5.7997,5.7997,5.7997,5.7997,5.7997,5.7997,5.7997,5.7997,5.7997,5.7997,5.7997,5.7997,5.7997,5.7997,5.7997,5.7997,5.7997,5.7997,5.7997,5.7997,5.7997,5.7997,5.7997,5.7997,5.7997,5.7997,5.7997,5.7997,5.7997,5.7997,5.7997,5.7997,5.7997,5.7997,5.7997,5.7997,5.7997,5.7997,5.7997,5.7997,5.7997,5.7997,5.7997,5.7831,5.7373,5.7336,5.7134,5.6675,5.6326,5.5923,5.5482,5.5115,5.4564,5.3775,5.3739,5.3573,5.3225,5.3206,5.3206,5.3206,5.3206,5.3206,5.3206,5.3206,5.3206,4.6786,4.7411,4.8206,4.8849,4.9001,4.9001,4.9001,4.9001,4.9001,4.9001,4.9001,4.9001,4.9001,4.9001,4.9001,4.9001,0.0,4.9001,4.9001,4.9001,4.9212,4.9821,4.9359,4.9479,5.0716,5.2286,5.3531,5.4381,5.5787,5.7015,5.795,5.7997,5.7997,5.7997,5.7997,5.7997,5.7997,5.7997,5.7997,5.7997,5.7997,5.7997,5.7997,5.7997,5.7997,5.7997,5.7997,5.7997,5.7997,5.7997,5.7997,5.7997,5.7997,5.7997,5.7997,5.7997,5.7997,5.7997,5.7997,5.7997,5.7997,5.7997,5.7997,5.7997,5.7997,5.7997,5.7997,5.7997,5.7997,5.7997,5.7997,5.7997,5.7997,5.7997,5.7997,5.7997,5.7997,5.7997,5.7997,5.7997,5.7997,5.7997,5.7997,5.7997,5.7997,5.7997,5.7997,5.7997,5.7997,5.7997,5.7997,5.7997,5.7997,5.7997,5.7997,5.7373,5.6914,5.6822,5.6143,5.539,5.4583,5.4454,5.4069,5.339,5.3261,5.3206,5.3206,5.3206,5.3206,5.3206,5.3206,5.3206,4.6786,4.7784,4.8849,4.8968,4.9001,4.9001,4.9001,4.9001,4.9001,4.9001,4.9001,4.9001,4.9001,4.9001,4.9001,4.9001,4.9001,4.9001,4.9001,4.9001,4.9063,0.0,4.9046,4.9107,4.9316,5.0724,0.0,0.0,5.4517,5.5893,5.7886,5.7997,5.7997,5.7997,5.7997,5.7997,5.7997,5.7997,5.7997,5.7997,5.7997,5.7997,5.7997,5.7997,5.7997,5.7997,5.7997,5.7997,5.7997,5.7997,5.7997,5.7997,5.7997,5.7997,5.7997,5.7997,5.7997,5.7997,5.7997,5.7997,5.7997,5.7997,5.7997,5.7997,5.7997,5.7997,5.7997,5.7997,5.7997,5.7997,5.7997,5.7997,5.7997,5.7997,5.7997,5.7997,5.7997,5.7997,5.7997,5.7997,5.7997,5.7997,5.7997,5.7997,5.7997,5.7997,5.7997,5.7997,5.7997,5.7997,5.7997,5.7997,5.7997,5.7997,5.7997,5.7868,5.7519,5.684,5.6675,5.6235,5.5427,5.4748,5.4326,5.4197,5.3555,5.3206,5.3206,5.3206,5.3206,5.3206,5.3206,5.3206,4.7276,4.8173,4.9001,4.9001,4.9001,4.9001,4.9001,4.9001,4.9001,4.9001,4.9001,4.9001,4.9001,4.9001,4.9001,4.9001,4.9001,4.9001,4.9001,4.9001,4.9001,4.9001,4.9001,4.9001,4.9001,5.0724,5.2097,5.2866,5.4343,5.5836,5.7351,5.7449,5.7449,5.7449,5.7774,5.7997,5.7997,5.7997,5.7997,5.7997,5.7997,5.7997,5.7997,5.7997,5.7997,5.7997,5.7997,5.7997,5.7997,5.7997,5.7997,5.7997,5.7997,5.7997,5.7997,5.7997,5.7997,5.7997,5.7997,5.7997,5.7997,5.7997,5.7997,5.7997,5.7997,5.7997,5.7997,5.7997,5.7997,5.7997,5.7997,5.7997,5.7997,5.7997,5.7997,5.7997,5.7997,5.7997,5.7997,5.7997,5.7997,5.7997,5.7997,5.7997,5.7997,5.7997,5.7997,5.7997,5.7997,5.7997,5.7997,5.7997,5.7997,5.7997,5.7997,5.7997,5.7831,5.7446,5.7428,5.706,5.6253,5.5849,5.5262,5.4418,5.4014,5.3628,5.3206,5.3206,5.3206,5.3206,5.3206,5.3206,4.7513,4.8325,4.9001,4.9001,4.9001,4.9001,4.9001,4.9001,4.9001,4.9001,4.9001,4.9001,4.9001,4.9001,4.9001,0.0,4.9001,4.9001,4.9001,4.9001,4.9001,4.9001,4.9001,0.0,4.9001,5.0891,0.0,5.2396,5.4285,5.578,5.6616,5.6668,5.6668,5.6668,5.7216,5.7594,5.7774,5.7774,5.7839,5.7997,5.7997,5.7997,5.7997,5.7997,5.7997,5.7997,5.7997,5.7997,5.7997,5.7997,5.7997,5.7997,5.7997,5.7997,5.7997,5.7997,5.7997,5.7997,5.7997,5.7997,5.7997,5.7997,5.7997,5.7997,5.7997,5.7997,5.7997,5.7997,5.7997,5.7997,5.7997,5.7997,5.7997,5.7997,5.7997,5.7997,5.7997,5.7997,5.7997,5.7997,5.7997,5.7997,5.7997,5.7997,5.7997,5.7997,5.7997,5.7997,5.7997,5.7997,5.7997,5.7997,5.7997,5.7997,5.7997,5.7997,5.7997,5.7997,5.7997,5.7721,5.7079,5.6895,5.6216,5.495,5.4583,5.4087,5.3463,5.3298,5.3206,5.3206,5.3206,5.3206,4.687,4.7936,4.9001,4.9001,4.9001,4.9001,4.9001,4.9001,4.9001,4.9001,4.9001,4.9001,4.9001,4.9001,4.9001,0.0,0.0,4.9001,4.9001,4.9001,4.9001,4.9001,0.0,0.0,4.9001,5.0401,5.1612,5.2337,5.3844,5.5042,5.578,5.5836,5.5836,5.5836,5.5893,5.6241,5.7015,5.7015,5.7351,5.7997,5.7997,5.7997,5.7997,5.7997,5.7997,5.7997,5.7997,5.7997,5.7997,5.7997,5.7997,5.7997,5.7997,5.7997,5.7997,5.7997,5.7997,5.7997,5.7997,5.7997,5.7997,5.7997,5.7997,5.7997,5.7997,5.7997,5.7997,5.7997,5.7997,5.7997,5.7997,5.7997,5.7997,5.7997,5.7997,5.7997,5.7997,5.7997,5.7997,5.7997,5.7997,5.7997,5.7997,5.7997,5.7997,5.7997,5.7997,5.7997,5.7997,5.7997,5.7997,5.7997,5.7997,5.7997,5.7997,5.7997,5.7997,5.7997,5.7997,5.796,5.7886,5.7189,5.673,5.6583,5.5152,5.4363,5.4289,5.3573,5.3206,5.3206,5.3206,5.3206,4.7344,4.8223,4.9001,4.9001,4.9001,4.9001,4.9001,4.9001,4.9001,4.9001,4.9001,4.9001,4.9001,4.9001,4.9001,0.0,0.0,0.0,4.9001,4.9001,4.9001,4.9001,4.9001,4.9001,0.0,0.0,5.1719,5.299,5.3604,5.4059,5.4328,5.4835,5.5042,5.5042,5.5495,5.6077,5.6912,5.6912,5.7284,5.7997,5.7997,5.7997,5.7997,5.7997,5.7997,5.7997,5.7997,5.7997,5.7997,5.7997,5.7997,5.7997,5.7997,5.7997,5.7997,5.7997,5.7997,5.7997,5.7997,5.7997,5.7997,5.7997,5.7997,5.7997,5.7997,5.7997,5.7997,5.7997,5.7997,5.7997,5.7997,5.7997,5.7997,5.7997,5.7997,5.7997,5.7997,5.7997,5.7997,5.7997,5.7997,5.7997,5.7997,5.7997,5.7997,5.7997,5.7997,5.7997,5.7997,5.7997,5.7997,5.7997,5.7997,5.7997,5.7997,5.7997,5.7997,5.7997,5.7997,5.7997,5.7997,5.7685,5.7299,5.6822,5.618,5.5372,5.4399,5.4087,5.3683,5.3206,5.3206,5.3206,4.7716,4.8443,4.9001,4.9001,4.9001,4.9001,4.9001,4.9001,4.9001,4.9001,4.9001,4.9001,4.9001,4.9001,4.9001,0.0,0.0,4.9001,4.9001,4.9001,4.9001,4.9001,0.0,4.9001,4.9001,5.0338,5.186,5.3382,5.3501,5.3501,5.3501,5.3994,5.4264,5.4264,5.4774,5.5396,5.6222,5.6438,5.6946,5.7679,5.7886,5.7997,5.7997,5.7997,5.7997,5.7997,5.7997,5.7997,5.7997,5.7997,5.7997,5.7997,5.7997,5.7997,5.7997,5.7997,5.7997,5.7997,5.7997,5.7997,5.7997,5.7997,5.7997,5.7997,5.7997,5.7997,5.7997,5.7997,5.7997,5.7997,5.7997,5.7997,5.7997,5.7997,5.7997,5.7997,5.7997,5.7997,5.7997,5.7997,5.7997,5.7997,5.7997,5.7997,5.7997,5.7997,5.7997,5.7997,5.7997,5.7997,5.7997,5.7997,5.7997,5.7997,5.7997,5.7997,5.7997,5.7997,5.7997,5.7997,5.7997,5.7997,5.7721,5.7171,5.6932,5.6253,5.5115,5.4638,5.4106,5.3555,5.3316,5.3206,4.7716,4.8443,4.9001,4.9001,4.9001,4.9001,4.9001,4.9001,4.9001,4.9001,4.9001,4.9001,4.9001,4.9001,4.9001,0.0,0.0,0.0,4.9001,4.9001,4.9001,4.9001,4.9001,4.9001,4.9001,5.0338,5.186,5.3382,5.3501,5.3501,5.3501,5.3501,5.3501,5.3501,5.3501,5.3881,5.4589,5.5379,5.6132,5.6912,5.766,5.7997,5.7997,5.7997,5.7997,5.7997,5.7997,5.7997,5.7997,5.7997,5.7997,5.7997,5.7997,5.7997,5.7997,5.7997,5.7997,5.7997,5.7997,5.7997,5.7997,5.7997,5.7997,5.7997,5.7997,5.7997,5.7997,5.7997,5.7997,5.7997,5.7997,5.7997,5.7997,5.7997,5.7997,5.7997,5.7997,5.7997,5.7997,5.7997,5.7997,5.7997,5.7997,5.7997,5.7997,5.7997,5.7997,5.7997,5.7997,5.7997,5.7997,5.7997,5.7997,5.7997,5.7997,5.7997,5.7997,5.7997,5.7997,5.7997,5.7997,5.7997,5.7997,5.7997,5.7207,5.6804,5.6785,5.5188,5.4399,5.4363,5.3573,5.3206,4.7716,4.8443,4.9001,4.9001,4.9001,4.9001,4.9001,4.9001,4.9001,4.9001,4.9001,4.9001,4.9001,4.9001,4.9001,4.9001,0.0,0.0,4.9001,4.9001,4.9001,4.9001,4.9001,4.9204,4.9695,5.0642,5.1623,5.2604,5.3196,5.3501,5.3501,5.3501,5.3501,5.3501,5.3501,5.4124,5.532,5.5592,5.6349,5.766,5.7886,5.7997,5.7997,5.7997,5.7997,5.7997,5.7997,5.7997,5.7997,5.7997,5.7997,5.7997,5.7997,5.7997,5.7997,5.7997,5.7997,5.7997,5.7997,5.7997,5.7997,5.7997,5.7997,5.7997,5.7997,5.7997,5.7997,5.7997,5.7997,5.7997,5.7997,5.7997,5.7997,5.7997,5.7997,5.7997,5.7997,5.7997,5.7997,5.7997,5.7997,5.7997,5.7997,5.7997,5.7997,5.7997,5.7997,5.7997,5.7997,5.7997,5.7997,5.7997,5.7997,5.7997,5.7997,5.7997,5.7997,5.7997,5.7997,5.7997,5.7997,5.7997,5.7997,5.7997,5.7758,5.7354,5.6804,5.5739,5.4638,5.3573,5.3335,5.3206,4.7716,4.8443,4.9001,4.9001,4.9001,4.9001,4.9001,4.9001,4.9001,4.9001,4.9001,4.9001,4.9001,4.9001,4.9001,4.9001,4.9001,4.9001,4.9001,4.9001,4.9001,4.9001,4.9001,4.9289,5.0016,5.0777,5.1522,5.2249,5.3044,5.3501,5.3501,5.3501,5.3501,5.3501,5.3501,5.3946,5.4896,5.5437,5.6169,5.713,5.7708,5.7997,5.7997,5.7997,5.7997,5.7997,5.7997,5.7997,0.0,5.7997,5.7997,5.7997,5.7997,5.7997,5.7997,5.7997,5.7997,5.7997,5.7997,5.7997,5.7997,5.7997,5.7997,5.7997,5.7997,5.7997,5.7997,5.7997,5.7997,5.7997,5.7997,5.7997,5.7997,5.7997,5.7997,5.7997,5.7997,5.7997,5.7997,5.7997,5.7997,5.7997,5.7997,5.7997,5.7997,5.7997,5.7997,5.7997,5.7997,5.7774,5.7565,5.7565,5.7315,5.7266,5.7565,5.7839,5.7997,5.7997,5.7997,5.7997,5.7997,5.7997,5.7997,5.7997,5.7997,5.7758,5.7262,5.6124,5.4932,5.3665,5.3353,5.3206,0.0,4.8409,4.9001,4.9001,4.9001,4.9001,4.9001,4.9001,0.0,4.9001,4.9001,4.9001,4.9001,4.9001,4.9001,4.9001,4.9001,4.9001,4.9001,4.9001,4.9001,4.9001,4.9001,4.9272,4.9949,5.0744,5.1488,5.2181,5.3027,5.3501,5.3501,5.3501,5.3501,5.3501,5.3501,5.3501,5.3551,5.4999,5.5706,5.5819,5.7315,5.7997,5.7997,5.7997,5.7997,5.7997,5.7997,5.7997,5.7997,5.7997,5.7997,5.7997,5.7997,5.7997,5.7997,5.7997,5.7997,5.7997,5.7997,5.7997,5.7997,5.7997,5.7997,5.7997,5.7997,5.7997,5.7997,5.7997,5.7997,5.7997,5.7997,5.7997,5.7997,5.7997,5.7997,5.7997,5.7997,5.7997,5.7997,5.7997,5.7997,5.7997,5.7997,5.7997,5.7997,5.7997,5.795,5.7932,5.7932,5.7333,5.6861,5.6791,5.6241,5.6114,5.6843,5.7516,5.7932,5.7997,5.7997,5.7997,5.7997,5.7997,5.7997,5.7997,5.7997,5.796,5.7905,5.64,5.5244,5.4381,5.3628,5.3261,4.7005,0.0,4.9001,4.9001,4.9001,4.9001,0.0,0.0,0.0,0.0,0.0,4.9001,4.9001,4.9001,4.9001,4.9001,4.9001,4.9001,4.9001,4.9001,4.9001,4.9001,4.9001,4.9069,4.9238,5.0456,5.1285,5.1454,5.2739,5.3501,5.3501,5.3501,5.3501,5.3501,5.3501,5.3783,5.4328,5.5262,5.6004,5.6616,5.7546,5.7997,5.7997,5.7997,5.7997,5.7997,5.7997,5.7997,5.7997,5.7997,5.7997,5.7997,5.7997,5.7997,5.7997,5.7997,5.7997,5.7997,5.7997,5.7997,5.7997,5.7997,5.7997,5.7997,5.7997,5.7997,5.7997,5.7997,5.7997,5.7997,5.7997,5.7997,5.7997,5.7997,5.7997,5.7997,5.7997,5.7997,5.7997,5.7997,5.7997,5.7997,5.7997,5.7997,5.7997,5.7997,5.7516,5.7184,5.7184,5.7015,5.6668,5.6077,5.6858,5.7333,5.6912,5.7065,5.7401,5.7932,5.7997,5.7997,5.7997,5.7997,5.7997,5.7997,5.7997,5.7703,5.7079,5.6712,5.5794,5.4399,5.4216,5.3794,4.6701,4.7885,4.9001,4.9001,4.9001,4.9001,4.9001,0.0,0.0,0.0,0.0,4.9001,4.9001,4.9001,4.9001,4.9001,4.9001,4.9001,4.9001,4.9001,4.9001,4.9001,4.9001,4.9001,4.9001,5.0033,5.0845,5.1183,5.23,5.3112,5.3484,5.3501,5.3501,5.3501,5.3501,5.3668,5.4106,5.5161,5.5893,5.6367,5.748,5.7997,5.7997,5.7997,5.7997,5.7997,5.7997,5.7997,5.7997,5.7997,5.7997,5.7997,5.7997,5.7997,5.7997,5.7997,5.7997,5.7997,5.7997,5.7997,5.7997,5.7997,5.7997,5.7997,5.7997,5.7997,5.7997,5.7997,5.7997,5.7997,5.7997,5.7997,5.7997,5.7997,5.7997,5.7997,5.7997,5.7997,5.7997,5.7997,5.7997,5.7997,5.7997,5.7997,5.7997,5.7997,5.7351,5.6912,5.6912,5.6277,5.5685,5.5262,5.5948,5.6421,5.6367,5.6668,5.7234,5.795,5.7997,5.7997,5.7997,5.7997,5.7997,5.7997,5.7997,5.7795,5.7354,5.6987,5.6363,5.5482,5.4748,5.4179,4.6599,4.7784,4.8866,4.8968,4.9001,4.9001,4.9001,0.0,0.0,0.0,0.0,0.0,4.9001,4.9001,0.0,0.0,4.9001,4.9001,4.9001,4.9001,4.9001,4.9001,4.9001,4.9001,4.9001,4.9661,5.0355,5.0997,5.1826,5.2604,5.3281,5.3433,5.3501,5.3501,5.3501,5.3501,5.3501,5.4835,5.5535,5.5535,5.7098,5.7839,5.7839,5.795,5.7997,5.7997,5.7997,5.7997,5.7997,5.7997,5.7997,5.7997,5.7997,5.7997,5.7997,5.7997,5.7997,5.7997,5.7997,5.7997,5.7997,5.7997,5.7997,5.7997,5.7997,5.7997,5.7997,5.7997,5.7997,5.7997,5.7997,5.7997,5.7997,5.7997,5.7997,5.7997,5.7997,5.7997,5.7997,5.7997,5.7997,5.7997,5.7997,5.7997,5.795,5.7839,5.7184,5.6686,5.6563,5.5396,5.4589,5.4589,5.4818,5.522,5.5836,5.6598,5.7333,5.795,5.7997,5.7997,5.7997,5.7997,5.7997,5.7997,5.7997,5.7997,5.7997,5.7317,5.6932,5.6785,5.5409,5.4693,4.6599,4.7428,4.824,4.8849,4.9001,4.9001,4.9001,0.0,0.0,0.0,0.0,0.0,0.0,4.9001,4.9001,0.0,4.9001,4.9001,4.9001,4.9001,4.9001,4.9001,4.9001,4.9001,4.9001,4.9661,5.0135,5.0253,5.1522,5.235,5.2486,5.3129,5.3501,5.3501,5.3501,5.3501,5.3501,5.431,5.4757,5.4818,5.6313,5.7083,5.7083,5.7726,5.7997,5.7997,5.7997,5.7997,5.7997,5.7997,5.7997,5.7997,5.7997,5.7997,5.7997,5.7997,5.7997,5.7997,5.7997,5.7997,5.7997,5.7997,5.7997,5.7997,5.7997,5.7997,5.7997,5.7997,5.7997,5.7997,5.7997,5.7997,5.7997,5.7997,5.7997,5.7997,5.7997,5.7997,5.7997,5.7997,5.7997,5.7997,5.7997,5.7997,5.7774,5.7184,5.6421,5.5667,5.5059,5.4774,5.4589,5.4589,5.5759,5.6563,5.6739,5.7382,5.7886,5.7997,5.7997,5.7997,5.7997,5.7997,5.7997,5.7997,5.7997,5.7997,5.7997,5.7886,5.7464,5.6804,5.6547,5.6069,4.6481,4.7056,4.7581,4.8731,4.9001,4.9001,4.9001,4.9001,0.0,0.0,0.0,0.0,0.0,0.0,4.9001,4.9001,4.9001,4.9001,4.9001,4.9001,4.9001,4.9001,4.9001,4.9001,4.9001,4.9306,4.9661,5.005,5.0727,5.1285,5.1691,5.2435,5.2858,5.2858,5.3281,5.3501,5.3501,5.3832,5.4218,5.4589,5.5741,5.6259,5.6259,5.7047,5.7401,5.7449,5.7839,5.7997,5.7997,5.7997,5.7997,5.7997,5.7997,5.7997,5.7997,5.7997,5.7997,5.7997,5.7997,5.7997,5.7997,5.7997,5.7997,5.7997,5.7997,5.7997,5.7997,5.7997,5.7997,5.7997,5.7997,5.7997,5.7997,5.7997,5.7997,5.7997,5.7997,5.7997,5.7997,5.7997,5.7997,5.7997,5.7997,5.7997,5.7726,5.7015,5.6616,5.591,5.4757,5.4589,5.4437,5.4042,5.5355,5.6259,5.6259,5.7315,5.7997,5.7997,5.7997,5.7997,5.7997,5.7997,5.7997,5.7997,5.7997,5.7997,5.7997,5.7997,5.7813,5.7446,5.7005,5.6602,4.638,4.6786,4.7141,4.8629,4.9001,4.9001,4.9001,4.9001,0.0,0.0,0.0,0.0,0.0,4.9001,4.9001,4.9001,4.9001,4.9001,4.9001,4.9001,4.9001,4.9001,4.9001,4.9001,4.9001,4.9001,4.9238,4.9796,4.9999,5.0338,5.093,5.164,5.2046,5.2046,5.2655,5.2976,5.2976,5.2976,5.3426,5.4374,5.5102,5.5535,5.5724,5.6545,5.6964,5.7184,5.7774,5.7997,5.7997,5.7997,5.7997,5.7997,5.7997,5.7997,5.7997,5.7997,5.7997,5.7997,5.7997,5.7997,5.7997,5.7997,5.7997,5.7997,5.7997,5.7997,5.7997,5.7997,5.7997,5.7997,5.7997,5.7997,5.7997,5.7997,5.7997,5.7997,5.7997,5.7997,5.7997,5.7997,5.7997,5.7997,5.7997,5.7997,5.7679,5.6773,5.6616,5.6095,5.4544,5.431,5.4264,5.4059,5.5059,5.5836,5.6223,5.7148,5.7839,5.7997,5.7839,5.7726,5.7726,5.7886,5.7997,5.7997,5.7997,5.7997,5.7997,5.7997,5.7997,5.7997,5.7373,5.7079,4.638,4.6786,4.7141,4.8629,4.9001,0.0,4.9001,4.9001,0.0,4.9001,0.0,0.0,0.0,4.9001,4.9001,4.9001,4.9001,4.9001,4.9001,4.9001,4.9001,4.9001,4.9001,4.9001,4.9001,4.9001,4.9018,4.9086,4.9712,5.0101,5.0168,5.0879,5.1302,5.1302,5.1352,5.1386,5.1386,5.1386,5.2097,5.3618,5.4328,5.5042,5.5724,5.6545,5.7284,5.7932,5.7997,5.7997,5.7997,5.7997,5.7997,5.7997,5.7997,5.7997,5.7997,5.7997,5.7997,5.7997,5.7997,5.7997,5.7997,5.7997,5.7997,5.7997,5.7997,5.7997,5.7997,5.7997,5.7997,5.7997,5.7997,5.7997,5.7997,5.7997,5.7997,5.7997,5.7997,5.7997,5.7997,5.7997,5.7997,5.7997,5.7997,5.7997,5.748,5.6004,5.578,5.5279,5.3783,5.3551,5.4059,5.5379,5.5649,5.6277,5.7708,5.7284,5.7284,5.795,5.7351,5.6964,5.6964,5.7631,5.7997,5.7997,5.7997,5.7997,5.7997,5.7997,5.7997,5.7997,5.7941,5.7905,4.638,4.6786,4.7141,4.8629,4.9001,0.0,0.0,4.9001,4.9001,4.9001,4.9001,0.0,0.0,0.0,4.9001,4.9001,4.9001,4.9001,4.9001,4.9001,4.9001,4.9001,4.9001,4.9001,4.9001,4.9001,4.9001,4.9001,4.9255,4.9424,4.9424,5.0118,5.0524,5.0524,5.098,5.1217,5.1217,5.1217,5.1505,5.208,5.2337,5.2898,5.3644,5.4896,5.5843,5.6625,5.7554,5.7997,5.7997,5.7997,5.7997,5.7997,5.7997,5.7997,5.7997,5.7997,5.7997,5.7997,5.7997,5.7997,5.7997,5.7997,5.7997,5.7997,5.7997,5.7997,5.7997,5.7997,5.7997,5.7997,5.7997,5.7997,5.7997,5.7997,5.7997,5.7997,5.7997,5.7997,5.7997,5.7997,5.7997,5.7997,5.7997,5.7613,5.7116,5.6545,5.6438,5.5928,5.4391,5.4606,5.4713,5.4391,5.4774,5.5437,5.6456,5.6295,5.6295,5.6562,5.6773,5.7134,5.7565,5.7839,5.7997,5.7997,5.7997,5.7997,5.7997,5.7997,5.7997,5.7997,5.7997,5.7997,4.6447,4.6972,4.7445,0.0,0.0,0.0,4.9001,4.9001,4.9001,4.9001,4.9001,4.9001,4.9001,0.0,0.0,4.9001,4.9001,4.9001,4.9001,4.9001,4.9001,4.9001,4.9001,4.9001,4.9001,4.9001,4.9001,4.9001,4.9001,4.9001,4.9001,4.9475,4.9746,4.9746,5.0253,5.0524,5.0524,5.0524,5.0524,5.0524,5.0725,5.1468,5.2672,5.3954,5.4984,5.5741,5.6767,5.7244,5.7244,5.7244,5.7244,5.7244,5.7244,5.7244,5.7244,5.7244,5.7244,5.7244,5.7244,5.7409,5.7611,5.7611,5.7795,5.7997,5.7997,5.7997,5.7997,5.7997,5.7997,5.7997,5.7997,5.7997,5.7997,5.7997,5.7997,5.7997,5.7997,5.7997,5.7997,5.7997,5.7997,5.795,5.7679,5.7234,5.6739,5.6277,5.615,5.5702,5.4437,5.4713,5.473,5.3946,5.4482,5.5144,5.5649,5.5706,5.5836,5.6059,5.6616,5.7134,5.7613,5.7886,5.7997,5.7997,5.7997,5.7997,5.7997,5.7997,5.7997,5.7997,5.7997,5.7997,4.6599,4.7344,4.8105,0.0,0.0,0.0,4.9001,4.9001,4.9001,4.9001,4.9001,4.9001,4.9001,4.9001,0.0,4.9001,4.9001,4.9001,4.9001,4.9001,4.9001,4.9001,4.9001,4.9001,4.9001,4.9001,4.9001,4.9001,4.9001,4.9001,4.9001,4.9001,4.9001,4.9001,4.9001,4.9001,4.9001,4.9001,4.9001,4.9001,4.9664,5.1193,5.3369,5.4125,5.4905,5.5574,5.5592,5.5592,5.5592,5.5592,5.5592,5.5592,5.5592,5.5592,5.5592,5.5592,5.5592,5.5592,5.5592,5.6124,5.6804,5.6804,5.7336,5.7997,5.7997,5.7997,5.7997,5.7997,5.7997,5.7997,5.7997,5.7997,5.7997,5.7997,5.7997,5.7997,5.7997,5.7997,5.7997,5.7997,5.7997,5.7774,5.7015,5.6912,5.6385,5.4818,5.4589,5.4328,5.3618,5.3501,5.3766,5.4544,5.5262,5.5649,5.5706,5.5706,5.6059,5.6861,5.6912,5.6912,5.6912,5.7613,5.7997,5.7997,5.7997,5.7997,5.7997,5.7997,5.7997,5.7997,5.7997,5.7997,4.6599,4.7344,0.0,4.8832,0.0,0.0,0.0,4.9001,0.0,0.0,4.9001,4.9001,4.9001,4.9001,0.0,4.9001,4.9001,4.9001,4.9001,4.9001,4.9001,4.9001,4.9001,4.9001,4.9001,4.9001,4.9001,4.9001,4.9001,4.9001,4.9001,4.9001,4.9001,4.9001,4.9001,4.9001,4.9001,4.9001,4.9273,4.9722,5.0462,5.1123,5.1847,5.3082,5.4034,5.4785,5.5335,5.5592,5.5592,5.5592,5.5592,5.5592,5.5592,5.5592,5.5592,5.5592,5.5592,5.5592,5.5592,5.5757,5.5959,5.5959,5.6492,5.7171,5.7171,5.7556,5.7997,5.7997,5.7997,5.7997,5.7997,5.7997,5.7997,5.7997,5.7997,5.7997,5.7997,5.7997,5.7997,5.7997,5.7565,5.7184,5.6964,5.5984,5.5279,5.5379,5.4922,5.4544,5.4328,5.3832,5.3551,5.3766,5.3994,5.4391,5.4878,5.5379,5.6059,5.6861,5.7401,5.766,5.766,5.7886,5.7997,5.7997,5.7997,5.7997,5.7997,5.7997,5.7997,5.7997,5.7997,5.7997,4.6667,4.7547,0.0,4.89,4.9001,4.9001,4.9001,0.0,0.0,0.0,4.9001,4.9001,4.9001,4.9001,0.0,4.9001,4.9001,4.9001,4.9001,4.9001,4.9001,4.9001,4.9001,4.9001,4.9001,4.9001,4.9001,4.9001,4.9001,4.9001,4.9001,4.9001,4.9001,4.9001,4.9001,4.9001,4.9001,4.9001,4.9376,5.0033,5.077,5.1241,5.1512,5.2712,5.348,5.3959,5.4436,5.4638,5.4638,5.4638,5.4638,5.4638,5.4638,5.4638,5.4638,5.4638,5.4638,5.4638,5.4638,5.4858,5.5115,5.5115,5.5666,5.6381,5.6712,5.7152,5.7593,5.7905,5.7997,5.7997,5.7997,5.7997,5.7997,5.7997,5.7997,5.7997,5.7997,5.7997,5.7886,5.7613,5.7184,5.6686,5.6095,5.5238,5.4651,5.4835,5.4437,5.4154,5.4154,5.3783,5.3501,5.3501,5.3783,5.4106,5.4527,5.557,5.6367,5.6861,5.7613,5.7997,5.7997,5.7997,5.7997,5.7997,5.7997,5.7997,5.7997,5.7997,5.7997,5.7997,5.7997,5.7997,4.687,4.7936,4.9001,4.9001,4.9001,0.0,4.9001,4.9001,4.9001,4.9001,0.0,4.9001,4.9001,4.9001,4.9001,4.9001,4.9001,4.9001,4.9001,4.9001,4.9001,4.9001,4.9001,4.9001,4.9001,4.9001,4.9001,4.9001,4.9001,4.9001,4.9001,4.9001,4.9001,4.9001,4.9001,4.9001,4.9001,4.9063,4.9419,5.0129,5.0823,5.1562,5.2206,5.2875,5.3206,5.3206,5.3206,5.3206,5.3206,5.3206,5.3206,5.3206,5.3206,5.3206,5.3206,5.3206,5.3206,5.3206,5.3206,5.3683,5.4289,5.4289,5.4821,5.5629,5.6363,5.6693,5.695,5.7685,5.7941,5.7997,5.7997,5.7997,5.7997,5.7997,5.795,5.7886,5.7886,5.7821,5.7594,5.6894,5.6739,5.6277,5.4818,5.4527,5.4264,5.3618,5.3501,5.3501,5.3501,5.3568,5.3618,5.3618,5.4264,5.4695,5.4818,5.6095,5.6912,5.7015,5.7613,5.7997,5.7997,5.7997,5.7997,5.7997,5.7997,5.7997,5.7997,5.7997,5.7997,5.7997,5.7997,5.7997,4.7513,4.8325,0.0,4.9001,4.9001,4.9001,4.9001,4.9001,4.9001,4.9001,4.9001,4.9001,4.9001,4.9001,4.9001,4.9001,4.9001,4.9001,4.9001,4.9001,4.9001,4.9001,4.9001,4.9001,4.9001,4.9001,4.9001,4.9001,4.9001,4.9001,4.9001,4.9001,4.9001,4.9001,4.9001,4.9001,4.9001,4.9504,5.0146,5.0876,5.1544,5.2271,5.298,5.3103,5.3206,5.3206,5.3206,5.3206,5.3206,5.3206,5.3206,5.3206,5.3206,5.3206,5.3206,5.3206,5.3206,5.3206,5.3206,5.3316,5.3463,5.3463,5.4014,5.4693,5.4858,5.5794,5.684,5.7024,5.7519,5.7997,5.7997,5.7997,5.7997,5.7997,5.7565,5.7134,5.7134,5.665,5.6169,5.6004,5.5495,5.4999,5.4651,5.4106,5.3668,5.3501,5.3501,5.3501,5.3501,5.3994,5.4374,5.4374,5.5042,5.5724,5.6331,5.6686,5.7134,5.7726,5.7886,5.7997,5.7997,5.7997,5.7997,5.7997,5.7997,5.7997,5.7997,5.7997,5.7997,5.7997,5.7997,5.7997,4.7817,4.8443,4.9001,4.9001,0.0,4.9001,4.9001,4.9001,4.9001,4.9001,4.9001,4.9001,4.9001,4.9001,4.9001,4.9001,4.9001,4.9001,4.9001,4.9001,4.9001,4.9001,4.9001,4.9001,4.9001,4.9001,4.9001,4.9001,4.9001,4.9001,4.9001,4.9001,4.9001,4.9001,4.9299,4.9299,4.9001,5.005,5.0716,5.1086,5.1808,5.249,5.3206,5.3206,5.3206,5.3206,5.3206,5.3206,5.3206,5.3206,5.3206,5.3206,5.3206,5.3206,5.3206,5.3206,5.3206,5.3206,5.3206,5.3206,5.3206,5.3206,5.3482,5.3904,5.4289,5.4987,5.5739,5.6124,5.6804,5.7428,5.7428,5.7703,5.7997,5.7997,5.7726,5.7351,5.6964,5.6545,5.6077,5.532,5.4878,5.4482,5.4154,5.3783,5.3501,5.3501,5.3501,5.3618,5.3994,5.4374,5.4757,5.5102,5.5798,5.6421,5.6843,5.7234,5.7613,5.7997,5.7997,5.7997,5.7997,5.7997,5.7997,5.7997,5.7997,5.7997,5.7997,5.7997,5.7997,5.7997,5.7997,5.7997,4.8071,4.8545,4.9001,4.9001,4.9001,0.0,4.9001,4.9001,4.9001,4.9001,4.9001,4.9001,4.9001,4.9001,4.9001,4.9001,4.9001,4.9001,4.9001,4.9001,4.9001,4.9001,4.9001,4.9001,4.9001,4.9001,4.9001,4.9001,4.9001,4.9001,4.9001,4.9001,4.9001,4.9001,4.9521,4.9563,4.9001,5.0258,5.0929,5.0929,5.1692,5.2445,5.2999,5.3164,5.3206,5.3206,5.3206,5.3206,5.3206,5.3206,5.3206,5.3206,5.3206,5.3206,5.3206,5.3206,5.3206,5.3206,5.3206,5.3206,5.3206,5.3206,5.3206,5.3335,5.3995,5.4289,5.4546,5.5207,5.5959,5.662,5.6767,5.7299,5.7831,5.796,5.7997,5.7774,5.6894,5.6616,5.6095,5.4651,5.4437,5.4218,5.3618,5.3501,5.3551,5.3668,5.3668,5.3946,5.4713,5.4939,5.522,5.5836,5.6598,5.7083,5.7083,5.766,5.7997,5.7997,5.7997,5.7997,5.7997,5.7997,5.7997,5.7997,5.7997,5.7997,5.7997,5.7997,5.7997,5.7997,5.7997,5.7923,4.8697,4.8934,4.9001,4.9001,4.9001,4.9001,0.0,0.0,4.9001,4.9001,4.9001,4.9001,4.9001,4.9001,4.9001,4.9001,4.9001,4.9001,4.9001,4.9001,4.9001,4.9001,4.9001,4.9001,4.9001,4.9001,4.9001,4.9001,4.9001,4.9001,4.9001,4.9001,4.9001,4.9001,4.9107,4.9107,4.9001,4.978,5.0129,5.0185,5.1476,5.2159,5.2271,5.2893,5.3206,5.3206,5.3206,5.3206,5.3206,5.3206,5.3206,5.3206,5.3206,5.3206,5.3206,5.3206,5.3206,5.3206,5.3206,5.3206,5.3206,5.3206,5.3206,5.3225,5.3335,5.3849,5.4418,5.4528,5.5133,5.5904,5.662,5.6895,5.7152,5.7831,5.7997,5.7594,5.6169,5.5379,5.4668,5.3832,5.3685,5.3618,5.3501,5.3501,5.3734,5.4374,5.4419,5.4713,5.5437,5.615,5.6616,5.6739,5.7401,5.7839,5.7839,5.7932,5.7997,5.7997,5.7997,5.7997,5.7997,5.7997,5.7997,5.7997,5.7997,5.7997,5.7997,5.7997,5.7997,5.7997,5.7997,5.7629,4.8917,4.9001,4.9001,4.9001,4.9001,4.9001,4.9001,4.9001,4.9001,4.9001,4.9001,4.9001,4.9001,4.9001,4.9001,4.9001,4.9001,4.9001,4.9001,4.9001,4.9001,4.9001,4.9001,4.9001,4.9001,4.9001,4.9001,4.9001,4.9001,4.9001,4.9001,4.9001,4.9001,4.9001,4.9359,4.9359,4.9001,5.009,5.0805,5.1172,5.179,5.2335,5.2725,5.3042,5.3206,5.3206,5.3206,5.3206,5.3206,5.3206,5.3206,5.3206,5.3206,5.3206,5.3206,5.3206,5.3206,5.3206,5.3206,5.3206,5.3206,5.3206,5.3206,5.3206,5.3206,5.3463,5.3739,5.3739,5.4308,5.5005,5.5372,5.5794,5.6326,5.7134,5.7336,5.7178,5.6508,5.578,5.4878,5.3717,5.3501,5.3501,5.3501,5.3832,5.4218,5.4527,5.4922,5.5495,5.6259,5.6668,5.7065,5.7449,5.7839,5.7997,5.7997,5.7997,5.7997,5.7997,5.7997,5.7997,5.7997,5.7997,5.7997,5.7997,5.7997,5.7997,5.7997,5.7997,5.7776,5.7336,5.7336,5.6895,4.9001,4.9001,4.9001,4.9001,4.9001,4.9001,4.9001,4.9001,4.9001,4.9001,4.9001,4.9001,4.9001,4.9001,4.9001,4.9001,4.9001,4.9001,4.9001,4.9001,4.9001,4.9001,4.9001,4.9001,4.9001,4.9001,4.9001,4.9001,4.9001,4.9001,4.9001,4.9001,4.9001,4.9001,4.9462,4.9521,4.9001,5.022,5.1086,5.1576,5.1952,5.2381,5.2937,5.3103,5.3206,5.3206,5.3206,5.3206,5.3206,5.3206,5.3206,5.3206,5.3206,5.3206,5.3206,5.3206,5.3206,5.3206,5.3206,5.3206,5.3206,5.3206,5.3206,5.3206,5.3206,5.3206,5.3206,5.3206,5.3628,5.4142,5.4344,5.484,5.55,5.6308,5.651,5.6566,5.6866,5.6259,5.5379,5.4281,5.4059,5.4059,5.4059,5.4499,5.4939,5.5161,5.5667,5.6295,5.7065,5.7184,5.7401,5.7932,5.7997,5.7997,5.7997,5.7997,5.7997,5.7997,5.7997,5.7997,5.7997,5.7997,5.7905,5.7703,5.7703,5.7703,5.7703,5.7703,5.7281,5.651,5.651,5.6051,4.9001,4.9001,4.9001,4.9001,4.9001,4.9001,4.9001,4.9001,4.9001,4.9001,4.9001,4.9001,4.9001,4.9001,4.9001,4.9001,4.9001,4.9001,4.9001,4.9001,4.9001,4.9001,4.9001,4.9001,4.9001,4.9001,4.9001,4.9001,4.9001,4.9001,4.9001,4.9001,4.9001,4.9001,4.9063,4.9063,4.9001,4.9774,5.0124,5.0129,5.1476,5.2112,5.2159,5.2875,5.3206,5.3206,5.3206,5.3206,5.3206,5.3206,5.3206,5.3206,5.3206,5.3206,5.3206,5.3206,5.3206,5.3206,5.3206,5.3206,5.3206,5.3206,5.3206,5.3206,5.3206,5.3206,5.3206,5.3206,5.3243,5.3445,5.4197,5.4436,5.4675,5.5464,5.5647,5.5871,5.674,5.6259,5.5649,5.5592,5.561,5.561,5.561,5.5592,5.5893,5.6686,5.6791,5.7134,5.7839,5.7932,5.795,5.7997,5.7997,5.7997,5.7997,5.7997,5.7997,5.7997,5.7997,5.7997,5.7997,5.7997,5.7648,5.6895,5.6877,5.6877,5.6877,5.6877,5.6455,5.5647,5.5647,5.5225,4.9001,4.9001,4.9001,4.9001,4.9001,4.9001,4.9001,4.9001,4.9001,4.9001,4.9001,4.9001,4.9001,4.9001,4.9001,4.9001,4.9001,4.9001,4.9001,4.9001,4.9001,4.9001,4.9001,4.9001,4.9001,4.9001,4.9001,4.9001,4.9001,4.9001,4.9001,4.9001,4.9212,4.9622,4.9212,4.9212,4.9622,4.9879,5.0462,5.1325,5.1856,5.2335,5.2813,5.3103,5.3206,5.3206,5.3206,5.3206,5.3206,5.3206,5.3206,5.3206,5.3206,5.3206,5.3206,5.3206,5.3206,5.3206,5.3206,5.3206,5.3206,5.3206,5.3206,5.3206,5.3206,5.3206,5.3206,5.3206,5.3206,5.328,5.3573,5.3628,5.383,5.4638,5.5207,5.5695,5.6017,5.5861,5.5706,5.5706,5.5706,5.5706,5.5706,5.6132,5.6545,5.6861,5.7284,5.7726,5.795,5.7997,5.7997,5.7997,5.7997,5.7997,5.7997,5.7997,5.7997,5.7997,5.7997,5.7776,5.7262,5.7226,5.6859,5.6051,5.6033,5.6033,5.6033,5.6033,5.5611,5.4821,5.4821,5.4399,4.9001,0.0,0.0,4.9001,4.9001,4.9001,4.9001,4.9001,4.9001,4.9001,4.9001,4.9001,4.9001,4.9001,4.9001,4.9001,4.9001,4.9001,4.9001,4.9001,4.9001,4.9001,4.9001,4.9001,4.9001,4.9001,4.9001,4.9001,4.9212,4.9376,4.9376,4.958,4.9879,5.0352,4.9936,4.9936,5.0335,5.0608,5.1172,5.2094,5.2335,5.2725,5.3206,5.3206,5.3206,5.3206,5.3206,5.3206,5.3206,5.3206,5.3206,5.3206,5.3206,5.3206,5.3206,5.3206,5.3206,5.3206,5.3206,5.3206,5.3206,5.3206,5.3206,5.3206,5.3206,5.3206,5.3206,5.3206,5.3206,5.3206,5.3206,5.3206,5.3335,5.3867,5.4601,5.5188,5.5188,5.5456,5.5739,5.6008,5.6062,5.6151,5.642,5.6927,5.7284,5.7284,5.7679,5.7997,5.7997,5.7997,5.7997,5.7997,5.7997,5.7997,5.7997,5.7997,5.7886,5.7611,5.7593,5.7244,5.6436,5.64,5.6014,5.5207,5.5188,5.506,5.4803,5.506,5.4785,5.4014,5.4014,5.372,0.0,0.0,0.0,4.9001,4.9001,4.9001,4.9001,4.9001,4.9001,4.9001,4.9001,4.9001,4.9001,4.9001,4.9001,4.9001,4.9001,4.9001,4.9001,4.9001,4.9001,4.9001,4.9001,4.9001,4.9001,4.9001,4.9001,4.9001,4.9622,4.9976,4.9976,5.0662,5.1034,5.1034,5.1034,5.1086,5.1086,5.1741,5.2065,5.2112,5.2831,5.3206,5.3206,5.3206,5.3206,5.3206,5.3206,5.3206,5.3206,5.3206,5.3206,5.3206,5.3206,5.3206,5.3206,5.3206,5.3206,5.3206,5.3206,5.3206,5.3206,5.3206,5.3206,5.3206,5.3206,5.3206,5.3206,5.3206,5.3206,5.3206,5.3206,5.3206,5.3206,5.3206,5.3812,5.4363,5.4363,5.4968,5.5757,5.6602,5.6767,5.7024,5.7795,5.7923,5.7923,5.7923,5.7923,5.7923,5.7923,5.7923,5.7923,5.7923,5.7923,5.7923,5.7923,5.7923,5.7593,5.6822,5.6767,5.64,5.5592,5.5556,5.5188,5.4381,5.4363,5.3977,5.3206,5.3977,5.3959,5.3206,5.3206,5.3206,4.9001,0.0,0.0,0.0,0.0,0.0,4.9001,4.9001,4.9001,4.9001,4.9001,4.9001,4.9001,4.9001,4.9001,4.9001,4.9001,4.9001,4.9001,4.9001,4.9001,4.9001,4.9001,4.9001,4.9001,4.9001,4.9001,4.9001,4.9152,4.9256,4.9256,4.9936,5.009,4.958,5.0033,5.0279,5.0279,5.1034,5.1593,5.2112,5.2831,5.3206,5.3206,5.3206,5.3206,5.3206,5.3206,5.3206,5.3206,5.3206,5.3206,5.3206,5.3206,5.3206,5.3206,5.3206,5.3206,5.3206,5.3206,5.3206,5.3206,5.3206,5.3206,5.3206,5.3206,5.3206,5.3206,5.3206,5.3206,5.3206,5.3206,5.3206,5.3206,5.3206,5.339,5.3537,5.3537,5.372,5.4271,5.5666,5.5923,5.5996,5.6216,5.6253,5.6253,5.6253,5.6253,5.6253,5.6253,5.6253,5.6253,5.6253,5.6253,5.6253,5.6253,5.6253,5.6161,5.5941,5.5923,5.5574,5.4766,5.473,5.4344,5.3555,5.3537,5.3427,5.3206,5.3427,5.3427,5.3206,5.3206,5.3206,0.0,0.0,0.0,0.0,0.0,0.0,4.9001,4.9001,4.9001,4.9001,4.9001,4.9001,4.9001,4.9001,4.9001,4.9001,4.9001,4.9001,4.9001,4.9001,4.9001,4.9001,4.9001,4.9001,4.9001,4.9001,4.9001,4.9001,4.9256,4.9664,5.0241,5.0929,5.1155,5.0734,5.1138,5.1361,5.1361,5.1777,5.2196,5.2554,5.298,5.3206,5.3206,5.3206,5.3206,5.3206,5.3206,5.3206,5.3206,5.3206,5.3206,5.3206,5.3206,5.3206,5.3206,5.3206,5.3206,5.3206,5.3206,5.3206,5.3206,5.3206,5.3206,5.3206,5.3206,5.3206,5.3206,5.3206,5.3206,5.3206,5.3206,5.3206,5.3206,5.3206,5.3206,5.3206,5.3206,5.3206,5.3592,5.484,5.5097,5.5207,5.5537,5.5592,5.5592,5.5592,5.5592,5.5592,5.5592,5.5592,5.5592,5.5592,5.5592,5.5592,5.5592,5.5592,5.5445,5.5115,5.5097,5.473,5.394,5.3904,5.3683,5.3225,5.3206,5.3206,5.3206,5.3206,5.3206,5.3206,5.3206,5.3206,0.0,0.0,0.0,0.0,4.9001,0.0,4.9001,4.9001,4.9001,4.9001,4.9001,4.9001,4.9001,4.9001,4.9001,4.9001,4.9001,4.9001,4.9001,4.9001,4.9001,4.9001,4.9001,4.9001,4.9001,4.9001,4.9063,4.9107,4.9722,5.0645,5.1904,5.2617,5.2955,5.2955,5.2955,5.2955,5.2955,5.3042,5.3103,5.3103,5.3164,5.3206,5.3206,5.3206,5.3206,5.3206,5.3206,5.3206,5.3206,5.3206,5.3206,5.3206,5.3206,5.3206,5.3206,5.3206,5.3206,5.3206,5.3206,5.3206,5.3206,5.3206,5.3206,5.3206,5.3206,5.3206,5.3206,5.3206,5.3206,5.3206,5.3206,5.3206,5.3206,5.3206,5.3206,5.3206,5.3206,5.3206,5.3427,5.4124,5.4271,5.4491,5.5207,5.5317,5.5317,5.5317,5.5317,5.5317,5.5317,5.5317,5.5317,5.5317,5.5317,5.5317,5.5317,5.5317,5.5023,5.4308,5.4271,5.3959,5.3243,5.3206,5.3206,5.3206,5.3206,5.3206,5.3206,5.3206,5.3206,5.3206,5.3206,5.3206,0.0,0.0,0.0,0.0,4.9001,0.0,4.9001,4.9001,4.9001,4.9001,4.9001,4.9001,4.9001,4.9001,4.9001,4.9001,4.9001,4.9001,4.9001,4.9001,4.9001,4.9001,4.9001,4.9001,4.9001,4.9001,4.9212,4.9763,5.0462,5.0981,5.1292,5.1462,5.1512,5.1512,5.1512,5.1512,5.1512,5.2018,5.2317,5.2335,5.2937,5.3206,5.3206,5.3206,5.3206,5.3206,5.3206,5.3206,5.3206,5.3206,5.3206,5.3206,5.3206,5.3206,5.3206,5.3206,5.3206,5.3206,5.3206,5.3206,5.3206,5.3206,5.3206,5.3206,5.3206,5.3206,5.3206,5.3206,5.3206,5.3206,5.3206,5.3206,5.3206,5.3206,5.3206,5.3206,5.3206,5.3206,5.3261,5.3408,5.3445,5.3482,5.3647,5.3683,5.3683,5.3683,5.3683,5.3683,5.3683,5.3683,5.3683,5.3683,5.3683,5.3683,5.3683,5.3683,5.361,5.3445,5.3445,5.3371,5.3225,5.3206,5.3206,5.3206,5.3206,5.3206,5.3206,5.3206,5.3206,5.3206,5.3206,5.3206,0.0,0.0,0.0,4.9001,4.9001,0.0,0.0,4.9001,4.9001,4.9001,4.9001,4.9001,4.9001,4.9001,4.9001,4.9001,4.9001,4.9001,4.9001,4.9001,4.9001,4.9001,4.9001,4.9001,4.9001,4.9001,4.9152,4.9462,5.0146,5.0554,5.0554,5.1241,5.1593,5.1593,5.1593,5.1777,5.2149,5.2131,5.2271,5.2662,5.3042,5.3206,5.3206,5.3206,5.3206,5.3206,5.3206,5.3206,5.3206,5.3206,5.3206,5.3206,5.3206,5.3206,5.3206,5.3206,5.3206,5.3206,5.3206,5.3206,5.3206,5.3206,5.3206,5.3206,5.3206,5.3206,5.3206,5.3206,5.3206,5.3206,5.3206,5.3206,5.3206,5.3206,5.3206,5.3206,5.3206,5.3206,5.3206,5.3206,5.3206,5.3206,5.3206,5.3206,5.3206,5.3206,5.3206,5.3206,5.3206,5.3206,5.3206,5.3206,5.3206,5.3206,5.3206,5.3206,5.3206,5.3206,5.3206,5.3206,5.3206,5.3206,5.3206,5.3206,5.3206,5.3206,5.3206,5.3206,5.3206,5.3206,5.3206,5.3206,0.0,0.0,0.0,0.0,0.0,4.9001,0.0,0.0,0.0,4.8832,4.8798,4.8748,4.8612,4.8578,4.8528,4.8392,4.8477,4.8528,4.8392,4.8494,4.868,4.8968,4.9001,4.9001,4.9001,4.9273,4.9419,4.9419,5.0146,5.0608,5.0608,5.1692,5.2317,5.2317,5.2317,5.2599,5.3206,5.2599,5.2599,5.3206,5.3206,5.3206,5.3206,5.3206,5.3206,5.3206,5.3206,5.3206,5.3206,5.3206,5.3206,5.3206,5.3206,5.3206,5.3206,5.3206,5.3206,5.3206,5.3206,5.3206,5.3206,5.3206,5.3206,5.3206,5.3206,5.3206,5.3206,5.3206,5.3206,5.3206,5.3206,5.3206,5.3206,5.3206,5.3206,5.3206,5.3206,5.3206,5.3206,5.3206,5.3206,5.3206,5.3206,5.3206,5.3206,5.3206,5.3206,5.3206,5.3206,5.3206,5.3206,5.3206,5.3206,5.3206,5.3206,5.3206,5.3206,5.3206,5.3206,5.3206,5.3206,5.3206,5.3206,5.3206,5.3206,5.3206,5.3206,5.3206,5.3206,5.3206,5.3206,5.3206,0.0,0.0,0.0,0.0,4.9001,4.9001,4.9001,0.0,4.8815,4.8173,0.0,4.7834,4.7158,0.0,0.0,4.6177,4.6616,4.6819,4.6177,4.6633,4.753,4.8849,4.9001,4.9001,4.9001,5.0163,5.0876,5.0876,5.2101,5.285,5.285,5.2999,5.306,5.306,5.306,5.3103,5.3206,5.3103,5.3103,5.3206,5.3206,5.3206,5.3206,5.3206,5.3206,5.3206,5.3206,5.3206,5.3206,5.3206,5.3206,5.3206,5.3206,5.3206,5.3206,5.3206,5.3206,5.3206,5.3206,5.3206,5.3206,5.3206,5.3206,5.3206,5.3206,5.3206,5.3206,5.3206,5.3206,5.3206,5.3206,5.3206,5.3206,5.3206,5.3206,5.3206,5.3206,5.3206,5.3206,5.3206,5.3206,5.3206,5.3206,5.3206,5.3206,5.3206,5.3206,5.3206,5.3206,5.3206,5.3206,5.3206,5.3206,5.3206,5.3206,5.3206,5.3206,5.3206,5.3206,5.3206,5.3206,5.3206,5.3206,5.3206,5.3206,5.3206,5.3206,5.3206,5.3206,5.3206,5.3206,5.3206,0.0,0.0,0.0,4.9001,4.9001,4.89,4.8477,4.8376,4.8156,4.7411,0.0,0.0,0.0,0.0,0.0,0.0,4.6599,4.6684,4.638,4.6599,4.7192,4.8257,4.8376,4.871,4.958,5.0535,5.1086,5.1086,5.1679,5.1988,5.1988,5.2353,5.2554,5.2554,5.2554,5.2769,5.3206,5.2769,5.2769,5.3206,5.3206,5.3206,5.3206,5.3206,5.3206,5.3206,5.3206,5.3206,5.3206,5.3206,5.3206,5.3206,5.3206,5.3206,5.3206,5.3206,5.3206,5.3206,5.3206,5.3206,5.3206,5.3206,5.3206,5.3206,5.3206,5.3206,5.3206,5.3206,5.3206,5.3206,5.3206,5.3206,5.3206,5.3206,5.3206,5.3206,5.3206,5.3206,5.3206,5.3206,5.3206,5.3206,5.3206,5.3206,5.3206,5.3206,5.3206,5.3206,5.3206,5.3206,5.3206,5.3206,5.3206,5.3206,5.3206,5.3206,5.3206,5.3206,5.3206,5.3206,5.3206,5.3206,5.3206,5.3206,5.3206,5.3206,5.3206,5.3206,5.3206,5.3206,5.3206,5.3206,4.9001,4.9001,4.8951,4.8748,4.8714,4.8528,4.7784,4.7614,4.7394,4.665,4.6498,0.0,0.0,0.0,0.0,0.0,0.0,4.6109,4.5889,4.6058,4.6549,4.7496,4.7759,4.834,4.9559,5.0311,5.0702,5.0702,5.0919,5.1034,5.1034,5.1481,5.1729,5.1729,5.1729,5.2007,5.2546,5.2007,5.2116,5.2876,5.2876,5.3004,5.3206,5.3206,5.3206,5.3206,5.3206,5.3206,5.3206,5.3206,5.3206,5.3206,5.3206,5.3206,5.3206,5.3206,5.3206,5.3206,5.3206,5.3206,5.3206,5.3206,5.3206,5.3206,5.3206,5.3206,5.3206,5.3206,5.3206,5.3206,5.3206,5.3206,5.3206,5.3206,5.3206,5.3206,5.3206,5.3206,5.3206,5.3206,5.3206,5.3206,5.3206,5.3206,5.3206,5.3206,5.3206,5.3206,5.3206,5.3206,5.3206,5.3206,5.3206,5.3206,5.3206,5.3206,5.3206,5.3206,5.3206,5.3206,5.3206,5.3206,5.3206,5.3206,5.3206,5.3206,5.3206,5.3206,5.3206,5.3206,5.3206,5.3206,4.9001,4.9001,4.8832,4.8122,4.7953,4.775,4.7005,4.6836,4.6616,4.5889,4.5737,4.5517,4.479,0.0,0.0,0.0,0.0,0.0,0.0,4.4181,4.5196,4.665,4.7369,4.796,4.8705,4.9341,4.9712,4.9712,5.0411,5.0835,5.0835,5.0835,5.0835,5.0835,5.0835,5.0835,5.0875,5.0835,5.1261,5.2032,5.2032,5.2454,5.3206,5.3206,5.3206,5.3206,5.3206,5.3206,5.3206,5.3206,5.3206,5.3206,5.3206,5.3206,5.3206,5.3206,5.3206,5.3206,5.3206,5.3206,5.3206,5.3206,5.3206,5.3206,5.3206,5.3206,5.3206,5.3206,5.3206,5.3206,5.3206,5.3206,5.3206,5.3206,5.3206,5.3206,5.3206,5.3206,5.3206,5.3206,5.3206,5.3206,5.3206,5.3206,5.3206,5.3206,5.3206,5.3206,5.3206,5.3206,5.3206,5.3206,5.3206,5.3206,5.3206,5.3206,5.3206,5.3206,5.3206,5.3206,5.3206,5.3206,5.3206,5.3206,5.3206,5.3206,5.3206,5.3206,5.3206,5.3206,5.3206,5.3206,4.8409,4.8291,4.8105,4.7361,4.7175,4.6989,4.6244,4.6075,4.5855,4.5111,4.4959,4.4891,4.4621,0.0,0.0,0.0,0.0,0.0,0.0,4.479,4.551,4.6446,4.7646,4.8667,4.9299,5.0025,5.0441,5.0441,5.0643,5.0802,5.0802,5.0802,5.0802,5.0802,5.0802,5.0802,5.0802,5.0802,5.0949,5.1206,5.1206,5.1353,5.1628,5.216,5.2417,5.2435,5.2968,5.3206,5.3206,5.3206,5.3206,5.3206,5.3206,5.3206,5.3206,5.3206,5.3206,5.3206,5.3206,5.3206,5.3206,5.3206,5.3206,5.3206,5.3206,5.3206,5.3206,5.3206,5.3206,5.3206,5.3206,5.3206,5.3206,5.3206,5.3206,5.3206,5.3206,5.3206,5.3206,5.3206,5.3206,5.3206,5.3206,5.3206,5.3206,5.3206,5.3206,5.3206,5.3206,5.3206,5.3206,5.3206,5.3206,5.3206,5.3206,5.3206,5.3206,5.3206,5.3206,5.3206,5.3206,5.3206,5.3206,5.3206,5.3206,5.3206,5.3206,5.3206,5.3206,5.3206,5.3206,5.3206,4.7716,4.7513,4.7344,4.6583,4.6413,4.621,4.5483,4.5314,4.5162,4.4671,4.4587,4.4587,4.4587,0.0,0.0,0.0,0.0,0.0,0.0,4.5142,4.5732,4.6336,4.7524,4.8522,4.9137,4.9647,4.9921,4.9921,4.9921,4.9921,4.9921,4.9921,4.9921,4.9921,4.9921,4.9921,4.9921,4.9921,5.0068,5.0362,5.0362,5.0508,5.082,5.1334,5.172,5.2013,5.2546,5.2949,5.3206,5.3206,5.3206,5.3206,5.3206,5.3206,5.3206,5.3206,5.3206,5.3206,5.3206,5.3206,5.3206,5.3206,5.3206,5.3206,5.3206,5.3206,5.3206,5.3206,5.3206,5.3206,5.3206,5.3206,5.3206,5.3206,5.3206,5.3206,5.3206,5.3206,5.3206,5.3206,5.3206,5.3206,5.3206,5.3206,5.3206,5.3206,5.3206,5.3206,5.3206,5.3206,5.3206,5.3206,5.3206,5.3206,5.3206,5.3206,5.3206,5.3206,5.3206,5.3206,5.3206,5.3206,5.3206,5.3206,5.3206,5.3206,5.3206,5.3206,5.3206,5.3206,5.3206,5.3272]},{"header":{"parameterUnit":"m.s-1","parameterCategory":1,"la1":30.6,"la2":29.2853,"lo1":-89.7004,"lo2":-87.6739,"dy":0.0162,"dx":0.0183,"nx":112,"ny":82,"refTime":"2023-09-08T18:00:00:Z","depth":0,"parameterNumber":3,"parameterNumberName":"V-component_of_WINDS"},"data":[0.0,0.0,0.0,0.0,0.0,0.0,0.0,0.0,0.0,0.0,0.0,0.0,0.0,0.0,0.0,0.0,0.0,0.0,0.0,0.0,0.0,0.0,0.0,0.0,0.0,0.0,0.0,0.0,0.0,0.0,0.0,0.0,0.0,0.0,0.0,0.0,0.0,0.0,0.0,0.0,0.0,0.0,0.0,0.0,0.0,0.0,0.0,0.0,0.0,0.0,0.0,0.0,0.0,0.0,0.0,0.0,0.0,0.0,0.0,0.0,0.0,0.0,0.0,0.0,0.0,0.0,0.0,0.0,0.0,0.0,0.0,0.0,0.0,0.0,0.0,0.0,0.0,0.0,0.0,0.0,0.0,0.0,0.0,0.0,0.0,0.0,0.0,0.0,0.0,0.0,0.7465,0.7614,0.7634,0.7641,0.7665,0.7668,0.7668,0.7668,0.0,0.0,0.0,0.0,0.0,0.0,0.0,0.0,0.0,0.0,0.0,0.0,0.0,0.0,0.0,0.0,0.0,0.0,0.0,0.0,0.0,0.0,0.0,0.0,0.0,0.0,0.0,0.0,0.0,0.0,0.0,0.0,0.0,0.0,0.0,0.0,0.0,0.0,0.0,0.0,0.0,0.0,0.0,0.0,0.0,0.0,0.0,0.0,0.0,0.0,0.0,0.0,0.0,0.0,0.0,0.0,0.0,0.0,0.0,0.0,0.0,0.0,0.0,0.0,0.0,0.0,0.0,0.0,0.0,0.0,0.0,0.0,0.0,0.0,0.0,0.0,0.0,0.0,0.0,0.0,0.0,0.0,0.0,0.0,0.0,0.0,0.0,0.0,0.0,0.0,0.0,0.0,0.0,0.0,0.0,0.0,0.0,0.0,0.0,0.0,0.0,0.0,0.0,0.0,0.7617,0.7763,0.778,0.7831,0.7963,0.7974,0.7974,0.7974,0.0,0.0,0.0,0.0,0.0,0.0,0.0,0.0,0.0,0.0,0.0,0.0,0.0,0.0,0.0,0.0,0.0,0.0,0.0,0.0,0.0,0.0,0.0,0.0,0.0,0.0,0.0,0.0,0.0,0.0,0.0,0.0,0.0,0.0,0.0,0.0,0.0,0.0,0.0,0.0,0.0,0.0,0.0,0.0,0.0,0.0,0.0,0.0,0.0,0.0,0.0,0.0,0.0,0.0,0.0,0.0,0.0,0.0,0.0,0.0,0.0,0.0,0.0,0.0,0.0,0.0,0.0,0.0,0.0,0.0,0.0,0.0,0.0,0.0,0.0,0.0,0.0,0.0,0.0,0.0,0.0,0.0,0.0,0.0,0.0,0.0,0.0,0.0,0.0,0.0,0.0,0.0,0.0,0.0,0.0,0.0,0.0,0.0,0.0,0.0,0.0,0.0,0.0,0.7787,0.7865,0.7929,0.7933,0.7963,0.8035,0.8038,0.8038,0.8038,0.7913,0.0,0.0,0.0,0.0,0.0,0.0,0.0,0.0,0.0,0.0,0.0,0.0,0.0,0.0,0.0,0.0,0.0,0.0,0.0,0.0,0.0,0.0,0.0,0.0,0.0,0.0,0.0,0.0,0.0,0.0,0.0,0.0,0.0,0.0,0.0,0.0,0.0,0.0,0.0,0.0,0.0,0.0,0.0,0.0,0.0,0.0,0.0,0.0,0.0,0.0,0.0,0.0,0.0,0.0,0.0,0.0,0.0,0.0,0.0,0.0,0.0,0.0,0.0,0.0,0.0,0.0,0.0,0.0,0.0,0.0,0.0,0.0,0.0,0.0,0.0,0.0,0.0,0.0,0.0,0.0,0.0,0.0,0.0,0.0,0.0,0.0,0.0,0.0,0.0,0.0,0.0,0.0,0.0,0.0,0.0,0.0,0.0,0.0,0.0,0.0,0.0,0.0,0.7967,0.8038,0.8038,0.8038,0.8038,0.8038,0.8038,0.8038,0.8038,0.8038,0.0,0.0,0.0,0.0,0.0,0.0,0.0,0.0,0.0,0.0,0.0,0.0,0.0,0.0,0.0,0.0,0.0,0.0,0.0,0.0,0.0,0.0,0.0,0.0,0.0,0.0,0.0,0.0,0.0,0.0,0.0,0.0,0.0,0.0,0.0,0.0,0.0,0.0,0.0,0.0,0.0,0.0,0.0,0.0,0.0,0.0,0.0,0.0,0.0,0.0,0.0,0.0,0.0,0.0,0.0,0.0,0.0,0.0,0.0,0.0,0.0,0.0,0.0,0.0,0.0,0.0,0.0,0.0,0.0,0.0,0.0,0.0,0.0,0.0,0.0,0.0,0.0,0.0,0.0,0.0,0.0,0.0,0.0,0.0,0.0,0.0,0.0,0.0,0.0,0.0,0.0,0.0,0.0,0.0,0.0,0.0,0.0,0.0,0.0,0.0,0.0,0.0,0.8031,0.8038,0.8038,0.8038,0.8038,0.8038,0.8038,0.8038,0.8038,0.8038,0.0,0.0,0.0,0.0,0.0,0.0,0.0,0.0,0.0,0.0,0.0,0.0,0.0,0.0,0.0,0.0,0.0,0.0,0.0,0.0,0.0,0.0,0.0,0.0,0.0,0.0,0.0,0.0,0.0,0.0,0.0,0.0,0.0,0.0,0.0,0.0,0.0,0.0,0.0,0.0,0.0,0.0,0.0,0.0,0.0,0.0,0.0,0.0,0.0,0.0,0.0,0.0,0.0,0.0,0.0,0.0,0.0,0.0,0.0,0.0,0.0,0.0,0.0,0.0,0.0,0.0,0.0,0.0,0.0,0.0,0.0,0.0,0.0,0.0,0.0,0.0,0.0,0.0,0.0,0.0,0.0,0.0,0.0,0.0,0.0,0.0,0.0,0.0,0.0,0.0,0.0,0.0,0.0,0.0,0.0,0.0,0.0,0.0,0.0,0.0,0.0,0.0,0.8123,0.8184,0.0,0.8262,0.8316,0.8316,0.8316,0.8316,0.8316,0.0,0.0,0.0,0.0,0.0,0.0,0.0,0.0,0.0,0.0,0.0,0.0,0.0,0.0,0.0,0.0,0.0,0.0,0.0,0.0,0.0,0.0,0.0,0.0,0.0,0.0,0.0,0.0,0.0,0.0,0.0,0.0,0.0,0.0,0.0,0.0,0.0,0.0,0.0,0.0,0.0,0.0,0.0,0.0,0.0,0.0,0.0,0.0,0.0,0.0,0.0,0.0,0.0,0.0,0.0,0.0,0.0,0.0,0.0,0.0,0.0,0.0,0.0,0.0,0.0,0.0,0.0,0.0,0.0,0.0,0.0,0.0,0.0,0.0,0.0,0.0,0.0,0.0,0.0,0.0,0.0,0.0,0.0,0.0,0.0,0.0,0.0,0.0,0.0,0.0,0.0,0.0,0.0,0.0,0.0,0.0,0.0,0.0,0.0,0.0,0.0,0.0,0.8174,0.8272,0.8336,0.0,0.8425,0.8482,0.8482,0.8482,0.8482,0.8482,0.0,0.0,0.0,0.0,0.0,0.0,0.0,0.0,0.0,0.0,0.0,0.0,0.0,0.0,0.0,0.0,0.0,0.0,0.0,0.0,0.0,0.0,0.0,0.0,0.0,0.0,0.0,0.0,0.0,0.0,0.0,0.0,0.0,0.0,0.0,0.0,0.0,0.0,0.0,0.0,0.0,0.0,0.0,0.0,0.0,0.0,0.0,0.0,0.0,0.0,0.0,0.0,0.0,0.0,0.0,0.0,0.0,0.0,0.0,0.0,0.0,0.0,0.0,0.0,0.0,0.0,0.0,0.0,0.0,0.0,0.0,0.0,0.0,0.0,0.0,0.0,0.0,0.0,0.0,0.0,0.0,0.0,0.0,0.0,0.0,0.0,0.0,0.0,0.0,0.0,0.0,0.0,0.0,0.0,0.0,0.0,0.0,0.0,0.0,0.0,0.0,0.0,0.8465,0.8482,0.8482,0.8482,0.8486,0.8486,0.8486,0.8486,0.8486,0.0,0.0,0.0,0.0,0.0,0.0,0.0,0.0,0.0,0.0,0.0,0.0,0.0,0.0,0.0,0.0,0.0,0.0,0.0,0.0,0.0,0.0,0.0,0.0,0.0,0.0,0.0,0.0,0.0,0.0,0.0,0.0,0.0,0.0,0.0,0.0,0.0,0.0,0.0,0.0,0.0,0.0,0.0,0.0,0.0,0.0,0.0,0.0,0.0,0.0,0.0,0.0,0.0,0.0,0.0,0.0,0.0,0.0,0.0,0.0,0.0,0.0,0.0,0.0,0.0,0.0,0.0,0.0,0.0,0.0,0.0,0.0,0.0,0.0,0.0,0.0,0.0,0.0,0.0,0.0,0.0,0.0,0.0,0.0,0.0,0.0,0.0,0.0,0.0,0.0,0.0,0.0,0.0,0.0,0.0,0.0,0.0,0.0,0.0,0.0,0.0,0.0,0.0,0.8476,0.8577,0.8645,0.8645,0.874,0.8804,0.8804,0.8804,0.8804,0.8804,0.0,0.0,0.0,0.0,0.0,0.0,0.0,0.0,0.0,0.0,0.0,0.0,0.0,0.0,0.0,0.0,0.0,0.0,0.0,0.0,0.0,0.0,0.0,0.0,0.0,0.0,0.0,0.0,0.0,0.0,0.0,0.0,0.0,0.0,0.0,0.0,0.0,0.0,0.0,0.0,0.0,0.0,0.0,0.0,0.0,0.0,0.0,0.0,0.0,0.0,0.0,0.0,0.0,0.0,0.0,0.0,0.0,0.0,0.0,0.0,0.0,0.0,0.0,0.0,0.0,0.0,0.0,0.0,0.0,0.0,0.0,0.0,0.0,0.0,0.0,0.0,0.0,0.0,0.0,0.0,0.0,0.0,0.0,0.0,0.0,0.0,0.0,0.0,0.0,0.0,0.0,0.0,0.0,0.0,0.0,0.0,0.0,0.0,0.0,0.0,0.0,0.0,0.8655,0.8743,0.8801,0.8801,0.8882,0.894,0.894,0.894,0.894,0.894,0.0,0.0,0.0,0.0,0.0,0.0,0.0,0.0,0.0,0.0,0.0,0.0,0.0,0.0,0.0,0.0,0.0,0.0,0.0,0.0,0.0,0.0,0.0,0.0,0.0,0.0,0.0,0.0,0.0,0.0,0.0,0.0,0.0,0.0,0.0,0.0,0.0,0.0,0.0,0.0,0.0,0.0,0.0,0.0,0.0,0.0,0.0,0.0,0.0,0.0,0.0,0.0,0.0,0.0,0.0,0.0,0.0,0.0,0.0,0.0,0.0,0.0,0.0,0.0,0.0,0.0,0.0,0.0,0.0,0.0,0.0,0.0,0.0,0.0,0.0,0.0,0.0,0.0,0.0,0.0,0.0,0.0,0.0,0.0,0.0,0.0,0.0,0.0,0.0,0.0,0.0,0.0,0.0,0.0,0.0,0.0,0.0,0.0,0.0,0.0,0.0,0.0,0.892,0.894,0.894,0.894,0.894,0.894,0.894,0.894,0.894,0.894,0.0,0.0,0.0,0.0,0.0,0.0,0.0,0.0,0.0,0.0,0.0,0.0,0.0,0.0,0.0,0.0,0.0,0.0,0.0,0.0,0.0,0.0,0.0,0.0,0.0,0.0,0.0,0.0,0.0,0.0,0.0,0.0,0.0,0.0,0.0,0.0,0.0,0.0,0.0,0.0,0.0,0.0,0.0,0.0,0.0,0.0,0.0,0.0,0.0,0.0,0.0,0.0,0.0,0.0,0.0,0.0,0.0,0.0,0.0,0.0,1.0582,0.0,0.0,0.0,0.0,0.0,0.0,0.0,0.0,0.0,0.0,0.0,0.0,0.0,0.0,0.0,0.0,0.0,0.0,0.0,0.0,0.0,0.0,0.0,0.0,0.0,0.0,0.0,0.0,0.0,0.0,0.0,0.0,0.0,0.0,0.0,0.0,0.0,0.0,0.0,0.0,0.0,0.8933,0.894,0.894,0.894,0.894,0.894,0.894,0.894,0.894,0.894,0.894,0.0,0.0,0.0,0.0,0.0,0.0,0.0,0.0,0.0,0.0,0.0,0.0,0.0,0.0,0.0,0.0,0.0,0.0,0.0,0.0,0.0,0.0,0.0,0.0,0.0,0.0,0.0,0.0,0.0,0.0,0.0,0.0,0.0,0.0,0.0,0.0,0.0,0.0,0.0,0.0,0.0,0.0,0.0,0.0,0.0,0.0,0.0,0.0,0.0,0.0,0.0,0.0,0.0,0.0,0.0,0.0,0.0,0.0,0.0,0.0,1.1822,0.0,0.0,0.0,0.0,0.0,0.0,0.0,0.0,0.0,0.0,0.0,0.0,0.0,0.0,0.0,0.0,0.0,0.0,0.0,0.0,0.0,0.0,0.0,0.0,0.0,0.0,0.0,0.0,0.0,0.0,0.0,0.0,0.0,0.0,0.0,0.0,0.0,0.0,0.0,0.0,0.9032,0.9042,0.9069,0.9144,0.915,0.915,0.915,0.915,0.912,0.9045,0.9042,0.0,0.0,0.0,0.0,0.0,0.0,0.0,0.0,0.0,0.0,0.0,0.0,0.0,0.0,0.0,0.0,0.0,0.0,0.0,0.0,0.0,0.0,0.0,0.0,0.0,0.0,0.0,0.0,0.0,0.0,0.0,0.0,0.0,0.0,0.0,0.0,0.0,0.0,0.0,0.0,0.0,0.0,0.0,0.0,0.0,0.0,0.0,0.0,0.0,0.0,0.0,0.0,0.0,1.465,1.465,1.3726,1.489,1.5471,1.5365,1.3147,1.2785,1.3628,1.3439,0.0,0.0,0.0,0.0,0.0,0.0,0.0,0.0,0.0,0.0,0.0,0.0,0.0,0.0,0.0,0.0,0.0,0.0,0.0,0.0,0.0,0.0,0.8336,0.8455,0.8503,0.8489,0.8374,0.0,0.0,0.0,0.0,0.0,0.0,0.0,0.0,0.0,0.0,0.0,0.9178,0.9195,0.9242,0.9367,0.9381,0.9381,0.9381,0.9381,0.9327,0.9201,0.9195,0.914,0.0,0.0,0.0,0.0,0.0,0.0,0.0,0.0,0.0,0.0,0.0,0.0,0.0,0.0,0.0,0.0,0.0,0.0,0.0,0.0,0.0,0.0,0.0,0.0,0.0,0.0,0.0,0.0,0.0,0.0,0.0,0.0,1.4182,1.4436,0.0,0.0,0.0,0.0,0.0,0.0,0.0,0.0,0.0,0.0,0.0,0.0,0.0,1.5337,1.5337,1.5585,1.5617,1.5429,1.5617,1.5617,1.5429,1.5657,1.5772,1.5772,1.5341,0.0,1.5328,1.426,0.0,0.0,0.0,0.0,0.0,0.0,0.0,0.0,0.0,0.0,0.0,0.0,0.0,0.0,0.0,0.0,0.0,0.0,0.0,0.0,0.0,0.0,0.8459,0.8476,0.8584,0.8676,0.8655,0.8665,0.8679,0.8679,0.8804,0.891,0.0,0.0,0.0,0.0,0.0,0.0,0.9347,0.9351,0.9357,0.9381,0.9381,0.9381,0.9381,0.9381,0.9371,0.9354,0.9351,0.9344,0.9323,0.9418,0.0,0.0,0.0,0.0,0.0,0.0,0.0,0.0,0.0,0.0,0.0,0.0,0.0,0.0,0.0,0.0,0.0,0.0,0.0,0.0,0.0,0.0,0.0,0.0,0.0,0.0,0.0,0.0,0.0,1.4476,1.4629,1.4756,1.477,1.4823,0.0,0.0,0.0,0.0,0.0,0.0,0.0,0.0,0.0,1.5451,1.5571,1.5638,1.5638,1.5932,1.6079,1.6079,1.6239,1.6319,1.6319,1.6319,1.6319,1.6319,1.6319,1.6319,1.6195,1.5371,1.5044,1.5183,0.0,0.0,0.0,0.0,1.3513,1.3209,1.1102,1.0403,1.0201,0.8692,0.0,0.0,0.0,0.0,0.0,0.0,0.0,0.9328,0.8796,0.8611,0.8632,0.8716,0.8791,0.8838,0.8838,0.8903,0.8933,0.8855,0.8957,0.9059,0.9059,0.9181,0.0,0.0,0.0,0.9412,0.95,0.951,0.954,0.9622,0.9629,0.9629,0.9629,0.9629,0.9595,0.9513,0.951,0.9469,0.9384,1.0108,1.0406,0.0,0.0,0.0,0.0,0.0,0.0,0.0,0.0,0.0,0.0,0.0,0.0,0.0,0.0,0.0,0.0,0.0,0.0,0.0,0.0,0.0,0.0,0.0,0.0,0.0,0.0,0.0,0.0,1.4823,1.499,1.5064,1.5077,1.5104,0.0,0.0,0.0,0.0,0.0,0.0,1.5925,1.5945,1.5979,1.6052,1.6052,1.6052,1.6052,1.6273,1.6386,1.6386,1.66,1.6747,1.682,1.682,1.686,1.6927,1.6927,1.6927,1.6887,1.6299,1.6186,1.6386,1.6386,1.6513,1.66,1.567,1.5261,1.485,1.2182,1.1156,1.085,0.91,0.8509,0.854,0.854,0.0,0.0,0.0,0.0,0.9151,0.8845,0.8767,0.8808,0.8957,0.8994,0.9005,0.9042,0.9137,0.9167,0.9022,0.911,0.9211,0.9211,0.934,0.0,1.0011,0.97,0.9884,1.0706,1.0137,0.9823,1.0407,1.0061,0.9822,0.9822,1.0183,1.0371,1.026,1.0606,1.0783,1.0774,1.1293,1.1496,1.1273,0.0,0.0,0.0,0.0,0.0,0.0,0.0,0.0,0.0,0.0,0.0,0.0,0.0,0.0,0.0,0.0,0.0,0.0,0.0,0.0,0.0,0.0,0.0,0.0,0.0,0.0,0.0,0.0,0.0,1.5344,1.5378,0.0,0.0,0.0,0.0,1.5805,1.5805,1.5939,1.6239,1.6253,1.638,1.6653,1.666,1.666,1.666,1.6673,1.6687,1.6687,1.67,1.6854,1.7128,1.7128,1.7281,1.7535,1.7535,1.7535,1.7488,1.6901,1.6667,1.6687,1.6687,1.6693,1.6707,1.6607,1.66,1.6192,1.3416,1.2495,1.2079,0.941,0.8581,0.8699,0.8699,0.9764,0.0,0.0,0.9889,1.0647,0.9251,0.8927,0.8964,0.911,0.9144,0.9181,0.9327,0.9364,0.9323,0.9171,0.9266,0.9367,0.9367,0.0,1.0062,1.1686,1.0655,1.0876,1.3989,1.1723,1.0411,1.1976,1.066,0.9822,0.9822,1.1257,1.2093,1.2084,1.3512,1.4346,1.4331,1.2836,1.331,1.6092,1.4598,0.0,0.0,0.0,0.0,0.0,0.0,0.0,0.0,0.0,0.0,0.0,0.0,0.0,0.0,0.0,0.0,0.0,0.0,0.0,0.0,0.0,0.0,0.0,0.0,0.0,0.0,0.0,0.0,1.5665,1.5671,0.0,1.6086,1.6112,1.6192,1.638,1.6393,1.644,1.6547,1.6553,1.66,1.67,1.6894,1.6987,1.6987,1.7361,1.7555,1.7569,1.7762,1.7909,1.8016,1.8016,1.807,1.817,1.817,1.817,1.815,1.7943,1.7742,1.7569,1.7569,1.7689,1.7829,1.7642,1.7569,1.7219,1.51,1.44,1.4084,1.2176,1.159,1.1648,1.1648,1.1376,1.1021,1.0588,1.0177,0.9763,0.9312,0.9225,0.9235,0.9289,0.93,0.9655,1.0739,1.1069,1.1008,1.1061,1.0182,0.9873,1.0911,1.035,1.0219,1.1877,1.074,1.0179,1.1378,1.0539,1.0061,1.0539,1.0179,1.0179,1.1257,1.1856,1.2693,1.3646,1.4247,1.4604,1.4604,1.405,1.4124,1.5306,1.4608,1.4906,0.0,0.0,0.0,0.0,0.0,0.0,0.0,0.0,0.0,0.0,0.0,0.0,0.0,0.0,0.0,0.0,0.0,0.0,0.0,0.0,0.0,0.0,0.0,0.0,0.0,0.0,1.5979,1.5979,1.6066,1.6199,1.64,1.642,1.65,1.6693,1.6707,1.6794,1.6987,1.7001,1.7094,1.7301,1.7502,1.7602,1.7602,1.7983,1.8183,1.8196,1.8397,1.8544,1.8637,1.8637,1.8691,1.8784,1.8784,1.8784,1.8784,1.8784,1.8671,1.847,1.8277,1.8317,1.847,1.827,1.8196,1.7945,1.6296,1.535,1.48,1.3926,1.3597,1.3487,1.2942,1.2501,1.1975,1.1547,1.1134,1.0822,1.0942,1.0974,1.0878,1.036,1.0259,1.039,1.1028,1.1593,1.2027,1.2027,1.1209,1.0859,1.1908,1.1299,1.1378,1.3522,1.2449,1.1856,1.2924,1.2093,1.1615,1.2209,1.1732,1.1856,1.2933,1.3522,1.4237,1.5311,1.5908,1.6267,1.6267,1.5671,1.5671,1.6267,1.5544,1.5885,1.7279,0.0,0.0,0.0,0.0,0.0,0.0,0.0,0.0,0.0,0.0,0.0,0.0,0.0,0.0,0.0,0.0,0.0,0.0,0.0,0.0,0.0,0.0,0.0,1.5892,1.6106,1.6286,1.6286,1.6533,1.6707,1.672,1.6727,1.674,1.6747,1.6754,1.7007,1.7582,1.7609,1.7883,1.847,1.8497,1.8504,1.8504,1.851,1.8517,1.8517,1.8517,1.8664,1.8938,1.8938,1.9092,1.9366,1.9366,1.9366,1.9366,1.9366,1.9366,1.9312,1.8738,1.8517,1.8517,1.851,1.8497,1.8262,1.6869,1.5395,1.4261,1.4261,1.4261,1.3922,1.2461,1.3022,1.3808,1.2355,1.3032,1.4158,1.4164,1.4169,1.3769,1.2359,1.2055,1.1757,1.0265,1.1257,1.2333,1.2333,1.2333,1.2333,1.2333,1.2333,1.3402,1.6492,1.5666,0.0,1.8887,1.6503,1.5198,1.6733,1.5548,1.4604,1.4723,1.6138,1.6968,1.7085,1.8525,1.9366,1.9366,1.7923,1.7806,1.9366,1.765,1.7514,1.8938,0.0,0.0,0.0,0.0,0.0,0.0,0.0,0.0,0.0,0.0,0.0,0.0,0.0,0.0,0.0,0.0,0.0,0.0,0.0,0.0,0.0,0.0,1.656,1.6473,1.6533,1.6587,1.6587,1.666,1.6794,1.7007,1.7221,1.7435,1.7662,1.7876,1.807,1.823,1.8237,1.8317,1.8484,1.8698,1.8804,1.8804,1.9018,1.9125,1.9125,1.9125,1.9172,1.9245,1.9245,1.9292,1.9366,1.9366,1.9366,1.9366,1.9366,1.9366,1.9352,1.9192,1.9125,1.9098,1.8885,1.8671,1.8484,1.8027,1.768,1.734,1.734,1.734,1.7229,1.6782,1.6198,1.5654,1.527,1.4745,1.4325,1.4488,1.4417,1.431,1.402,1.3917,1.405,1.4811,1.5419,1.566,1.566,1.566,1.566,1.566,1.4713,1.4599,1.6727,1.5666,1.496,1.579,1.5198,1.4723,1.5192,1.4837,1.5074,1.6256,1.6727,1.7449,1.8642,1.9127,1.9366,1.9366,1.9004,1.9004,1.9366,1.8925,1.8879,0.0,0.0,0.0,0.0,0.0,0.0,0.0,0.0,0.0,0.0,0.0,0.0,0.0,0.0,0.0,0.0,0.0,0.0,0.0,0.0,0.0,0.0,1.6894,1.6934,1.7054,1.6967,1.6894,1.6894,1.7114,1.7335,1.7508,1.7789,1.8036,1.8217,1.8397,1.8544,1.8664,1.8671,1.8731,1.8851,1.9025,1.9112,1.9112,1.9279,1.9366,1.9366,1.9366,1.9366,1.9366,1.9366,1.9366,1.9366,1.9366,1.9366,1.9366,1.9366,1.9366,1.9366,0.0,0.0,0.0,0.0,1.9005,1.8858,1.8858,1.8858,1.8858,1.8858,1.8858,1.8738,1.8039,1.7685,1.7477,1.6934,1.6628,1.6553,1.6586,1.6626,1.6385,1.579,1.5666,1.5666,1.5902,1.6492,1.6968,1.6968,1.756,0.0,1.8046,1.6615,1.6144,1.7806,1.7214,1.6626,1.6626,1.6626,1.6626,1.6626,1.6626,1.6979,1.7923,1.8046,0.0,0.0,0.0,1.9366,1.9366,1.9366,0.0,0.0,0.0,1.9366,1.9366,1.9192,0.0,0.0,1.6003,1.5328,0.0,0.0,0.0,0.0,0.0,0.0,0.0,0.0,0.0,0.0,0.0,0.0,0.0,0.0,0.0,0.0,1.7201,1.7301,1.7595,1.7415,1.7248,1.7248,1.7722,1.8063,1.8096,1.8364,1.8544,1.8544,1.8571,1.8704,1.8958,0.0,0.0,0.0,0.0,1.9366,1.9366,1.9366,1.9386,1.9419,1.9419,1.9432,1.9466,1.9466,1.9466,1.9466,1.9466,1.9466,1.9466,1.9466,1.9466,1.9459,1.9392,1.9366,1.9366,1.9366,1.9366,1.9366,1.9366,0.0,0.0,1.9366,1.9366,1.9127,1.7683,1.8286,1.912,1.7683,1.8286,1.9366,1.9366,1.9366,1.9004,1.7566,1.7325,1.685,1.5435,1.6262,1.7325,1.7325,1.8402,1.9366,1.9366,1.8169,1.7806,1.9243,1.9366,1.9366,1.9366,1.9366,1.9366,1.9366,1.9366,0.0,1.9366,1.9366,1.9366,1.9366,1.9366,1.9366,1.9366,1.9366,1.9366,1.9366,1.9366,1.9366,1.9366,1.9366,1.8642,1.7313,1.8013,1.7546,0.0,0.0,0.0,0.0,0.0,0.0,0.0,0.0,0.0,0.0,0.0,0.0,0.0,0.0,0.0,1.7488,1.7502,1.7609,1.7916,1.7909,1.7876,1.7876,1.7976,1.8143,1.8384,1.8671,1.8838,1.8838,1.9065,1.9219,1.9279,1.9279,1.9305,1.9366,1.9366,1.9366,1.9366,1.9366,1.9486,1.972,1.972,0.0,2.0067,2.0067,2.0067,2.0067,2.0067,2.0067,2.0067,2.0067,2.0067,2.002,1.9553,1.9366,1.9366,1.9366,1.9366,1.9366,1.9366,1.9366,1.9366,1.9366,1.9366,1.9366,1.9004,1.9127,0.0,1.9004,1.9127,1.9366,1.9366,1.9366,1.9366,1.9004,1.8887,1.8887,1.8532,1.8765,1.8887,1.8887,1.9243,1.9366,1.9366,1.9127,1.9004,1.9366,1.9366,1.9366,1.9366,1.9366,1.9366,1.9366,1.9366,1.9366,1.9366,1.9366,1.9366,1.9366,1.9366,1.9366,1.9366,1.9366,1.9366,1.9366,1.9366,1.9366,1.9366,1.9366,1.9243,1.8881,1.7817,1.6471,0.0,0.0,0.0,0.0,0.0,0.0,0.0,0.0,0.0,0.0,0.0,1.7408,0.0,0.0,1.7582,1.7582,1.7716,1.7869,1.8023,1.8176,1.827,1.827,1.8397,1.8544,1.8691,1.8971,1.9145,1.9145,1.9285,1.9366,1.9366,1.9366,1.9366,1.9366,1.9366,1.9432,1.9586,1.9586,1.9726,2.0013,2.0013,2.0094,2.0234,2.0234,2.0234,2.0234,2.0234,2.0234,2.0234,2.0234,2.0234,2.0201,1.9913,1.98,1.978,1.9639,1.9586,1.9559,1.9419,1.9366,1.9366,1.9366,1.9366,1.9366,1.9366,1.9366,1.9366,1.9366,1.9366,1.9366,1.9366,1.9366,1.9366,1.9366,1.9366,1.9366,1.9366,1.9366,1.9366,1.9366,1.9366,1.9366,1.9366,1.9366,1.9366,1.9366,1.9366,1.9366,1.9366,1.9366,1.9366,1.9366,1.9366,1.9366,1.9366,1.9366,1.9366,1.9366,1.9366,1.9366,1.9366,1.9366,1.9366,1.9366,1.9366,1.9366,1.9366,1.9366,1.9366,1.9366,1.8525,1.7812,0.0,0.0,0.0,0.0,0.0,0.0,0.0,0.0,1.7996,1.7996,1.7996,1.801,1.8071,1.8078,1.8099,1.816,1.8178,1.8156,1.821,1.8424,1.8597,1.8657,1.8818,1.8945,1.9005,1.9225,1.9366,1.9366,1.9366,1.9366,1.9366,1.9366,1.9392,1.9452,1.9452,1.9593,1.9887,1.9887,2.0034,2.0321,2.0321,2.0347,2.0401,2.0401,2.0401,2.0401,2.0401,2.0401,2.0401,2.0401,2.0401,2.0401,2.0401,2.0401,2.0361,2.0013,1.9887,1.9853,1.9619,1.9539,1.9539,1.9539,1.9499,1.9452,1.9452,1.9412,1.9366,1.9366,1.9366,1.9366,1.9366,1.9366,1.9366,1.9366,1.9366,1.9366,1.9366,1.9366,1.9366,1.9366,1.9366,1.9366,1.9366,1.9366,1.9366,1.9366,1.9366,1.9366,1.9366,1.9366,1.9366,1.9366,1.9366,1.9366,1.9366,1.9366,1.9366,1.9366,1.9366,1.9366,1.9366,1.9366,1.9366,1.9366,1.9366,1.9366,1.9366,1.9366,1.9366,1.9366,1.9366,1.9366,2.1845,2.1628,2.1636,2.1677,2.1517,2.1448,0.0,0.0,1.9428,1.9428,1.9428,1.9509,1.9911,1.9864,1.9953,2.0342,1.9262,1.8531,1.8791,1.8851,1.8971,1.9239,1.9065,1.9025,1.9292,1.9352,1.9366,1.9366,1.9366,1.9366,1.9366,1.9366,1.9486,1.974,1.9753,1.9887,2.018,2.0187,2.0334,2.0628,2.0628,2.0762,2.1009,2.1009,2.1009,2.1009,2.1009,2.1009,2.1009,2.1009,2.1009,2.1009,2.1009,2.1009,2.0942,2.0388,2.0187,2.018,2.0147,2.0134,2.0134,2.0134,1.996,1.9753,1.9753,1.9573,1.9366,1.9366,1.9366,1.9366,1.9366,1.9366,1.9366,1.9366,1.9366,1.9366,1.9366,1.9366,1.9366,1.9366,1.9366,1.9366,1.9366,1.9366,1.9366,1.9366,1.9366,1.9366,1.9366,1.9366,1.9366,1.9366,1.9366,1.9366,1.9366,1.9366,1.9366,1.9366,1.9366,1.9366,1.9366,1.9366,1.9366,1.9366,1.9366,1.9366,1.9366,1.9366,1.9366,1.9366,1.9366,1.9366,2.415,2.3998,2.3998,2.3998,2.3484,2.2868,2.2868,2.1752,2.0901,2.1115,2.1163,2.1266,2.1714,2.1778,2.1825,0.0,2.088,2.0079,2.0215,1.9621,1.9225,1.9352,1.9259,1.9232,1.9359,1.9366,1.9366,1.9366,1.9366,1.9439,1.9606,1.9619,1.9753,2.004,2.0054,2.0194,2.0488,2.0494,2.0635,2.0929,2.0929,2.0989,2.1109,2.1109,2.1109,2.1109,2.1109,2.1109,2.1109,2.1109,2.1109,2.1109,2.1109,2.1109,2.1056,2.0641,2.0494,2.0468,2.0294,2.0234,2.0234,2.0234,2.0147,2.0054,2.0054,1.9967,1.9873,1.9873,1.9873,1.9873,1.9873,1.9873,1.9873,1.9873,1.9873,1.9873,1.9873,1.9873,1.9873,1.9873,1.9873,1.9873,1.9873,1.9873,1.9873,1.9873,1.9586,1.9366,1.9366,1.9366,1.9366,1.9366,1.9366,1.9366,1.9366,1.9366,1.9366,1.9366,1.9366,1.9366,1.9366,1.9366,1.9366,1.9366,1.9366,1.9366,1.9366,1.9366,1.9366,1.9366,1.9366,1.9366,2.5742,2.5742,2.5742,2.5742,2.5106,2.447,2.447,2.3524,2.2639,2.2927,2.309,2.3201,2.3568,2.3636,2.3457,2.3245,2.2386,2.1562,2.0801,2.0338,1.9809,1.9482,1.9366,1.9366,1.9366,1.9366,1.9366,1.9366,1.9446,1.9579,1.9786,1.9873,2.0054,2.0347,2.0354,2.0494,2.0795,2.0795,2.0902,2.1109,2.1109,2.1109,2.1109,2.1109,2.1109,2.1109,2.1109,2.1109,2.1109,2.1109,2.1109,2.1109,2.1109,2.1109,2.1082,2.0875,2.0795,2.0768,2.0548,2.0474,2.0474,2.0474,2.0421,2.0354,2.0354,2.0301,2.0234,2.0234,2.0234,2.0234,2.0234,2.0234,2.0234,2.0234,2.0234,2.0234,2.0234,2.0234,2.0234,2.0234,2.0234,2.0234,2.0234,2.0234,2.0234,2.0234,1.9873,1.9579,1.9499,1.9419,1.9366,1.9366,1.9366,1.9366,1.9366,1.9366,1.9366,1.9366,1.9366,1.9366,1.9366,1.9366,1.9366,1.9366,1.9366,1.9366,1.9366,1.9366,1.9366,1.9366,1.9366,1.9366,2.5742,2.5742,2.5742,2.5742,2.6055,2.6367,2.6367,2.5618,2.4941,2.495,2.495,2.5068,2.5457,2.5423,2.5004,2.3953,2.3686,2.2694,1.9917,2.0694,2.1031,1.9591,1.9366,1.9366,0.0,1.9366,1.9366,1.9366,1.9626,1.9786,1.98,2.0067,2.0354,2.0655,2.0661,2.0802,2.1096,2.1096,2.1102,2.1109,2.1109,2.1109,2.1109,2.1109,2.1109,2.1109,2.1109,2.1109,2.1109,2.1109,2.1109,2.1109,2.1109,2.1109,2.1109,2.1096,2.1096,2.1096,2.1089,2.1082,2.1082,2.1082,2.0895,2.0661,2.0661,2.0461,2.0234,2.0234,2.0234,2.0234,2.0234,2.0234,2.0234,2.0234,2.0234,2.0234,2.0234,2.0234,2.0234,2.0234,2.0234,2.0234,2.0234,2.0234,2.0234,2.0234,2.0221,2.0107,1.982,1.9539,1.9366,1.9366,1.9366,1.9366,1.9366,1.9366,1.9366,1.9366,1.9366,1.9366,1.9366,1.9366,1.9366,1.9366,1.9366,1.9366,1.9366,1.9366,1.9366,1.9366,1.9366,1.9366,2.6094,2.6172,2.6172,2.6172,2.6484,2.6807,2.6807,2.6589,2.6445,2.6731,2.6788,2.6912,2.7323,2.7399,2.7223,2.6816,2.5936,2.4599,2.2597,2.1926,2.1472,2.0923,2.004,0.0,0.0,0.0,0.0,1.9639,1.9746,1.9973,2.0361,2.0474,2.0661,2.0955,2.0962,2.1009,2.1109,2.1109,2.1109,2.1109,2.1109,2.1109,2.1109,2.1109,2.1109,2.1109,2.1109,2.1109,2.1109,2.1109,2.1109,2.1109,2.1109,2.1109,2.1109,2.1109,2.1109,2.1109,2.1109,2.1109,2.1109,2.1109,2.1042,2.0962,2.0962,2.0895,2.0815,2.0815,2.0815,2.0815,2.0815,2.0815,2.0815,2.0815,2.0815,2.0815,2.0815,2.0815,2.0815,2.0815,2.0815,2.0815,2.0815,2.0815,2.0748,2.0555,2.0361,2.0194,2.01,2.0,1.9867,1.9673,1.9659,1.9579,1.9386,1.9366,1.9366,1.9366,1.9366,1.9366,1.9366,1.9366,1.9366,1.9366,1.9366,1.9366,1.9366,1.9366,1.9366,1.9366,1.9366,1.9366,2.6309,2.6387,2.6426,2.6572,2.6934,2.7246,2.7246,2.7363,2.7549,2.7832,2.7891,2.7969,2.8242,2.8291,2.8174,2.7618,2.7168,2.6155,2.4044,2.3479,2.2814,2.1692,2.1259,2.0931,0.0,0.0,0.0,1.9786,1.9993,2.0281,2.0655,2.0775,2.0915,2.1102,2.1109,2.1109,2.1109,2.1109,2.1109,2.1109,2.1109,2.1109,2.1109,2.1109,2.1109,2.1109,2.1109,2.1109,2.1109,2.1109,2.1109,2.1109,2.1109,2.1109,2.1109,2.1109,2.1109,2.1109,2.1109,2.1109,2.1109,2.1109,2.1109,2.1109,2.1109,2.1109,2.1109,2.1109,2.1109,2.1109,2.1109,2.1109,2.1109,2.1109,2.1109,2.1109,2.1109,2.1109,2.1109,2.1109,2.1109,2.1109,2.1109,2.1109,2.1042,2.0862,2.0668,2.0468,2.0261,2.0234,2.016,1.9973,1.9953,1.988,1.9693,1.9579,1.9519,1.9519,1.9426,1.9366,1.9366,1.9366,1.9366,1.9366,1.9366,1.9366,1.9366,1.9366,1.9366,1.9366,1.9366,1.9366,2.6416,2.6435,2.6553,2.6943,2.7373,2.7695,2.7695,2.8008,2.8291,2.8291,2.8291,2.8291,0.0,0.0,2.7843,2.649,2.7394,2.7286,2.4378,2.5151,2.5041,0.0,0.0,0.0,0.0,0.0,0.0,2.005,0.0,2.0681,2.0702,2.0962,2.1109,2.1109,2.1109,2.1109,2.1109,2.1109,2.1109,2.1109,2.1109,2.1109,2.1109,2.1109,2.1109,2.1109,2.1109,2.1109,2.1109,2.1109,2.1109,2.1109,2.1109,2.1109,2.1109,2.1109,2.1109,2.1109,2.1109,2.1109,2.1109,2.1109,2.1109,2.1109,2.1109,2.1109,2.1109,2.1109,2.1109,2.1109,2.1109,2.1109,2.1109,2.1109,2.1109,2.1109,2.1109,2.1109,2.1109,2.1109,2.1109,2.1109,2.1109,2.1109,2.1109,2.1109,2.1109,2.0909,2.0347,2.0274,2.0274,2.0261,2.0254,2.0247,2.0234,1.998,1.9813,1.98,1.9539,1.9379,1.9366,1.9366,1.9366,1.9366,1.9366,1.9366,1.9366,1.9366,1.9366,1.9366,1.9366,1.9366,2.6768,2.709,2.7363,2.7471,2.7822,2.8135,2.8135,2.8223,2.8291,2.8291,2.8291,2.8291,2.8291,2.8291,0.0,2.7843,2.8067,0.0,2.5827,2.5818,0.0,2.5041,0.0,2.3933,2.4378,2.4277,0.0,0.0,2.1066,2.0768,2.0989,2.1069,2.1109,2.1109,2.1109,2.1109,2.1109,2.1109,2.1109,2.1109,2.1109,2.1109,2.1109,2.1109,2.1109,2.1109,2.1109,2.1109,2.1109,2.1109,2.1109,2.1109,2.1109,2.1109,2.1109,2.1109,2.1109,2.1109,2.1109,2.1109,2.1109,2.1109,2.1109,2.1109,2.1109,2.1109,2.1109,2.1109,2.1109,2.1109,2.1109,2.1109,2.1109,2.1109,2.1109,2.1109,2.1109,2.1109,2.1109,2.1109,2.1109,2.1109,2.1109,2.1109,2.1109,2.1109,2.1109,2.1056,2.0902,2.0889,2.0802,2.0588,2.0561,2.0474,2.0254,2.0167,2.0034,1.9813,1.9733,1.9593,1.9372,1.9366,1.9366,1.9366,1.9366,1.9366,1.9366,1.9366,1.9366,1.9366,1.9366,1.9366,2.6953,2.7334,2.7715,2.7891,2.8115,2.8291,2.8291,2.8291,2.8291,2.8291,2.8291,2.8291,2.8291,2.8291,2.8291,0.0,0.0,0.0,2.7168,2.7051,2.6825,0.0,2.5936,0.0,2.5151,2.4931,2.421,0.0,2.2191,2.1673,2.1102,2.1109,2.1109,2.1109,2.1109,2.1109,2.1109,2.1109,2.1109,2.1109,2.1109,2.1109,2.1109,2.1109,2.1109,2.1109,2.1109,2.1109,2.1109,2.1109,2.1109,2.1109,2.1109,2.1109,2.1109,2.1109,2.1109,2.1109,2.1109,2.1109,2.1109,2.1109,2.1109,2.1109,2.1109,2.1109,2.1109,2.1109,2.1109,2.1109,2.1109,2.1109,2.1109,2.1109,2.1109,2.1109,2.1109,2.1109,2.1109,2.1109,2.1109,2.1109,2.1109,2.1109,2.1109,2.1109,2.1109,2.1109,2.1109,2.1109,2.1049,2.0882,2.0869,2.0795,2.0628,2.0501,2.0354,2.0194,2.006,1.986,1.9573,1.9559,1.9499,1.9372,1.9366,1.9366,1.9366,1.9366,1.9366,1.9366,1.9366,1.9366,2.7012,2.7373,2.7832,2.8203,2.8291,2.8291,2.8291,2.8291,2.8291,2.8291,2.8291,2.8291,2.8291,2.8291,2.8291,2.8291,0.0,2.8291,2.8291,2.8291,2.7843,2.649,2.7501,2.7286,2.4599,2.4939,2.4678,2.2944,2.368,2.3325,2.1235,2.1109,2.1109,2.1109,2.1109,2.1109,2.1109,2.1109,2.1109,2.1109,2.1109,2.1109,2.1109,2.1109,2.1109,2.1109,2.1109,2.1109,2.1109,2.1109,2.1109,2.1109,2.1109,2.1109,2.1109,2.1109,2.1109,2.1109,2.1109,2.1109,2.1109,2.1109,2.1109,2.1109,2.1109,2.1109,2.1109,2.1109,2.1109,2.1109,2.1109,2.1109,2.1109,2.1109,2.1109,2.1109,2.1109,2.1109,2.1109,2.1109,2.1109,2.1109,2.1109,2.1109,2.1109,2.1109,2.1109,2.1109,2.1109,2.1109,2.1109,2.1109,2.1109,2.1109,2.1109,2.0882,2.0715,2.0681,2.0434,2.016,1.9867,1.982,1.9679,1.9432,1.9386,1.9366,1.9366,1.9366,1.9366,1.9366,1.9366,1.9366,2.7012,2.7588,2.8203,2.8271,2.8291,2.8291,2.8291,2.8291,2.8291,2.8291,2.8291,2.8291,2.8291,2.8291,2.8291,2.8291,2.8291,2.8291,2.8291,2.8291,2.8184,0.0,2.8174,2.8067,2.7618,2.8262,0.0,0.0,2.6296,2.5619,2.1355,2.1109,2.1109,2.1109,2.1109,2.1109,2.1109,2.1109,2.1109,2.1109,2.1109,2.1109,2.1109,2.1109,2.1109,2.1109,2.1109,2.1109,2.1109,2.1109,2.1109,2.1109,2.1109,2.1109,2.1109,2.1109,2.1109,2.1109,2.1109,2.1109,2.1109,2.1109,2.1109,2.1109,2.1109,2.1109,2.1109,2.1109,2.1109,2.1109,2.1109,2.1109,2.1109,2.1109,2.1109,2.1109,2.1109,2.1109,2.1109,2.1109,2.1109,2.1109,2.1109,2.1109,2.1109,2.1109,2.1109,2.1109,2.1109,2.1109,2.1109,2.1109,2.1109,2.1109,2.1109,2.1062,2.0935,2.0688,2.0628,2.0468,2.0174,1.9927,1.9773,1.9726,1.9492,1.9366,1.9366,1.9366,1.9366,1.9366,1.9366,1.9366,2.7295,2.7812,2.8291,2.8291,2.8291,2.8291,2.8291,2.8291,2.8291,2.8291,2.8291,2.8291,2.8291,2.8291,2.8291,2.8291,2.8291,2.8291,2.8291,2.8291,2.8291,2.8291,2.8291,2.8291,2.8291,2.8262,2.7701,2.6071,2.6652,2.5741,2.2591,2.2341,2.2341,2.2341,2.1601,2.1109,2.1109,2.1109,2.1109,2.1109,2.1109,2.1109,2.1109,2.1109,2.1109,2.1109,2.1109,2.1109,2.1109,2.1109,2.1109,2.1109,2.1109,2.1109,2.1109,2.1109,2.1109,2.1109,2.1109,2.1109,2.1109,2.1109,2.1109,2.1109,2.1109,2.1109,2.1109,2.1109,2.1109,2.1109,2.1109,2.1109,2.1109,2.1109,2.1109,2.1109,2.1109,2.1109,2.1109,2.1109,2.1109,2.1109,2.1109,2.1109,2.1109,2.1109,2.1109,2.1109,2.1109,2.1109,2.1109,2.1109,2.1109,2.1109,2.1109,2.1109,2.1049,2.0909,2.0902,2.0768,2.0474,2.0327,2.0114,1.9806,1.9659,1.9519,1.9366,1.9366,1.9366,1.9366,1.9366,1.9366,2.7432,2.79,2.8291,2.8291,2.8291,2.8291,2.8291,2.8291,2.8291,2.8291,2.8291,2.8291,2.8291,2.8291,2.8291,0.0,2.8291,2.8291,2.8291,2.8291,2.8291,2.8291,2.8291,0.0,2.8291,2.792,0.0,2.7131,2.677,2.5863,2.4178,2.4054,2.4054,2.4054,2.2827,2.1964,2.1601,2.1601,2.1481,2.1109,2.1109,2.1109,2.1109,2.1109,2.1109,2.1109,2.1109,2.1109,2.1109,2.1109,2.1109,2.1109,2.1109,2.1109,2.1109,2.1109,2.1109,2.1109,2.1109,2.1109,2.1109,2.1109,2.1109,2.1109,2.1109,2.1109,2.1109,2.1109,2.1109,2.1109,2.1109,2.1109,2.1109,2.1109,2.1109,2.1109,2.1109,2.1109,2.1109,2.1109,2.1109,2.1109,2.1109,2.1109,2.1109,2.1109,2.1109,2.1109,2.1109,2.1109,2.1109,2.1109,2.1109,2.1109,2.1109,2.1109,2.1109,2.1109,2.1109,2.1009,2.0775,2.0708,2.0461,2.0,1.9867,1.9686,1.9459,1.9399,1.9366,1.9366,1.9366,1.9366,2.706,2.7676,2.8291,2.8291,2.8291,2.8291,2.8291,2.8291,2.8291,2.8291,2.8291,2.8291,2.8291,2.8291,2.8291,0.0,0.0,2.8291,2.8291,2.8291,2.8291,2.8291,0.0,0.0,2.8291,2.8953,2.8756,2.7245,2.7732,2.7443,2.5863,2.5741,2.5741,2.5741,2.5619,2.4893,2.3325,2.3325,2.2591,2.1109,2.1109,2.1109,2.1109,2.1109,2.1109,2.1109,2.1109,2.1109,2.1109,2.1109,2.1109,2.1109,2.1109,2.1109,2.1109,2.1109,2.1109,2.1109,2.1109,2.1109,2.1109,2.1109,2.1109,2.1109,2.1109,2.1109,2.1109,2.1109,2.1109,2.1109,2.1109,2.1109,2.1109,2.1109,2.1109,2.1109,2.1109,2.1109,2.1109,2.1109,2.1109,2.1109,2.1109,2.1109,2.1109,2.1109,2.1109,2.1109,2.1109,2.1109,2.1109,2.1109,2.1109,2.1109,2.1109,2.1109,2.1109,2.1109,2.1109,2.1096,2.1069,2.0815,2.0648,2.0595,2.0074,1.9786,1.976,1.9499,1.9366,1.9366,1.9366,1.9366,2.7334,2.7842,2.8291,2.8291,2.8291,2.8291,2.8291,2.8291,2.8291,2.8291,2.8291,2.8291,2.8291,2.8291,2.8291,0.0,0.0,0.0,2.8291,2.8291,2.8291,2.8291,2.8291,2.8291,0.0,0.0,2.956,2.9373,2.9713,2.9658,2.9039,2.794,2.7443,2.7443,2.647,2.5261,2.3574,2.3574,2.2709,2.1109,2.1109,2.1109,2.1109,2.1109,2.1109,2.1109,2.1109,2.1109,2.1109,2.1109,2.1109,2.1109,2.1109,2.1109,2.1109,2.1109,2.1109,2.1109,2.1109,2.1109,2.1109,2.1109,2.1109,2.1109,2.1109,2.1109,2.1109,2.1109,2.1109,2.1109,2.1109,2.1109,2.1109,2.1109,2.1109,2.1109,2.1109,2.1109,2.1109,2.1109,2.1109,2.1109,2.1109,2.1109,2.1109,2.1109,2.1109,2.1109,2.1109,2.1109,2.1109,2.1109,2.1109,2.1109,2.1109,2.1109,2.1109,2.1109,2.1109,2.1109,2.1109,2.0995,2.0855,2.0681,2.0448,2.0154,1.98,1.9686,1.9539,1.9366,1.9366,1.9366,2.7549,2.7969,2.8291,2.8291,2.8291,2.8291,2.8291,2.8291,2.8291,2.8291,2.8291,2.8291,2.8291,2.8291,2.8291,0.0,0.0,2.8291,2.8291,2.8291,2.8291,2.8291,0.0,2.8291,2.8291,2.9062,2.9941,3.082,3.0889,3.0889,3.0889,2.9776,2.9157,2.9157,2.8059,2.672,2.5032,2.454,2.3442,2.1853,2.1355,2.1109,2.1109,2.1109,2.1109,2.1109,2.1109,2.1109,2.1109,2.1109,2.1109,2.1109,2.1109,2.1109,2.1109,2.1109,2.1109,2.1109,2.1109,2.1109,2.1109,2.1109,2.1109,2.1109,2.1109,2.1109,2.1109,2.1109,2.1109,2.1109,2.1109,2.1109,2.1109,2.1109,2.1109,2.1109,2.1109,2.1109,2.1109,2.1109,2.1109,2.1109,2.1109,2.1109,2.1109,2.1109,2.1109,2.1109,2.1109,2.1109,2.1109,2.1109,2.1109,2.1109,2.1109,2.1109,2.1109,2.1109,2.1109,2.1109,2.1109,2.1109,2.1009,2.0808,2.0722,2.0474,2.006,1.9887,1.9693,1.9492,1.9406,1.9366,2.7549,2.7969,2.8291,2.8291,2.8291,2.8291,2.8291,2.8291,2.8291,2.8291,2.8291,2.8291,2.8291,2.8291,2.8291,0.0,0.0,0.0,2.8291,2.8291,2.8291,2.8291,2.8291,2.8291,2.8291,2.9062,2.9941,3.082,3.0889,3.0889,3.0889,3.0889,3.0889,3.0889,3.0889,3.002,2.8417,2.6712,2.5138,2.3574,2.1846,2.1109,2.1109,2.1109,2.1109,2.1109,2.1109,2.1109,2.1109,2.1109,2.1109,2.1109,2.1109,2.1109,2.1109,2.1109,2.1109,2.1109,2.1109,2.1109,2.1109,2.1109,2.1109,2.1109,2.1109,2.1109,2.1109,2.1109,2.1109,2.1109,2.1109,2.1109,2.1109,2.1109,2.1109,2.1109,2.1109,2.1109,2.1109,2.1109,2.1109,2.1109,2.1109,2.1109,2.1109,2.1109,2.1109,2.1109,2.1109,2.1109,2.1109,2.1109,2.1109,2.1109,2.1109,2.1109,2.1109,2.1109,2.1109,2.1109,2.1109,2.1109,2.1109,2.1109,2.0822,2.0675,2.0668,2.0087,1.98,1.9786,1.9499,1.9366,2.7549,2.7969,2.8291,2.8291,2.8291,2.8291,2.8291,2.8291,2.8291,2.8291,2.8291,2.8291,2.8291,2.8291,2.8291,2.8291,0.0,0.0,2.8291,2.8291,2.8291,2.8291,2.8291,2.8408,2.8691,2.9238,2.9805,3.0371,3.0713,3.0889,3.0889,3.0889,3.0889,3.0889,3.0889,2.954,2.6832,2.6219,2.4648,2.1846,2.1355,2.1109,2.1109,2.1109,2.1109,2.1109,2.1109,2.1109,2.1109,2.1109,2.1109,2.1109,2.1109,2.1109,2.1109,2.1109,2.1109,2.1109,2.1109,2.1109,2.1109,2.1109,2.1109,2.1109,2.1109,2.1109,2.1109,2.1109,2.1109,2.1109,2.1109,2.1109,2.1109,2.1109,2.1109,2.1109,2.1109,2.1109,2.1109,2.1109,2.1109,2.1109,2.1109,2.1109,2.1109,2.1109,2.1109,2.1109,2.1109,2.1109,2.1109,2.1109,2.1109,2.1109,2.1109,2.1109,2.1109,2.1109,2.1109,2.1109,2.1109,2.1109,2.1109,2.1109,2.1022,2.0875,2.0675,2.0287,1.9887,1.9499,1.9412,1.9366,2.7549,2.7969,2.8291,2.8291,2.8291,2.8291,2.8291,2.8291,2.8291,2.8291,2.8291,2.8291,2.8291,2.8291,2.8291,2.8291,2.8291,2.8291,2.8291,2.8291,2.8291,2.8291,2.8291,2.8457,2.8877,2.9316,2.9746,3.0166,3.0625,3.0889,3.0889,3.0889,3.0889,3.0889,3.0889,2.9903,2.782,2.6591,2.5008,2.2937,2.172,2.1109,2.1109,2.1109,2.1109,2.1109,2.1109,2.1109,0.0,2.1109,2.1109,2.1109,2.1109,2.1109,2.1109,2.1109,2.1109,2.1109,2.1109,2.1109,2.1109,2.1109,2.1109,2.1109,2.1109,2.1109,2.1109,2.1109,2.1109,2.1109,2.1109,2.1109,2.1109,2.1109,2.1109,2.1109,2.1109,2.1109,2.1109,2.1109,2.1109,2.1109,2.1109,2.1109,2.1109,2.1109,2.1109,2.1109,2.1109,2.1601,2.2097,2.2097,2.2577,2.2702,2.2097,2.1481,2.1109,2.1109,2.1109,2.1109,2.1109,2.1109,2.1109,2.1109,2.1109,2.1022,2.0842,2.0428,1.9993,1.9533,1.9419,1.9366,0.0,2.7949,2.8291,2.8291,2.8291,2.8291,2.8291,2.8291,0.0,2.8291,2.8291,2.8291,2.8291,2.8291,2.8291,2.8291,2.8291,2.8291,2.8291,2.8291,2.8291,2.8291,2.8291,2.8447,2.8838,2.9297,2.9726,3.0127,3.0615,3.0889,3.0889,3.0889,3.0889,3.0889,3.0889,3.0889,3.0762,2.7572,2.5976,2.5733,2.2577,2.1109,2.1109,2.1109,2.1109,2.1109,2.1109,2.1109,2.1109,2.1109,2.1109,2.1109,2.1109,2.1109,2.1109,2.1109,2.1109,2.1109,2.1109,2.1109,2.1109,2.1109,2.1109,2.1109,2.1109,2.1109,2.1109,2.1109,2.1109,2.1109,2.1109,2.1109,2.1109,2.1109,2.1109,2.1109,2.1109,2.1109,2.1109,2.1109,2.1109,2.1109,2.1109,2.1109,2.1109,2.1109,2.1235,2.1229,2.1229,2.2584,2.3698,2.3814,2.4893,2.513,2.369,2.2223,2.1229,2.1109,2.1109,2.1109,2.1109,2.1109,2.1109,2.1109,2.1109,2.1096,2.1076,2.0528,2.0107,1.9793,1.9519,1.9386,2.7139,0.0,2.8291,2.8291,2.8291,2.8291,0.0,0.0,0.0,0.0,0.0,2.8291,2.8291,2.8291,2.8291,2.8291,2.8291,2.8291,2.8291,2.8291,2.8291,2.8291,2.8291,2.833,2.8428,2.9131,2.9609,2.9707,3.0449,3.0889,3.0889,3.0889,3.0889,3.0889,3.0889,3.0274,2.9039,2.6953,2.5375,2.4178,2.209,2.1109,2.1109,2.1109,2.1109,2.1109,2.1109,2.1109,2.1109,2.1109,2.1109,2.1109,2.1109,2.1109,2.1109,2.1109,2.1109,2.1109,2.1109,2.1109,2.1109,2.1109,2.1109,2.1109,2.1109,2.1109,2.1109,2.1109,2.1109,2.1109,2.1109,2.1109,2.1109,2.1109,2.1109,2.1109,2.1109,2.1109,2.1109,2.1109,2.1109,2.1109,2.1109,2.1109,2.1109,2.1109,2.2223,2.2959,2.2959,2.3325,2.4054,2.5261,2.3551,2.2584,2.3574,2.3201,2.2466,2.1229,2.1109,2.1109,2.1109,2.1109,2.1109,2.1109,2.1109,2.1002,2.0775,2.0641,2.0307,1.98,1.9733,1.9579,2.6963,2.7646,2.8291,2.8291,2.8291,2.8291,2.8291,0.0,0.0,0.0,0.0,2.8291,2.8291,2.8291,2.8291,2.8291,2.8291,2.8291,2.8291,2.8291,2.8291,2.8291,2.8291,2.8291,2.8291,2.8887,2.9355,2.9551,3.0195,3.0664,3.0879,3.0889,3.0889,3.0889,3.0889,3.0518,2.953,2.7202,2.5619,2.4655,2.2208,2.1109,2.1109,2.1109,2.1109,2.1109,2.1109,2.1109,2.1109,2.1109,2.1109,2.1109,2.1109,2.1109,2.1109,2.1109,2.1109,2.1109,2.1109,2.1109,2.1109,2.1109,2.1109,2.1109,2.1109,2.1109,2.1109,2.1109,2.1109,2.1109,2.1109,2.1109,2.1109,2.1109,2.1109,2.1109,2.1109,2.1109,2.1109,2.1109,2.1109,2.1109,2.1109,2.1109,2.1109,2.1109,2.2591,2.3574,2.3574,2.4909,2.6114,2.6953,2.5497,2.4532,2.4655,2.4054,2.2834,2.1235,2.1109,2.1109,2.1109,2.1109,2.1109,2.1109,2.1109,2.1036,2.0875,2.0742,2.0514,2.0194,1.9927,1.972,2.6904,2.7588,2.8213,2.8271,2.8291,2.8291,2.8291,0.0,0.0,0.0,0.0,0.0,2.8291,2.8291,0.0,0.0,2.8291,2.8291,2.8291,2.8291,2.8291,2.8291,2.8291,2.8291,2.8291,2.8672,2.9072,2.9443,2.9922,3.0371,3.0762,3.085,3.0889,3.0889,3.0889,3.0889,3.0889,2.794,2.634,2.634,2.3069,2.1481,2.1481,2.1235,2.1109,2.1109,2.1109,2.1109,2.1109,2.1109,2.1109,2.1109,2.1109,2.1109,2.1109,2.1109,2.1109,2.1109,2.1109,2.1109,2.1109,2.1109,2.1109,2.1109,2.1109,2.1109,2.1109,2.1109,2.1109,2.1109,2.1109,2.1109,2.1109,2.1109,2.1109,2.1109,2.1109,2.1109,2.1109,2.1109,2.1109,2.1109,2.1109,2.1109,2.1235,2.1481,2.2959,2.4062,2.4301,2.672,2.8417,2.8417,2.7931,2.7082,2.5741,2.417,2.2584,2.1235,2.1109,2.1109,2.1109,2.1109,2.1109,2.1109,2.1109,2.1109,2.1109,2.0862,2.0722,2.0668,2.0167,1.9907,2.6904,2.7383,2.7851,2.8203,2.8291,2.8291,2.8291,0.0,0.0,0.0,0.0,0.0,0.0,2.8291,2.8291,0.0,2.8291,2.8291,2.8291,2.8291,2.8291,2.8291,2.8291,2.8291,2.8291,2.8672,2.8945,2.9014,2.9746,3.0225,3.0303,3.0674,3.0889,3.0889,3.0889,3.0889,3.0889,2.903,2.8051,2.7931,2.4778,2.3208,2.3208,2.1727,2.1109,2.1109,2.1109,2.1109,2.1109,2.1109,2.1109,2.1109,2.1109,2.1109,2.1109,2.1109,2.1109,2.1109,2.1109,2.1109,2.1109,2.1109,2.1109,2.1109,2.1109,2.1109,2.1109,2.1109,2.1109,2.1109,2.1109,2.1109,2.1109,2.1109,2.1109,2.1109,2.1109,2.1109,2.1109,2.1109,2.1109,2.1109,2.1109,2.1109,2.1601,2.2959,2.4532,2.6106,2.7452,2.8059,2.8417,2.8417,2.6001,2.4301,2.3938,2.2459,2.1355,2.1109,2.1109,2.1109,2.1109,2.1109,2.1109,2.1109,2.1109,2.1109,2.1109,2.1069,2.0915,2.0675,2.0581,2.0408,2.6836,2.7168,2.7471,2.8135,2.8291,2.8291,2.8291,2.8291,0.0,0.0,0.0,0.0,0.0,0.0,2.8291,2.8291,2.8291,2.8291,2.8291,2.8291,2.8291,2.8291,2.8291,2.8291,2.8291,2.8467,2.8672,2.8896,2.9287,2.9609,2.9844,3.0273,3.0518,3.0518,3.0762,3.0889,3.0889,3.0147,2.9285,2.8417,2.5993,2.4901,2.4901,2.3193,2.2466,2.2341,2.1481,2.1109,2.1109,2.1109,2.1109,2.1109,2.1109,2.1109,2.1109,2.1109,2.1109,2.1109,2.1109,2.1109,2.1109,2.1109,2.1109,2.1109,2.1109,2.1109,2.1109,2.1109,2.1109,2.1109,2.1109,2.1109,2.1109,2.1109,2.1109,2.1109,2.1109,2.1109,2.1109,2.1109,2.1109,2.1109,2.1109,2.1109,2.1727,2.3325,2.4178,2.5627,2.8051,2.8417,2.8792,2.9648,2.6849,2.4901,2.4901,2.2577,2.1109,2.1109,2.1109,2.1109,2.1109,2.1109,2.1109,2.1109,2.1109,2.1109,2.1109,2.1109,2.1042,2.0909,2.0748,2.0601,2.6777,2.7012,2.7217,2.8076,2.8291,2.8291,2.8291,2.8291,0.0,0.0,0.0,0.0,0.0,2.8291,2.8291,2.8291,2.8291,2.8291,2.8291,2.8291,2.8291,2.8291,2.8291,2.8291,2.8291,2.8291,2.8428,2.875,2.8867,2.9062,2.9404,2.9814,3.0049,3.0049,3.04,3.0586,3.0586,3.0586,3.0073,2.8911,2.7323,2.634,2.5984,2.4294,2.345,2.2959,2.1601,2.1109,2.1109,2.1109,2.1109,2.1109,2.1109,2.1109,2.1109,2.1109,2.1109,2.1109,2.1109,2.1109,2.1109,2.1109,2.1109,2.1109,2.1109,2.1109,2.1109,2.1109,2.1109,2.1109,2.1109,2.1109,2.1109,2.1109,2.1109,2.1109,2.1109,2.1109,2.1109,2.1109,2.1109,2.1109,2.1109,2.1109,2.1853,2.3807,2.4178,2.5269,2.8545,2.903,2.9157,2.9658,2.7452,2.5741,2.4885,2.2944,2.1481,2.1109,2.1481,2.1727,2.1727,2.1355,2.1109,2.1109,2.1109,2.1109,2.1109,2.1109,2.1109,2.1109,2.0882,2.0775,2.6777,2.7012,2.7217,2.8076,2.8291,0.0,2.8291,2.8291,0.0,2.8291,0.0,0.0,0.0,2.8291,2.8291,2.8291,2.8291,2.8291,2.8291,2.8291,2.8291,2.8291,2.8291,2.8291,2.8291,2.8291,2.8301,2.834,2.8701,2.8926,2.8965,2.9375,2.9619,2.9619,2.9648,2.9668,2.9668,2.9668,3.0078,3.0645,2.9039,2.7443,2.5984,2.4294,2.2709,2.1229,2.1109,2.1109,2.1109,2.1109,2.1109,2.1109,2.1109,2.1109,2.1109,2.1109,2.1109,2.1109,2.1109,2.1109,2.1109,2.1109,2.1109,2.1109,2.1109,2.1109,2.1109,2.1109,2.1109,2.1109,2.1109,2.1109,2.1109,2.1109,2.1109,2.1109,2.1109,2.1109,2.1109,2.1109,2.1109,2.1109,2.1109,2.1109,2.2208,2.5375,2.5863,2.6961,3.0274,3.0762,2.9658,2.6712,2.6098,2.4763,2.172,2.2709,2.2709,2.1235,2.2591,2.345,2.345,2.1978,2.1109,2.1109,2.1109,2.1109,2.1109,2.1109,2.1109,2.1109,2.1089,2.1076,2.6777,2.7012,2.7217,2.8076,2.8291,0.0,0.0,2.8291,2.8291,2.8291,2.8291,0.0,0.0,0.0,2.8291,2.8291,2.8291,2.8291,2.8291,2.8291,2.8291,2.8291,2.8291,2.8291,2.8291,2.8291,2.8291,2.8291,2.8437,2.8535,2.8535,2.8935,2.917,2.917,2.9434,2.957,2.957,2.957,2.9736,3.0068,2.946,2.8275,2.6746,2.5308,2.3848,2.2305,2.1519,2.1109,2.1109,2.1109,2.1109,2.1109,2.1109,2.1109,2.1109,2.1109,2.1109,2.1109,2.1109,2.1109,2.1109,2.1109,2.1109,2.1109,2.1109,2.1109,2.1109,2.1109,2.1109,2.1109,2.1109,2.1109,2.1109,2.1109,2.1109,2.1109,2.1109,2.1109,2.1109,2.1109,2.1109,2.1109,2.1109,2.1971,2.3076,2.4294,2.454,2.5635,2.892,2.8426,2.8179,2.892,2.8059,2.6591,2.4401,2.477,2.477,2.4155,2.3807,2.3084,2.2097,2.1481,2.1109,2.1109,2.1109,2.1109,2.1109,2.1109,2.1109,2.1109,2.1109,2.1109,2.6816,2.7119,2.7393,0.0,0.0,0.0,2.8291,2.8291,2.8291,2.8291,2.8291,2.8291,2.8291,0.0,0.0,2.8291,2.8291,2.8291,2.8291,2.8291,2.8291,2.8291,2.8291,2.8291,2.8291,2.8291,2.8291,2.8291,2.8291,2.8291,2.8291,2.8564,2.8721,2.8721,2.9014,2.917,2.917,2.917,2.917,2.917,2.8699,2.78,2.6549,2.5159,2.3623,2.2097,2.1224,2.0835,2.0835,2.0835,2.0835,2.0835,2.0835,2.0835,2.0835,2.0835,2.0835,2.0835,2.0835,2.0895,2.0969,2.0969,2.1036,2.1109,2.1109,2.1109,2.1109,2.1109,2.1109,2.1109,2.1109,2.1109,2.1109,2.1109,2.1109,2.1109,2.1109,2.1109,2.1109,2.1109,2.1109,2.1235,2.1853,2.2834,2.3938,2.4909,2.5146,2.6122,2.8792,2.8179,2.8188,2.9903,2.8664,2.7194,2.6098,2.5976,2.5741,2.5253,2.4178,2.3084,2.1971,2.1355,2.1109,2.1109,2.1109,2.1109,2.1109,2.1109,2.1109,2.1109,2.1109,2.1109,2.6904,2.7334,2.7773,0.0,0.0,0.0,2.8291,2.8291,2.8291,2.8291,2.8291,2.8291,2.8291,2.8291,0.0,2.8291,2.8291,2.8291,2.8291,2.8291,2.8291,2.8291,2.8291,2.8291,2.8291,2.8291,2.8291,2.8291,2.8291,2.8291,2.8291,2.8291,2.8291,2.8291,2.8291,2.8291,2.8291,2.8291,2.8291,2.8291,2.6825,2.5663,2.4887,2.3394,2.1766,2.0227,2.0234,2.0234,2.0234,2.0234,2.0234,2.0234,2.0234,2.0234,2.0234,2.0234,2.0234,2.0234,2.0234,2.0428,2.0675,2.0675,2.0869,2.1109,2.1109,2.1109,2.1109,2.1109,2.1109,2.1109,2.1109,2.1109,2.1109,2.1109,2.1109,2.1109,2.1109,2.1109,2.1109,2.1109,2.1109,2.1601,2.3325,2.3574,2.4663,2.7931,2.8417,2.9039,3.0645,3.0889,3.0265,2.8545,2.6953,2.6098,2.5976,2.5976,2.5253,2.3698,2.3574,2.3574,2.3574,2.1971,2.1109,2.1109,2.1109,2.1109,2.1109,2.1109,2.1109,2.1109,2.1109,2.1109,2.6904,2.7334,0.0,2.8193,0.0,0.0,0.0,2.8291,0.0,0.0,2.8291,2.8291,2.8291,2.8291,0.0,2.8291,2.8291,2.8291,2.8291,2.8291,2.8291,2.8291,2.8291,2.8291,2.8291,2.8291,2.8291,2.8291,2.8291,2.8291,2.8291,2.8291,2.8291,2.8291,2.8291,2.8291,2.8291,2.8291,2.7736,2.6717,2.516,2.4384,2.4039,2.2806,2.1421,1.994,2.014,2.0234,2.0234,2.0234,2.0234,2.0234,2.0234,2.0234,2.0234,2.0234,2.0234,2.0234,2.0234,2.0294,2.0368,2.0368,2.0561,2.0808,2.0808,2.0949,2.1109,2.1109,2.1109,2.1109,2.1109,2.1109,2.1109,2.1109,2.1109,2.1109,2.1109,2.1109,2.1109,2.1109,2.2097,2.2959,2.345,2.5513,2.6961,2.6712,2.7683,2.8545,2.9039,3.0147,3.0762,3.0265,2.9776,2.892,2.7811,2.6712,2.5253,2.3698,2.2466,2.1846,2.1846,2.1355,2.1109,2.1109,2.1109,2.1109,2.1109,2.1109,2.1109,2.1109,2.1109,2.1109,2.6943,2.7451,0.0,2.8232,2.8291,2.8291,2.8291,0.0,0.0,0.0,2.8291,2.8291,2.8291,2.8291,0.0,2.8291,2.8291,2.8291,2.8291,2.8291,2.8291,2.8291,2.8291,2.8291,2.8291,2.8291,2.8291,2.8291,2.8291,2.8291,2.8291,2.8291,2.8291,2.8291,2.8291,2.8291,2.8291,2.8291,2.7511,2.6045,2.4488,2.3487,2.2934,2.1565,2.0529,1.9639,1.9813,1.9887,1.9887,1.9887,1.9887,1.9887,1.9887,1.9887,1.9887,1.9887,1.9887,1.9887,1.9887,1.9967,2.006,2.006,2.0261,2.0521,2.0641,2.0802,2.0962,2.1076,2.1109,2.1109,2.1109,2.1109,2.1109,2.1109,2.1109,2.1109,2.1109,2.1109,2.1355,2.1971,2.2959,2.4062,2.5269,2.7091,2.8298,2.794,2.8792,2.9403,2.9403,3.0274,3.0889,3.0889,3.0274,2.953,2.8536,2.6357,2.4655,2.3698,2.1971,2.1109,2.1109,2.1109,2.1109,2.1109,2.1109,2.1109,2.1109,2.1109,2.1109,2.1109,2.1109,2.1109,2.706,2.7676,2.8291,2.8291,2.8291,0.0,2.8291,2.8291,2.8291,2.8291,0.0,2.8291,2.8291,2.8291,2.8291,2.8291,2.8291,2.8291,2.8291,2.8291,2.8291,2.8291,2.8291,2.8291,2.8291,2.8291,2.8291,2.8291,2.8291,2.8291,2.8291,2.8291,2.8291,2.8291,2.8291,2.8291,2.8291,2.8184,2.7394,2.5818,2.4378,2.2822,2.1358,2.0033,1.9366,1.9366,1.9366,1.9366,1.9366,1.9366,1.9366,1.9366,1.9366,1.9366,1.9366,1.9366,1.9366,1.9366,1.9366,1.9539,1.976,1.976,1.9953,2.0247,2.0514,2.0635,2.0728,2.0995,2.1089,2.1109,2.1109,2.1109,2.1109,2.1109,2.1235,2.1355,2.1355,2.1475,2.1964,2.3566,2.3938,2.4909,2.7931,2.8536,2.9157,3.0645,3.0889,3.0889,3.0889,3.0772,3.0645,3.0645,2.9157,2.817,2.7931,2.5269,2.3574,2.3325,2.1971,2.1109,2.1109,2.1109,2.1109,2.1109,2.1109,2.1109,2.1109,2.1109,2.1109,2.1109,2.1109,2.1109,2.7432,2.79,0.0,2.8291,2.8291,2.8291,2.8291,2.8291,2.8291,2.8291,2.8291,2.8291,2.8291,2.8291,2.8291,2.8291,2.8291,2.8291,2.8291,2.8291,2.8291,2.8291,2.8291,2.8291,2.8291,2.8291,2.8291,2.8291,2.8291,2.8291,2.8291,2.8291,2.8291,2.8291,2.8291,2.8291,2.8291,2.7159,2.5827,2.4267,2.2814,2.1252,1.9809,1.9591,1.9366,1.9366,1.9366,1.9366,1.9366,1.9366,1.9366,1.9366,1.9366,1.9366,1.9366,1.9366,1.9366,1.9366,1.9366,1.9406,1.9459,1.9459,1.9659,1.9907,1.9967,2.0307,2.0688,2.0755,2.0935,2.1109,2.1109,2.1109,2.1109,2.1109,2.2097,2.3084,2.3084,2.4047,2.5008,2.5375,2.647,2.7572,2.8298,2.953,3.0518,3.0889,3.0889,3.0889,3.0889,2.9776,2.8911,2.8911,2.7443,2.5984,2.4786,2.4062,2.3084,2.1727,2.1355,2.1109,2.1109,2.1109,2.1109,2.1109,2.1109,2.1109,2.1109,2.1109,2.1109,2.1109,2.1109,2.1109,2.7607,2.7969,2.8291,2.8291,0.0,2.8291,2.8291,2.8291,2.8291,2.8291,2.8291,2.8291,2.8291,2.8291,2.8291,2.8291,2.8291,2.8291,2.8291,2.8291,2.8291,2.8291,2.8291,2.8291,2.8291,2.8291,2.8291,2.8291,2.8291,2.8291,2.8291,2.8291,2.8291,2.8291,2.7609,2.7609,2.8291,2.6054,2.4599,2.3822,2.2258,2.0809,1.9366,1.9366,1.9366,1.9366,1.9366,1.9366,1.9366,1.9366,1.9366,1.9366,1.9366,1.9366,1.9366,1.9366,1.9366,1.9366,1.9366,1.9366,1.9366,1.9366,1.9466,1.9619,1.976,2.0013,2.0287,2.0428,2.0675,2.0902,2.0902,2.1002,2.1109,2.1109,2.1727,2.2591,2.345,2.4294,2.5261,2.6832,2.7811,2.8664,2.9403,3.0274,3.0889,3.0889,3.0889,3.0645,2.9776,2.8911,2.8051,2.7323,2.5871,2.4532,2.369,2.2834,2.1971,2.1109,2.1109,2.1109,2.1109,2.1109,2.1109,2.1109,2.1109,2.1109,2.1109,2.1109,2.1109,2.1109,2.1109,2.1109,2.7754,2.8027,2.8291,2.8291,2.8291,0.0,2.8291,2.8291,2.8291,2.8291,2.8291,2.8291,2.8291,2.8291,2.8291,2.8291,2.8291,2.8291,2.8291,2.8291,2.8291,2.8291,2.8291,2.8291,2.8291,2.8291,2.8291,2.8291,2.8291,2.8291,2.8291,2.8291,2.8291,2.8291,2.7168,2.7051,2.8291,2.5608,2.4156,2.4156,2.2476,2.0923,1.9815,1.9482,1.9366,1.9366,1.9366,1.9366,1.9366,1.9366,1.9366,1.9366,1.9366,1.9366,1.9366,1.9366,1.9366,1.9366,1.9366,1.9366,1.9366,1.9366,1.9366,1.9412,1.9653,1.976,1.9853,2.0094,2.0368,2.0608,2.0661,2.0855,2.1049,2.1096,2.1109,2.1601,2.3566,2.4178,2.5269,2.8298,2.8792,2.9285,3.0645,3.0889,3.0762,3.0518,3.0518,2.9903,2.8179,2.7692,2.7082,2.5741,2.417,2.3208,2.3208,2.1846,2.1109,2.1109,2.1109,2.1109,2.1109,2.1109,2.1109,2.1109,2.1109,2.1109,2.1109,2.1109,2.1109,2.1109,2.1109,2.1082,2.8115,2.8252,2.8291,2.8291,2.8291,2.8291,0.0,0.0,2.8291,2.8291,2.8291,2.8291,2.8291,2.8291,2.8291,2.8291,2.8291,2.8291,2.8291,2.8291,2.8291,2.8291,2.8291,2.8291,2.8291,2.8291,2.8291,2.8291,2.8291,2.8291,2.8291,2.8291,2.8291,2.8291,2.8067,2.8067,2.8291,2.6608,2.5818,2.5709,2.2919,2.1472,2.1252,2.004,1.9366,1.9366,1.9366,1.9366,1.9366,1.9366,1.9366,1.9366,1.9366,1.9366,1.9366,1.9366,1.9366,1.9366,1.9366,1.9366,1.9366,1.9366,1.9366,1.9372,1.9412,1.9599,1.9806,1.9846,2.0067,2.0347,2.0608,2.0708,2.0802,2.1049,2.1109,2.1964,2.5008,2.6712,2.8307,3.0147,3.0528,3.0645,3.0889,3.0889,3.0401,2.8911,2.8783,2.8179,2.6591,2.5146,2.4178,2.3938,2.2466,2.1481,2.1481,2.1229,2.1109,2.1109,2.1109,2.1109,2.1109,2.1109,2.1109,2.1109,2.1109,2.1109,2.1109,2.1109,2.1109,2.1109,2.1109,2.0975,2.8242,2.8291,2.8291,2.8291,2.8291,2.8291,2.8291,2.8291,2.8291,2.8291,2.8291,2.8291,2.8291,2.8291,2.8291,2.8291,2.8291,2.8291,2.8291,2.8291,2.8291,2.8291,2.8291,2.8291,2.8291,2.8291,2.8291,2.8291,2.8291,2.8291,2.8291,2.8291,2.8291,2.8291,2.7501,2.7501,2.8291,2.5936,2.4369,2.359,2.2251,2.1145,2.0371,1.97,1.9366,1.9366,1.9366,1.9366,1.9366,1.9366,1.9366,1.9366,1.9366,1.9366,1.9366,1.9366,1.9366,1.9366,1.9366,1.9366,1.9366,1.9366,1.9366,1.9366,1.9366,1.9459,1.9559,1.9559,1.9766,2.002,2.0154,2.0307,2.0501,2.0795,2.0869,2.152,2.4132,2.5863,2.7811,3.0392,3.0889,3.0889,3.0889,3.0147,2.9285,2.8536,2.7683,2.647,2.4901,2.4054,2.3201,2.2341,2.1481,2.1109,2.1109,2.1109,2.1109,2.1109,2.1109,2.1109,2.1109,2.1109,2.1109,2.1109,2.1109,2.1109,2.1109,2.1109,2.1029,2.0869,2.0869,2.0708,2.8291,2.8291,2.8291,2.8291,2.8291,2.8291,2.8291,2.8291,2.8291,2.8291,2.8291,2.8291,2.8291,2.8291,2.8291,2.8291,2.8291,2.8291,2.8291,2.8291,2.8291,2.8291,2.8291,2.8291,2.8291,2.8291,2.8291,2.8291,2.8291,2.8291,2.8291,2.8291,2.8291,2.8291,2.7276,2.7168,2.8291,2.5726,2.3822,2.2694,2.1919,2.1031,1.9924,1.9591,1.9366,1.9366,1.9366,1.9366,1.9366,1.9366,1.9366,1.9366,1.9366,1.9366,1.9366,1.9366,1.9366,1.9366,1.9366,1.9366,1.9366,1.9366,1.9366,1.9366,1.9366,1.9366,1.9366,1.9366,1.9519,1.9706,1.978,1.996,2.0201,2.0494,2.0568,2.1149,2.312,2.4901,2.6712,2.9166,2.9658,2.9658,2.9658,2.8673,2.7692,2.7202,2.6106,2.477,2.3201,2.2959,2.2466,2.1229,2.1109,2.1109,2.1109,2.1109,2.1109,2.1109,2.1109,2.1109,2.1109,2.1109,2.1076,2.1002,2.1002,2.1002,2.1002,2.1002,2.0848,2.0568,2.0568,2.0401,2.8291,2.8291,2.8291,2.8291,2.8291,2.8291,2.8291,2.8291,2.8291,2.8291,2.8291,2.8291,2.8291,2.8291,2.8291,2.8291,2.8291,2.8291,2.8291,2.8291,2.8291,2.8291,2.8291,2.8291,2.8291,2.8291,2.8291,2.8291,2.8291,2.8291,2.8291,2.8291,2.8291,2.8291,2.8184,2.8184,2.8291,2.6744,2.5954,2.5818,2.2919,2.1586,2.1472,2.0033,1.9366,1.9366,1.9366,1.9366,1.9366,1.9366,1.9366,1.9366,1.9366,1.9366,1.9366,1.9366,1.9366,1.9366,1.9366,1.9366,1.9366,1.9366,1.9366,1.9366,1.9366,1.9366,1.9366,1.9366,1.9379,1.9452,1.9726,1.9813,1.99,2.0187,2.0254,2.0889,2.3068,2.4901,2.6098,2.6219,2.6227,2.6227,2.6227,2.6219,2.5619,2.4062,2.3814,2.3084,2.1481,2.1229,2.1235,2.1109,2.1109,2.1109,2.1109,2.1109,2.1109,2.1109,2.1109,2.1109,2.1109,2.1109,2.0982,2.0708,2.0702,2.0702,2.0702,2.0702,2.0548,2.0254,2.0254,2.01,2.8291,2.8291,2.8291,2.8291,2.8291,2.8291,2.8291,2.8291,2.8291,2.8291,2.8291,2.8291,2.8291,2.8291,2.8291,2.8291,2.8291,2.8291,2.8291,2.8291,2.8291,2.8291,2.8291,2.8291,2.8291,2.8291,2.8291,2.8291,2.8291,2.8291,2.8291,2.8291,2.7843,2.6943,2.7843,2.7843,2.6943,2.6381,2.516,2.3255,2.2145,2.1145,2.0141,1.9591,1.9366,1.9366,1.9366,1.9366,1.9366,1.9366,1.9366,1.9366,1.9366,1.9366,1.9366,1.9366,1.9366,1.9366,1.9366,1.9366,1.9366,1.9366,1.9366,1.9366,1.9366,1.9366,1.9366,1.9366,1.9366,1.9392,1.9499,1.9519,1.9593,1.9887,2.0094,2.0409,2.1223,2.3856,2.5976,2.5976,2.5976,2.5976,2.5976,2.5138,2.4294,2.3698,2.2709,2.1727,2.1235,2.1109,2.1109,2.1109,2.1109,2.1109,2.1109,2.1109,2.1109,2.1109,2.1109,2.1029,2.0842,2.0828,2.0695,2.0401,2.0394,2.0394,2.0394,2.0394,2.0241,1.9953,1.9953,1.98,2.8291,0.0,0.0,2.8291,2.8291,2.8291,2.8291,2.8291,2.8291,2.8291,2.8291,2.8291,2.8291,2.8291,2.8291,2.8291,2.8291,2.8291,2.8291,2.8291,2.8291,2.8291,2.8291,2.8291,2.8291,2.8291,2.8291,2.8291,2.7843,2.7511,2.7511,2.706,2.6381,2.538,2.6273,2.6273,2.5371,2.482,2.359,2.1578,2.1145,2.0371,1.9366,1.9366,1.9366,1.9366,1.9366,1.9366,1.9366,1.9366,1.9366,1.9366,1.9366,1.9366,1.9366,1.9366,1.9366,1.9366,1.9366,1.9366,1.9366,1.9366,1.9366,1.9366,1.9366,1.9366,1.9366,1.9366,1.9366,1.9366,1.9366,1.9366,1.9412,1.9606,1.9873,2.0087,2.0087,2.2125,2.4091,2.4208,2.4231,2.427,2.4386,2.3435,2.2709,2.2709,2.1853,2.1109,2.1109,2.1109,2.1109,2.1109,2.1109,2.1109,2.1109,2.1109,2.1069,2.0969,2.0962,2.0835,2.0541,2.0528,2.0388,2.0094,2.0087,2.004,1.9947,2.004,1.994,1.9659,1.9659,1.9553,0.0,0.0,0.0,2.8291,2.8291,2.8291,2.8291,2.8291,2.8291,2.8291,2.8291,2.8291,2.8291,2.8291,2.8291,2.8291,2.8291,2.8291,2.8291,2.8291,2.8291,2.8291,2.8291,2.8291,2.8291,2.8291,2.8291,2.8291,2.6943,2.6155,2.6155,2.471,2.3933,2.3933,2.3933,2.3822,2.3822,2.2363,2.1699,2.1586,2.0148,1.9366,1.9366,1.9366,1.9366,1.9366,1.9366,1.9366,1.9366,1.9366,1.9366,1.9366,1.9366,1.9366,1.9366,1.9366,1.9366,1.9366,1.9366,1.9366,1.9366,1.9366,1.9366,1.9366,1.9366,1.9366,1.9366,1.9366,1.9366,1.9366,1.9366,1.9366,1.9366,1.9366,1.9586,1.9786,1.9786,2.0007,2.0294,2.0601,2.0661,2.0755,2.1036,2.1082,2.1082,2.1082,2.1082,2.1082,2.1082,2.1082,2.1082,2.1082,2.1082,2.1082,2.1082,2.1082,2.0962,2.0681,2.0661,2.0528,2.0234,2.0221,2.0087,1.9793,1.9786,1.9646,1.9366,1.9646,1.9639,1.9366,1.9366,1.9366,2.8291,0.0,0.0,0.0,0.0,0.0,2.8291,2.8291,2.8291,2.8291,2.8291,2.8291,2.8291,2.8291,2.8291,2.8291,2.8291,2.8291,2.8291,2.8291,2.8291,2.8291,2.8291,2.8291,2.8291,2.8291,2.8291,2.8291,2.795,2.7726,2.7726,2.6273,2.5936,2.706,2.6045,2.548,2.548,2.3933,2.2702,2.1586,2.0148,1.9366,1.9366,1.9366,1.9366,1.9366,1.9366,1.9366,1.9366,1.9366,1.9366,1.9366,1.9366,1.9366,1.9366,1.9366,1.9366,1.9366,1.9366,1.9366,1.9366,1.9366,1.9366,1.9366,1.9366,1.9366,1.9366,1.9366,1.9366,1.9366,1.9366,1.9366,1.9366,1.9366,1.9432,1.9486,1.9486,1.9553,1.9753,2.0261,2.0354,2.0381,2.0461,2.0474,2.0474,2.0474,2.0474,2.0474,2.0474,2.0474,2.0474,2.0474,2.0474,2.0474,2.0474,2.0474,2.0441,2.0361,2.0354,2.0227,1.9933,1.992,1.978,1.9492,1.9486,1.9446,1.9366,1.9446,1.9446,1.9366,1.9366,1.9366,0.0,0.0,0.0,0.0,0.0,0.0,2.8291,2.8291,2.8291,2.8291,2.8291,2.8291,2.8291,2.8291,2.8291,2.8291,2.8291,2.8291,2.8291,2.8291,2.8291,2.8291,2.8291,2.8291,2.8291,2.8291,2.8291,2.8291,2.7726,2.6825,2.5599,2.4156,2.3718,2.4608,2.371,2.3271,2.3271,2.2379,2.1487,2.0702,1.9809,1.9366,1.9366,1.9366,1.9366,1.9366,1.9366,1.9366,1.9366,1.9366,1.9366,1.9366,1.9366,1.9366,1.9366,1.9366,1.9366,1.9366,1.9366,1.9366,1.9366,1.9366,1.9366,1.9366,1.9366,1.9366,1.9366,1.9366,1.9366,1.9366,1.9366,1.9366,1.9366,1.9366,1.9366,1.9366,1.9366,1.9366,1.9506,1.996,2.0054,2.0094,2.0214,2.0234,2.0234,2.0234,2.0234,2.0234,2.0234,2.0234,2.0234,2.0234,2.0234,2.0234,2.0234,2.0234,2.018,2.006,2.0054,1.992,1.9633,1.9619,1.9539,1.9372,1.9366,1.9366,1.9366,1.9366,1.9366,1.9366,1.9366,1.9366,0.0,0.0,0.0,0.0,2.8291,0.0,2.8291,2.8291,2.8291,2.8291,2.8291,2.8291,2.8291,2.8291,2.8291,2.8291,2.8291,2.8291,2.8291,2.8291,2.8291,2.8291,2.8291,2.8291,2.8291,2.8291,2.8184,2.8067,2.6717,2.4701,2.2032,2.0594,1.9931,1.9931,1.9931,1.9931,1.9931,1.97,1.9591,1.9591,1.9482,1.9366,1.9366,1.9366,1.9366,1.9366,1.9366,1.9366,1.9366,1.9366,1.9366,1.9366,1.9366,1.9366,1.9366,1.9366,1.9366,1.9366,1.9366,1.9366,1.9366,1.9366,1.9366,1.9366,1.9366,1.9366,1.9366,1.9366,1.9366,1.9366,1.9366,1.9366,1.9366,1.9366,1.9366,1.9366,1.9366,1.9366,1.9446,1.97,1.9753,1.9833,2.0094,2.0134,2.0134,2.0134,2.0134,2.0134,2.0134,2.0134,2.0134,2.0134,2.0134,2.0134,2.0134,2.0134,2.0027,1.9766,1.9753,1.9639,1.9379,1.9366,1.9366,1.9366,1.9366,1.9366,1.9366,1.9366,1.9366,1.9366,1.9366,1.9366,0.0,0.0,0.0,0.0,2.8291,0.0,2.8291,2.8291,2.8291,2.8291,2.8291,2.8291,2.8291,2.8291,2.8291,2.8291,2.8291,2.8291,2.8291,2.8291,2.8291,2.8291,2.8291,2.8291,2.8291,2.8291,2.7843,2.6599,2.516,2.4044,2.3375,2.3047,2.2934,2.2934,2.2934,2.2934,2.2934,2.1813,2.1137,2.1145,1.9924,1.9366,1.9366,1.9366,1.9366,1.9366,1.9366,1.9366,1.9366,1.9366,1.9366,1.9366,1.9366,1.9366,1.9366,1.9366,1.9366,1.9366,1.9366,1.9366,1.9366,1.9366,1.9366,1.9366,1.9366,1.9366,1.9366,1.9366,1.9366,1.9366,1.9366,1.9366,1.9366,1.9366,1.9366,1.9366,1.9366,1.9366,1.9386,1.9439,1.9452,1.9466,1.9526,1.9539,1.9539,1.9539,1.9539,1.9539,1.9539,1.9539,1.9539,1.9539,1.9539,1.9539,1.9539,1.9539,1.9512,1.9452,1.9452,1.9426,1.9372,1.9366,1.9366,1.9366,1.9366,1.9366,1.9366,1.9366,1.9366,1.9366,1.9366,1.9366,0.0,0.0,0.0,2.8291,2.8291,0.0,0.0,2.8291,2.8291,2.8291,2.8291,2.8291,2.8291,2.8291,2.8291,2.8291,2.8291,2.8291,2.8291,2.8291,2.8291,2.8291,2.8291,2.8291,2.8291,2.8291,2.795,2.7276,2.5827,2.4931,2.4931,2.3487,2.2702,2.2702,2.2702,2.2379,2.1601,2.1593,2.1252,2.0479,1.97,1.9366,1.9366,1.9366,1.9366,1.9366,1.9366,1.9366,1.9366,1.9366,1.9366,1.9366,1.9366,1.9366,1.9366,1.9366,1.9366,1.9366,1.9366,1.9366,1.9366,1.9366,1.9366,1.9366,1.9366,1.9366,1.9366,1.9366,1.9366,1.9366,1.9366,1.9366,1.9366,1.9366,1.9366,1.9366,1.9366,1.9366,1.9366,1.9366,1.9366,1.9366,1.9366,1.9366,1.9366,1.9366,1.9366,1.9366,1.9366,1.9366,1.9366,1.9366,1.9366,1.9366,1.9366,1.9366,1.9366,1.9366,1.9366,1.9366,1.9366,1.9366,1.9366,1.9366,1.9366,1.9366,1.9366,1.9366,1.9366,1.9366,1.9366,1.9366,0.0,0.0,0.0,0.0,0.0,2.8291,0.0,0.0,0.0,2.8193,2.8174,2.8144,2.8066,2.8047,2.8018,2.7939,2.7988,2.8018,2.7939,2.7998,2.8105,2.8271,2.8291,2.8291,2.8291,2.7736,2.7394,2.7394,2.5827,2.482,2.482,2.2476,2.1137,2.1137,2.1137,2.0587,1.9366,2.0587,2.0587,1.9366,1.9366,1.9366,1.9366,1.9366,1.9366,1.9366,1.9366,1.9366,1.9366,1.9366,1.9366,1.9366,1.9366,1.9366,1.9366,1.9366,1.9366,1.9366,1.9366,1.9366,1.9366,1.9366,1.9366,1.9366,1.9366,1.9366,1.9366,1.9366,1.9366,1.9366,1.9366,1.9366,1.9366,1.9366,1.9366,1.9366,1.9366,1.9366,1.9366,1.9366,1.9366,1.9366,1.9366,1.9366,1.9366,1.9366,1.9366,1.9366,1.9366,1.9366,1.9366,1.9366,1.9366,1.9366,1.9366,1.9366,1.9366,1.9366,1.9366,1.9366,1.9366,1.9366,1.9366,1.9366,1.9366,1.9366,1.9366,1.9366,1.9366,1.9366,1.9366,1.9366,0.0,0.0,0.0,0.0,2.8291,2.8291,2.8291,0.0,2.8184,2.7812,0.0,2.7617,2.7226,0.0,0.0,2.666,2.6914,2.7031,2.666,2.6924,2.7441,2.8203,2.8291,2.8291,2.8291,2.5836,2.4267,2.4267,2.1714,2.0155,2.0155,1.9815,1.9707,1.9707,1.9707,1.9591,1.9366,1.9591,1.9591,1.9366,1.9366,1.9366,1.9366,1.9366,1.9366,1.9366,1.9366,1.9366,1.9366,1.9366,1.9366,1.9366,1.9366,1.9366,1.9366,1.9366,1.9366,1.9366,1.9366,1.9366,1.9366,1.9366,1.9366,1.9366,1.9366,1.9366,1.9366,1.9366,1.9366,1.9366,1.9366,1.9366,1.9366,1.9366,1.9366,1.9366,1.9366,1.9366,1.9366,1.9366,1.9366,1.9366,1.9366,1.9366,1.9366,1.9366,1.9366,1.9366,1.9366,1.9366,1.9366,1.9366,1.9366,1.9366,1.9366,1.9366,1.9366,1.9366,1.9366,1.9366,1.9366,1.9366,1.9366,1.9366,1.9366,1.9366,1.9366,1.9366,1.9366,1.9366,1.9366,1.9366,0.0,0.0,0.0,2.8291,2.8291,2.8232,2.7988,2.793,2.7803,2.7373,0.0,0.0,0.0,0.0,0.0,0.0,2.6904,2.6953,2.6777,2.6904,2.7246,2.7861,2.793,2.7699,2.706,2.5058,2.3822,2.3822,2.2605,2.1934,2.1934,2.1152,2.0702,2.0702,2.0702,2.0256,1.9366,2.0256,2.0256,1.9366,1.9366,1.9366,1.9366,1.9366,1.9366,1.9366,1.9366,1.9366,1.9366,1.9366,1.9366,1.9366,1.9366,1.9366,1.9366,1.9366,1.9366,1.9366,1.9366,1.9366,1.9366,1.9366,1.9366,1.9366,1.9366,1.9366,1.9366,1.9366,1.9366,1.9366,1.9366,1.9366,1.9366,1.9366,1.9366,1.9366,1.9366,1.9366,1.9366,1.9366,1.9366,1.9366,1.9366,1.9366,1.9366,1.9366,1.9366,1.9366,1.9366,1.9366,1.9366,1.9366,1.9366,1.9366,1.9366,1.9366,1.9366,1.9366,1.9366,1.9366,1.9366,1.9366,1.9366,1.9366,1.9366,1.9366,1.9366,1.9366,1.9366,1.9366,1.9366,1.9366,2.8291,2.8291,2.8262,2.8144,2.8125,2.8018,2.7588,2.749,2.7363,2.6934,2.6846,0.0,0.0,0.0,0.0,0.0,0.0,2.6621,2.6494,2.6592,2.6875,2.7422,2.7159,2.652,2.5388,2.3863,2.2973,2.2973,2.2537,2.2323,2.2323,2.1324,2.0769,2.0769,2.0769,2.0224,1.9125,2.0224,2.0267,1.9245,1.9245,1.9292,1.9366,1.9366,1.9366,1.9366,1.9366,1.9366,1.9366,1.9366,1.9366,1.9366,1.9366,1.9366,1.9366,1.9366,1.9366,1.9366,1.9366,1.9366,1.9366,1.9366,1.9366,1.9366,1.9366,1.9366,1.9366,1.9366,1.9366,1.9366,1.9366,1.9366,1.9366,1.9366,1.9366,1.9366,1.9366,1.9366,1.9366,1.9366,1.9366,1.9366,1.9366,1.9366,1.9366,1.9366,1.9366,1.9366,1.9366,1.9366,1.9366,1.9366,1.9366,1.9366,1.9366,1.9366,1.9366,1.9366,1.9366,1.9366,1.9366,1.9366,1.9366,1.9366,1.9366,1.9366,1.9366,1.9366,1.9366,1.9366,1.9366,1.9366,2.8291,2.8291,2.8193,2.7783,2.7685,2.7568,2.7139,2.7041,2.6914,2.6494,2.6406,2.6279,2.5859,0.0,0.0,0.0,0.0,0.0,0.0,2.5508,2.6094,2.6934,2.5853,2.4569,2.3101,2.1711,2.0846,2.0846,1.9477,1.8628,1.8628,1.8628,1.8628,1.8628,1.8628,1.8628,1.8517,1.8628,1.8657,1.8938,1.8938,1.9092,1.9366,1.9366,1.9366,1.9366,1.9366,1.9366,1.9366,1.9366,1.9366,1.9366,1.9366,1.9366,1.9366,1.9366,1.9366,1.9366,1.9366,1.9366,1.9366,1.9366,1.9366,1.9366,1.9366,1.9366,1.9366,1.9366,1.9366,1.9366,1.9366,1.9366,1.9366,1.9366,1.9366,1.9366,1.9366,1.9366,1.9366,1.9366,1.9366,1.9366,1.9366,1.9366,1.9366,1.9366,1.9366,1.9366,1.9366,1.9366,1.9366,1.9366,1.9366,1.9366,1.9366,1.9366,1.9366,1.9366,1.9366,1.9366,1.9366,1.9366,1.9366,1.9366,1.9366,1.9366,1.9366,1.9366,1.9366,1.9366,1.9366,1.9366,2.7949,2.7881,2.7773,2.7344,2.7236,2.7129,2.6699,2.6602,2.6475,2.6045,2.5957,2.5918,2.5762,0.0,0.0,0.0,0.0,0.0,0.0,2.4827,2.4198,2.3538,2.3497,2.2953,2.1564,2.0085,1.9236,1.9236,1.8809,1.849,1.849,1.849,1.849,1.849,1.849,1.849,1.849,1.849,1.8544,1.8637,1.8637,1.8691,1.8791,1.8985,1.9078,1.9085,1.9279,1.9366,1.9366,1.9366,1.9366,1.9366,1.9366,1.9366,1.9366,1.9366,1.9366,1.9366,1.9366,1.9366,1.9366,1.9366,1.9366,1.9366,1.9366,1.9366,1.9366,1.9366,1.9366,1.9366,1.9366,1.9366,1.9366,1.9366,1.9366,1.9366,1.9366,1.9366,1.9366,1.9366,1.9366,1.9366,1.9366,1.9366,1.9366,1.9366,1.9366,1.9366,1.9366,1.9366,1.9366,1.9366,1.9366,1.9366,1.9366,1.9366,1.9366,1.9366,1.9366,1.9366,1.9366,1.9366,1.9366,1.9366,1.9366,1.9366,1.9366,1.9366,1.9366,1.9366,1.9366,1.9366,2.7549,2.7432,2.7334,2.6894,2.6797,2.668,2.626,2.6162,2.6074,2.5791,2.5742,2.5742,2.5742,0.0,0.0,0.0,0.0,0.0,0.0,2.451,2.3176,2.1853,2.1658,2.1098,1.9728,1.8686,1.817,1.817,1.817,1.817,1.817,1.817,1.817,1.817,1.817,1.817,1.817,1.817,1.8223,1.833,1.833,1.8384,1.8497,1.8684,1.8824,1.8931,1.9125,1.9272,1.9366,1.9366,1.9366,1.9366,1.9366,1.9366,1.9366,1.9366,1.9366,1.9366,1.9366,1.9366,1.9366,1.9366,1.9366,1.9366,1.9366,1.9366,1.9366,1.9366,1.9366,1.9366,1.9366,1.9366,1.9366,1.9366,1.9366,1.9366,1.9366,1.9366,1.9366,1.9366,1.9366,1.9366,1.9366,1.9366,1.9366,1.9366,1.9366,1.9366,1.9366,1.9366,1.9366,1.9366,1.9366,1.9366,1.9366,1.9366,1.9366,1.9366,1.9366,1.9366,1.9366,1.9366,1.9366,1.9366,1.9366,1.9366,1.9366,1.9366,1.9366,1.9366,1.9366,1.9127]}]]